<?xml version="1.0" encoding="UTF-8" standalone="no" ?>
<gpx xmlns="http://www.topografix.com/GPX/1/1" xmlns:xsi="http://www.w3.org/2001/XMLSchema-instance" xsi:schemaLocation="http://www.topografix.com/GPX/1/1 http://www.topografix.com/GPX/1/1/gpx.xsd" version="1.1" creator="VisuGPX - https://www.visugpx.com">
  <metadata>
    <name>20121014 - Foyer rural Lévignac - Bouconne </name>
    <desc><![CDATA[41 kms - 780 m de dénivelé
Bouconne
Pujaudran
Fourès
Ségoufielle
Pradère
Le Castéra]]></desc>
  </metadata>
  <trk>
    <name><![CDATA[20121014VTTFRS]]></name>
    <trkseg>
      <trkpt lat="43.669" lon="1.19698">
        <ele>128.202316</ele>
        <time>2012-10-14T08:32:04Z</time>
      </trkpt>
      <trkpt lat="43.66892" lon="1.1972">
        <ele>128.518707</ele>
        <time>2012-10-14T08:32:32Z</time>
      </trkpt>
      <trkpt lat="43.66886" lon="1.19728">
        <ele>128.726242</ele>
        <time>2012-10-14T08:36:01Z</time>
      </trkpt>
      <trkpt lat="43.66887" lon="1.19727">
        <ele>128.68689</ele>
        <time>2012-10-14T08:36:15Z</time>
      </trkpt>
      <trkpt lat="43.66902" lon="1.19733">
        <ele>128.436371</ele>
        <time>2012-10-14T08:36:26Z</time>
      </trkpt>
      <trkpt lat="43.669" lon="1.1974">
        <ele>128.614792</ele>
        <time>2012-10-14T08:36:30Z</time>
      </trkpt>
      <trkpt lat="43.66898" lon="1.19741">
        <ele>128.712296</ele>
        <time>2012-10-14T08:36:32Z</time>
      </trkpt>
      <trkpt lat="43.66898" lon="1.19744">
        <ele>128.772888</ele>
        <time>2012-10-14T08:36:34Z</time>
      </trkpt>
      <trkpt lat="43.66907" lon="1.19767">
        <ele>129.071014</ele>
        <time>2012-10-14T08:36:47Z</time>
      </trkpt>
      <trkpt lat="43.66908" lon="1.19774">
        <ele>129.164795</ele>
        <time>2012-10-14T08:36:49Z</time>
      </trkpt>
      <trkpt lat="43.66936" lon="1.1982">
        <ele>129.110001</ele>
        <time>2012-10-14T08:37:04Z</time>
      </trkpt>
      <trkpt lat="43.66964" lon="1.1986">
        <ele>129.147125</ele>
        <time>2012-10-14T08:37:16Z</time>
      </trkpt>
      <trkpt lat="43.67003" lon="1.19918">
        <ele>129.255783</ele>
        <time>2012-10-14T08:37:31Z</time>
      </trkpt>
      <trkpt lat="43.67043" lon="1.19976">
        <ele>129.318756</ele>
        <time>2012-10-14T08:37:46Z</time>
      </trkpt>
      <trkpt lat="43.67087" lon="1.2004">
        <ele>129.404999</ele>
        <time>2012-10-14T08:38:01Z</time>
      </trkpt>
      <trkpt lat="43.67138" lon="1.20112">
        <ele>129.982178</ele>
        <time>2012-10-14T08:38:18Z</time>
      </trkpt>
      <trkpt lat="43.67188" lon="1.20179">
        <ele>129.671875</ele>
        <time>2012-10-14T08:38:34Z</time>
      </trkpt>
      <trkpt lat="43.6719" lon="1.20183">
        <ele>129.622498</ele>
        <time>2012-10-14T08:38:35Z</time>
      </trkpt>
      <trkpt lat="43.67209" lon="1.20215">
        <ele>129.583755</ele>
        <time>2012-10-14T08:38:43Z</time>
      </trkpt>
      <trkpt lat="43.67208" lon="1.20219">
        <ele>129.690628</ele>
        <time>2012-10-14T08:38:44Z</time>
      </trkpt>
      <trkpt lat="43.67173" lon="1.20268">
        <ele>134.234009</ele>
        <time>2012-10-14T08:38:59Z</time>
      </trkpt>
      <trkpt lat="43.67136" lon="1.20295">
        <ele>137.24588</ele>
        <time>2012-10-14T08:39:14Z</time>
      </trkpt>
      <trkpt lat="43.67103" lon="1.20338">
        <ele>140.492813</ele>
        <time>2012-10-14T08:39:31Z</time>
      </trkpt>
      <trkpt lat="43.6707" lon="1.20394">
        <ele>145.790222</ele>
        <time>2012-10-14T08:39:50Z</time>
      </trkpt>
      <trkpt lat="43.67038" lon="1.20445">
        <ele>150.598389</ele>
        <time>2012-10-14T08:40:09Z</time>
      </trkpt>
      <trkpt lat="43.67004" lon="1.20478">
        <ele>152.951248</ele>
        <time>2012-10-14T08:40:27Z</time>
      </trkpt>
      <trkpt lat="43.66978" lon="1.20515">
        <ele>156.509995</ele>
        <time>2012-10-14T08:40:44Z</time>
      </trkpt>
      <trkpt lat="43.66954" lon="1.20544">
        <ele>158.9375</ele>
        <time>2012-10-14T08:40:58Z</time>
      </trkpt>
      <trkpt lat="43.6692" lon="1.20573">
        <ele>162.339813</ele>
        <time>2012-10-14T08:41:15Z</time>
      </trkpt>
      <trkpt lat="43.66891" lon="1.20592">
        <ele>164.15715</ele>
        <time>2012-10-14T08:41:29Z</time>
      </trkpt>
      <trkpt lat="43.6686" lon="1.20598">
        <ele>164.686203</ele>
        <time>2012-10-14T08:41:43Z</time>
      </trkpt>
      <trkpt lat="43.66833" lon="1.20602">
        <ele>165.540344</ele>
        <time>2012-10-14T08:41:55Z</time>
      </trkpt>
      <trkpt lat="43.66814" lon="1.2061">
        <ele>167.878708</ele>
        <time>2012-10-14T08:42:04Z</time>
      </trkpt>
      <trkpt lat="43.6679" lon="1.20623">
        <ele>171.36232</ele>
        <time>2012-10-14T08:42:17Z</time>
      </trkpt>
      <trkpt lat="43.66763" lon="1.20649">
        <ele>176.163437</ele>
        <time>2012-10-14T08:42:33Z</time>
      </trkpt>
      <trkpt lat="43.66758" lon="1.20654">
        <ele>176.773941</ele>
        <time>2012-10-14T08:42:36Z</time>
      </trkpt>
      <trkpt lat="43.66735" lon="1.20677">
        <ele>181.300064</ele>
        <time>2012-10-14T08:42:49Z</time>
      </trkpt>
      <trkpt lat="43.66713" lon="1.20697">
        <ele>185.488571</ele>
        <time>2012-10-14T08:43:01Z</time>
      </trkpt>
      <trkpt lat="43.66689" lon="1.20711">
        <ele>188.260071</ele>
        <time>2012-10-14T08:43:14Z</time>
      </trkpt>
      <trkpt lat="43.66656" lon="1.20728">
        <ele>190.279877</ele>
        <time>2012-10-14T08:43:30Z</time>
      </trkpt>
      <trkpt lat="43.66622" lon="1.2076">
        <ele>191.447327</ele>
        <time>2012-10-14T08:43:48Z</time>
      </trkpt>
      <trkpt lat="43.66587" lon="1.20819">
        <ele>191.425827</ele>
        <time>2012-10-14T08:44:06Z</time>
      </trkpt>
      <trkpt lat="43.66554" lon="1.20887">
        <ele>190.953125</ele>
        <time>2012-10-14T08:44:22Z</time>
      </trkpt>
      <trkpt lat="43.6654" lon="1.20938">
        <ele>190.217148</ele>
        <time>2012-10-14T08:44:31Z</time>
      </trkpt>
      <trkpt lat="43.66506" lon="1.21037">
        <ele>188.127563</ele>
        <time>2012-10-14T08:44:47Z</time>
      </trkpt>
      <trkpt lat="43.66455" lon="1.21105">
        <ele>187.023712</ele>
        <time>2012-10-14T08:45:00Z</time>
      </trkpt>
      <trkpt lat="43.6642" lon="1.2116">
        <ele>186.628754</ele>
        <time>2012-10-14T08:45:10Z</time>
      </trkpt>
      <trkpt lat="43.66375" lon="1.21244">
        <ele>185.100006</ele>
        <time>2012-10-14T08:45:25Z</time>
      </trkpt>
      <trkpt lat="43.66363" lon="1.21265">
        <ele>184.714996</ele>
        <time>2012-10-14T08:45:30Z</time>
      </trkpt>
      <trkpt lat="43.6636" lon="1.21283">
        <ele>184.202499</ele>
        <time>2012-10-14T08:45:35Z</time>
      </trkpt>
      <trkpt lat="43.66358" lon="1.21284">
        <ele>184.203751</ele>
        <time>2012-10-14T08:45:36Z</time>
      </trkpt>
      <trkpt lat="43.66355" lon="1.21285">
        <ele>184.233749</ele>
        <time>2012-10-14T08:45:37Z</time>
      </trkpt>
      <trkpt lat="43.66352" lon="1.21286">
        <ele>184.322342</ele>
        <time>2012-10-14T08:45:38Z</time>
      </trkpt>
      <trkpt lat="43.6635" lon="1.21286">
        <ele>184.405457</ele>
        <time>2012-10-14T08:45:39Z</time>
      </trkpt>
      <trkpt lat="43.66348" lon="1.21289">
        <ele>184.430283</ele>
        <time>2012-10-14T08:45:40Z</time>
      </trkpt>
      <trkpt lat="43.66346" lon="1.21292">
        <ele>184.394485</ele>
        <time>2012-10-14T08:45:41Z</time>
      </trkpt>
      <trkpt lat="43.66347" lon="1.21295">
        <ele>184.308121</ele>
        <time>2012-10-14T08:45:42Z</time>
      </trkpt>
      <trkpt lat="43.66348" lon="1.21298">
        <ele>184.188751</ele>
        <time>2012-10-14T08:45:43Z</time>
      </trkpt>
      <trkpt lat="43.6635" lon="1.213">
        <ele>184.064377</ele>
        <time>2012-10-14T08:45:44Z</time>
      </trkpt>
      <trkpt lat="43.66352" lon="1.21304">
        <ele>183.955627</ele>
        <time>2012-10-14T08:45:45Z</time>
      </trkpt>
      <trkpt lat="43.66352" lon="1.21307">
        <ele>183.882507</ele>
        <time>2012-10-14T08:45:46Z</time>
      </trkpt>
      <trkpt lat="43.66352" lon="1.21311">
        <ele>183.826248</ele>
        <time>2012-10-14T08:45:47Z</time>
      </trkpt>
      <trkpt lat="43.66351" lon="1.21315">
        <ele>183.78688</ele>
        <time>2012-10-14T08:45:48Z</time>
      </trkpt>
      <trkpt lat="43.6635" lon="1.21319">
        <ele>183.768753</ele>
        <time>2012-10-14T08:45:49Z</time>
      </trkpt>
      <trkpt lat="43.66349" lon="1.21323">
        <ele>183.766251</ele>
        <time>2012-10-14T08:45:50Z</time>
      </trkpt>
      <trkpt lat="43.66341" lon="1.21363">
        <ele>183.484375</ele>
        <time>2012-10-14T08:45:58Z</time>
      </trkpt>
      <trkpt lat="43.66341" lon="1.2137">
        <ele>183.388123</ele>
        <time>2012-10-14T08:45:59Z</time>
      </trkpt>
      <trkpt lat="43.6634" lon="1.21384">
        <ele>183.198746</ele>
        <time>2012-10-14T08:46:01Z</time>
      </trkpt>
      <trkpt lat="43.66338" lon="1.2139">
        <ele>183.191254</ele>
        <time>2012-10-14T08:46:02Z</time>
      </trkpt>
      <trkpt lat="43.66336" lon="1.21396">
        <ele>183.191254</ele>
        <time>2012-10-14T08:46:03Z</time>
      </trkpt>
      <trkpt lat="43.66334" lon="1.21402">
        <ele>183.195007</ele>
        <time>2012-10-14T08:46:04Z</time>
      </trkpt>
      <trkpt lat="43.66332" lon="1.21406">
        <ele>183.231247</ele>
        <time>2012-10-14T08:46:05Z</time>
      </trkpt>
      <trkpt lat="43.66329" lon="1.2141">
        <ele>183.303131</ele>
        <time>2012-10-14T08:46:06Z</time>
      </trkpt>
      <trkpt lat="43.66326" lon="1.21416">
        <ele>183.351257</ele>
        <time>2012-10-14T08:46:07Z</time>
      </trkpt>
      <trkpt lat="43.66323" lon="1.2142">
        <ele>183.40271</ele>
        <time>2012-10-14T08:46:08Z</time>
      </trkpt>
      <trkpt lat="43.66321" lon="1.21424">
        <ele>183.477737</ele>
        <time>2012-10-14T08:46:09Z</time>
      </trkpt>
      <trkpt lat="43.66318" lon="1.21426">
        <ele>183.571167</ele>
        <time>2012-10-14T08:46:10Z</time>
      </trkpt>
      <trkpt lat="43.66315" lon="1.21429">
        <ele>183.657898</ele>
        <time>2012-10-14T08:46:11Z</time>
      </trkpt>
      <trkpt lat="43.6629" lon="1.21455">
        <ele>183.875626</ele>
        <time>2012-10-14T08:46:22Z</time>
      </trkpt>
      <trkpt lat="43.66283" lon="1.21468">
        <ele>183.816254</ele>
        <time>2012-10-14T08:46:26Z</time>
      </trkpt>
      <trkpt lat="43.66264" lon="1.21476">
        <ele>184.026306</ele>
        <time>2012-10-14T08:46:33Z</time>
      </trkpt>
      <trkpt lat="43.66261" lon="1.21475">
        <ele>184.002609</ele>
        <time>2012-10-14T08:46:34Z</time>
      </trkpt>
      <trkpt lat="43.66237" lon="1.2146">
        <ele>184.136963</ele>
        <time>2012-10-14T08:46:44Z</time>
      </trkpt>
      <trkpt lat="43.66233" lon="1.21459">
        <ele>184.15918</ele>
        <time>2012-10-14T08:46:46Z</time>
      </trkpt>
      <trkpt lat="43.66224" lon="1.2146">
        <ele>184.072662</ele>
        <time>2012-10-14T08:46:50Z</time>
      </trkpt>
      <trkpt lat="43.66191" lon="1.21462">
        <ele>182.382874</ele>
        <time>2012-10-14T08:47:02Z</time>
      </trkpt>
      <trkpt lat="43.66166" lon="1.21454">
        <ele>181.258743</ele>
        <time>2012-10-14T08:47:10Z</time>
      </trkpt>
      <trkpt lat="43.66149" lon="1.2144">
        <ele>181.146896</ele>
        <time>2012-10-14T08:47:17Z</time>
      </trkpt>
      <trkpt lat="43.66128" lon="1.21452">
        <ele>177.580246</ele>
        <time>2012-10-14T08:47:27Z</time>
      </trkpt>
      <trkpt lat="43.66116" lon="1.2146">
        <ele>175.025391</ele>
        <time>2012-10-14T08:47:32Z</time>
      </trkpt>
      <trkpt lat="43.6608" lon="1.21444">
        <ele>172.444717</ele>
        <time>2012-10-14T08:47:41Z</time>
      </trkpt>
      <trkpt lat="43.66049" lon="1.21429">
        <ele>170.554016</ele>
        <time>2012-10-14T08:47:51Z</time>
      </trkpt>
      <trkpt lat="43.66043" lon="1.21427">
        <ele>170.107468</ele>
        <time>2012-10-14T08:47:56Z</time>
      </trkpt>
      <trkpt lat="43.66039" lon="1.21424">
        <ele>169.910507</ele>
        <time>2012-10-14T08:47:59Z</time>
      </trkpt>
      <trkpt lat="43.66016" lon="1.21419">
        <ele>169.824097</ele>
        <time>2012-10-14T08:48:09Z</time>
      </trkpt>
      <trkpt lat="43.65981" lon="1.21397">
        <ele>170.259293</ele>
        <time>2012-10-14T08:48:22Z</time>
      </trkpt>
      <trkpt lat="43.65938" lon="1.21362">
        <ele>169.041565</ele>
        <time>2012-10-14T08:48:38Z</time>
      </trkpt>
      <trkpt lat="43.65908" lon="1.21368">
        <ele>169.307755</ele>
        <time>2012-10-14T08:48:49Z</time>
      </trkpt>
      <trkpt lat="43.65896" lon="1.21358">
        <ele>169.163239</ele>
        <time>2012-10-14T08:49:00Z</time>
      </trkpt>
      <trkpt lat="43.65895" lon="1.21353">
        <ele>169.147491</ele>
        <time>2012-10-14T08:49:10Z</time>
      </trkpt>
      <trkpt lat="43.65895" lon="1.21354">
        <ele>169.162476</ele>
        <time>2012-10-14T08:49:12Z</time>
      </trkpt>
      <trkpt lat="43.6589" lon="1.21359">
        <ele>169.29953</ele>
        <time>2012-10-14T08:49:17Z</time>
      </trkpt>
      <trkpt lat="43.6587" lon="1.21375">
        <ele>171.097992</ele>
        <time>2012-10-14T08:49:27Z</time>
      </trkpt>
      <trkpt lat="43.65841" lon="1.21393">
        <ele>175.180832</ele>
        <time>2012-10-14T08:49:40Z</time>
      </trkpt>
      <trkpt lat="43.65833" lon="1.21376">
        <ele>173.392883</ele>
        <time>2012-10-14T08:49:49Z</time>
      </trkpt>
      <trkpt lat="43.65821" lon="1.21358">
        <ele>172.147034</ele>
        <time>2012-10-14T08:49:57Z</time>
      </trkpt>
      <trkpt lat="43.65815" lon="1.21357">
        <ele>172.536377</ele>
        <time>2012-10-14T08:50:01Z</time>
      </trkpt>
      <trkpt lat="43.65809" lon="1.21354">
        <ele>173.046982</ele>
        <time>2012-10-14T08:50:05Z</time>
      </trkpt>
      <trkpt lat="43.65806" lon="1.21352">
        <ele>173.21759</ele>
        <time>2012-10-14T08:50:07Z</time>
      </trkpt>
      <trkpt lat="43.65788" lon="1.2135">
        <ele>175.123199</ele>
        <time>2012-10-14T08:50:18Z</time>
      </trkpt>
      <trkpt lat="43.6578" lon="1.2135">
        <ele>176.024078</ele>
        <time>2012-10-14T08:50:23Z</time>
      </trkpt>
      <trkpt lat="43.65764" lon="1.21359">
        <ele>178.747406</ele>
        <time>2012-10-14T08:50:31Z</time>
      </trkpt>
      <trkpt lat="43.65756" lon="1.21347">
        <ele>178.275635</ele>
        <time>2012-10-14T08:50:38Z</time>
      </trkpt>
      <trkpt lat="43.6575" lon="1.21342">
        <ele>178.428207</ele>
        <time>2012-10-14T08:50:41Z</time>
      </trkpt>
      <trkpt lat="43.65734" lon="1.21335">
        <ele>179.434036</ele>
        <time>2012-10-14T08:50:49Z</time>
      </trkpt>
      <trkpt lat="43.65727" lon="1.2131">
        <ele>178.21019</ele>
        <time>2012-10-14T08:50:56Z</time>
      </trkpt>
      <trkpt lat="43.65729" lon="1.21305">
        <ele>177.494125</ele>
        <time>2012-10-14T08:50:58Z</time>
      </trkpt>
      <trkpt lat="43.65727" lon="1.2128">
        <ele>176.536285</ele>
        <time>2012-10-14T08:51:06Z</time>
      </trkpt>
      <trkpt lat="43.65724" lon="1.21276">
        <ele>176.688126</ele>
        <time>2012-10-14T08:51:10Z</time>
      </trkpt>
      <trkpt lat="43.65714" lon="1.21259">
        <ele>176.724945</ele>
        <time>2012-10-14T08:51:17Z</time>
      </trkpt>
      <trkpt lat="43.6571" lon="1.21251">
        <ele>176.636902</ele>
        <time>2012-10-14T08:51:20Z</time>
      </trkpt>
      <trkpt lat="43.65705" lon="1.21246">
        <ele>176.826538</ele>
        <time>2012-10-14T08:51:22Z</time>
      </trkpt>
      <trkpt lat="43.65686" lon="1.21248">
        <ele>178.703476</ele>
        <time>2012-10-14T08:51:28Z</time>
      </trkpt>
      <trkpt lat="43.65673" lon="1.2125">
        <ele>179.815491</ele>
        <time>2012-10-14T08:51:33Z</time>
      </trkpt>
      <trkpt lat="43.65655" lon="1.21261">
        <ele>181.899414</ele>
        <time>2012-10-14T08:51:45Z</time>
      </trkpt>
      <trkpt lat="43.65637" lon="1.21274">
        <ele>184.097336</ele>
        <time>2012-10-14T08:51:56Z</time>
      </trkpt>
      <trkpt lat="43.65621" lon="1.2129">
        <ele>186.980301</ele>
        <time>2012-10-14T08:52:06Z</time>
      </trkpt>
      <trkpt lat="43.65612" lon="1.21297">
        <ele>188.335205</ele>
        <time>2012-10-14T08:52:11Z</time>
      </trkpt>
      <trkpt lat="43.65592" lon="1.2131">
        <ele>190.887177</ele>
        <time>2012-10-14T08:52:22Z</time>
      </trkpt>
      <trkpt lat="43.65586" lon="1.21315">
        <ele>191.613052</ele>
        <time>2012-10-14T08:52:26Z</time>
      </trkpt>
      <trkpt lat="43.65556" lon="1.21342">
        <ele>194.315262</ele>
        <time>2012-10-14T08:52:41Z</time>
      </trkpt>
      <trkpt lat="43.65552" lon="1.21346">
        <ele>194.614487</ele>
        <time>2012-10-14T08:52:43Z</time>
      </trkpt>
      <trkpt lat="43.65527" lon="1.21368">
        <ele>195.873978</ele>
        <time>2012-10-14T08:52:55Z</time>
      </trkpt>
      <trkpt lat="43.6552" lon="1.21368">
        <ele>196.221619</ele>
        <time>2012-10-14T08:52:58Z</time>
      </trkpt>
      <trkpt lat="43.65514" lon="1.21356">
        <ele>196.777679</ele>
        <time>2012-10-14T08:53:10Z</time>
      </trkpt>
      <trkpt lat="43.65511" lon="1.21347">
        <ele>197.151413</ele>
        <time>2012-10-14T08:53:21Z</time>
      </trkpt>
      <trkpt lat="43.65511" lon="1.21338">
        <ele>197.421844</ele>
        <time>2012-10-14T08:53:24Z</time>
      </trkpt>
      <trkpt lat="43.65519" lon="1.21306">
        <ele>197.241867</ele>
        <time>2012-10-14T08:53:33Z</time>
      </trkpt>
      <trkpt lat="43.65503" lon="1.21292">
        <ele>198.696564</ele>
        <time>2012-10-14T08:53:39Z</time>
      </trkpt>
      <trkpt lat="43.65469" lon="1.21281">
        <ele>200.410004</ele>
        <time>2012-10-14T08:53:50Z</time>
      </trkpt>
      <trkpt lat="43.65441" lon="1.21269">
        <ele>201.417709</ele>
        <time>2012-10-14T08:53:59Z</time>
      </trkpt>
      <trkpt lat="43.65432" lon="1.21265">
        <ele>201.652283</ele>
        <time>2012-10-14T08:54:02Z</time>
      </trkpt>
      <trkpt lat="43.65415" lon="1.21273">
        <ele>202.215088</ele>
        <time>2012-10-14T08:54:07Z</time>
      </trkpt>
      <trkpt lat="43.65412" lon="1.21274">
        <ele>202.337997</ele>
        <time>2012-10-14T08:54:08Z</time>
      </trkpt>
      <trkpt lat="43.65409" lon="1.21275">
        <ele>202.414581</ele>
        <time>2012-10-14T08:54:09Z</time>
      </trkpt>
      <trkpt lat="43.65384" lon="1.21292">
        <ele>203.069183</ele>
        <time>2012-10-14T08:54:17Z</time>
      </trkpt>
      <trkpt lat="43.65357" lon="1.21291">
        <ele>203.663757</ele>
        <time>2012-10-14T08:54:25Z</time>
      </trkpt>
      <trkpt lat="43.65322" lon="1.21283">
        <ele>204.942505</ele>
        <time>2012-10-14T08:54:35Z</time>
      </trkpt>
      <trkpt lat="43.65294" lon="1.21273">
        <ele>207.406097</ele>
        <time>2012-10-14T08:54:44Z</time>
      </trkpt>
      <trkpt lat="43.65271" lon="1.21269">
        <ele>209.710495</ele>
        <time>2012-10-14T08:54:52Z</time>
      </trkpt>
      <trkpt lat="43.65248" lon="1.21264">
        <ele>211.986801</ele>
        <time>2012-10-14T08:55:02Z</time>
      </trkpt>
      <trkpt lat="43.65216" lon="1.21255">
        <ele>214.908127</ele>
        <time>2012-10-14T08:55:13Z</time>
      </trkpt>
      <trkpt lat="43.65186" lon="1.21251">
        <ele>216.608597</ele>
        <time>2012-10-14T08:55:26Z</time>
      </trkpt>
      <trkpt lat="43.65185" lon="1.2125">
        <ele>216.621246</ele>
        <time>2012-10-14T08:55:27Z</time>
      </trkpt>
      <trkpt lat="43.65184" lon="1.21248">
        <ele>216.497498</ele>
        <time>2012-10-14T08:55:33Z</time>
      </trkpt>
      <trkpt lat="43.65185" lon="1.21249">
        <ele>216.448746</ele>
        <time>2012-10-14T08:55:35Z</time>
      </trkpt>
      <trkpt lat="43.65188" lon="1.21248">
        <ele>216.255829</ele>
        <time>2012-10-14T08:55:37Z</time>
      </trkpt>
      <trkpt lat="43.65189" lon="1.21249">
        <ele>216.208435</ele>
        <time>2012-10-14T08:55:38Z</time>
      </trkpt>
      <trkpt lat="43.65222" lon="1.21256">
        <ele>214.498123</ele>
        <time>2012-10-14T08:55:51Z</time>
      </trkpt>
      <trkpt lat="43.65222" lon="1.21255">
        <ele>214.530624</ele>
        <time>2012-10-14T08:55:52Z</time>
      </trkpt>
      <trkpt lat="43.65221" lon="1.21253">
        <ele>214.571243</ele>
        <time>2012-10-14T08:55:53Z</time>
      </trkpt>
      <trkpt lat="43.65207" lon="1.21239">
        <ele>213.939957</ele>
        <time>2012-10-14T08:56:04Z</time>
      </trkpt>
      <trkpt lat="43.65206" lon="1.21238">
        <ele>213.936447</ele>
        <time>2012-10-14T08:56:05Z</time>
      </trkpt>
      <trkpt lat="43.65205" lon="1.21236">
        <ele>213.824646</ele>
        <time>2012-10-14T08:56:06Z</time>
      </trkpt>
      <trkpt lat="43.65204" lon="1.21234">
        <ele>213.73027</ele>
        <time>2012-10-14T08:56:07Z</time>
      </trkpt>
      <trkpt lat="43.65202" lon="1.21233">
        <ele>213.662125</ele>
        <time>2012-10-14T08:56:08Z</time>
      </trkpt>
      <trkpt lat="43.652" lon="1.21232">
        <ele>213.697128</ele>
        <time>2012-10-14T08:56:09Z</time>
      </trkpt>
      <trkpt lat="43.65198" lon="1.21231">
        <ele>213.782471</ele>
        <time>2012-10-14T08:56:10Z</time>
      </trkpt>
      <trkpt lat="43.65196" lon="1.2123">
        <ele>213.830795</ele>
        <time>2012-10-14T08:56:11Z</time>
      </trkpt>
      <trkpt lat="43.65193" lon="1.21228">
        <ele>213.854218</ele>
        <time>2012-10-14T08:56:12Z</time>
      </trkpt>
      <trkpt lat="43.65191" lon="1.21227">
        <ele>213.940704</ele>
        <time>2012-10-14T08:56:13Z</time>
      </trkpt>
      <trkpt lat="43.65189" lon="1.21226">
        <ele>213.935181</ele>
        <time>2012-10-14T08:56:14Z</time>
      </trkpt>
      <trkpt lat="43.65174" lon="1.21217">
        <ele>214.104996</ele>
        <time>2012-10-14T08:56:20Z</time>
      </trkpt>
      <trkpt lat="43.65172" lon="1.21215">
        <ele>213.988754</ele>
        <time>2012-10-14T08:56:21Z</time>
      </trkpt>
      <trkpt lat="43.65171" lon="1.21211">
        <ele>213.752502</ele>
        <time>2012-10-14T08:56:22Z</time>
      </trkpt>
      <trkpt lat="43.6517" lon="1.21208">
        <ele>213.512497</ele>
        <time>2012-10-14T08:56:23Z</time>
      </trkpt>
      <trkpt lat="43.65169" lon="1.21205">
        <ele>213.268753</ele>
        <time>2012-10-14T08:56:24Z</time>
      </trkpt>
      <trkpt lat="43.65169" lon="1.21203">
        <ele>213.043747</ele>
        <time>2012-10-14T08:56:25Z</time>
      </trkpt>
      <trkpt lat="43.65155" lon="1.21188">
        <ele>211.890411</ele>
        <time>2012-10-14T08:56:33Z</time>
      </trkpt>
      <trkpt lat="43.65143" lon="1.2118">
        <ele>210.646301</ele>
        <time>2012-10-14T08:56:38Z</time>
      </trkpt>
      <trkpt lat="43.6513" lon="1.21179">
        <ele>211.045547</ele>
        <time>2012-10-14T08:56:48Z</time>
      </trkpt>
      <trkpt lat="43.65112" lon="1.21181">
        <ele>211.95108</ele>
        <time>2012-10-14T08:56:56Z</time>
      </trkpt>
      <trkpt lat="43.65093" lon="1.21169">
        <ele>210.307495</ele>
        <time>2012-10-14T08:57:04Z</time>
      </trkpt>
      <trkpt lat="43.65071" lon="1.21153">
        <ele>209.557495</ele>
        <time>2012-10-14T08:57:12Z</time>
      </trkpt>
      <trkpt lat="43.65057" lon="1.21148">
        <ele>209.952499</ele>
        <time>2012-10-14T08:57:22Z</time>
      </trkpt>
      <trkpt lat="43.65052" lon="1.21149">
        <ele>210.847504</ele>
        <time>2012-10-14T08:57:32Z</time>
      </trkpt>
      <trkpt lat="43.65047" lon="1.21164">
        <ele>213.857498</ele>
        <time>2012-10-14T08:57:46Z</time>
      </trkpt>
      <trkpt lat="43.65046" lon="1.21167">
        <ele>214.382507</ele>
        <time>2012-10-14T08:57:51Z</time>
      </trkpt>
      <trkpt lat="43.6504" lon="1.21181">
        <ele>216.497498</ele>
        <time>2012-10-14T08:58:05Z</time>
      </trkpt>
      <trkpt lat="43.6504" lon="1.21182">
        <ele>216.752502</ele>
        <time>2012-10-14T08:58:06Z</time>
      </trkpt>
      <trkpt lat="43.65039" lon="1.21194">
        <ele>219.152496</ele>
        <time>2012-10-14T08:58:15Z</time>
      </trkpt>
      <trkpt lat="43.6504" lon="1.212">
        <ele>219.479706</ele>
        <time>2012-10-14T08:58:19Z</time>
      </trkpt>
      <trkpt lat="43.65038" lon="1.21209">
        <ele>219.581406</ele>
        <time>2012-10-14T08:58:28Z</time>
      </trkpt>
      <trkpt lat="43.65022" lon="1.21223">
        <ele>219.383438</ele>
        <time>2012-10-14T08:58:40Z</time>
      </trkpt>
      <trkpt lat="43.65017" lon="1.21227">
        <ele>219.399246</ele>
        <time>2012-10-14T08:58:43Z</time>
      </trkpt>
      <trkpt lat="43.65006" lon="1.21239">
        <ele>219.766815</ele>
        <time>2012-10-14T08:58:55Z</time>
      </trkpt>
      <trkpt lat="43.65" lon="1.21241">
        <ele>219.369659</ele>
        <time>2012-10-14T08:59:07Z</time>
      </trkpt>
      <trkpt lat="43.64986" lon="1.21237">
        <ele>217.286255</ele>
        <time>2012-10-14T08:59:15Z</time>
      </trkpt>
      <trkpt lat="43.64966" lon="1.21248">
        <ele>216.633286</ele>
        <time>2012-10-14T08:59:24Z</time>
      </trkpt>
      <trkpt lat="43.64951" lon="1.21276">
        <ele>217.403702</ele>
        <time>2012-10-14T08:59:33Z</time>
      </trkpt>
      <trkpt lat="43.64936" lon="1.21288">
        <ele>216.54805</ele>
        <time>2012-10-14T08:59:38Z</time>
      </trkpt>
      <trkpt lat="43.64933" lon="1.21296">
        <ele>216.983017</ele>
        <time>2012-10-14T08:59:40Z</time>
      </trkpt>
      <trkpt lat="43.64918" lon="1.21311">
        <ele>217.53389</ele>
        <time>2012-10-14T08:59:45Z</time>
      </trkpt>
      <trkpt lat="43.64886" lon="1.21341">
        <ele>216.936066</ele>
        <time>2012-10-14T08:59:55Z</time>
      </trkpt>
      <trkpt lat="43.64884" lon="1.21343">
        <ele>216.964401</ele>
        <time>2012-10-14T08:59:56Z</time>
      </trkpt>
      <trkpt lat="43.64876" lon="1.21372">
        <ele>218.927902</ele>
        <time>2012-10-14T09:00:04Z</time>
      </trkpt>
      <trkpt lat="43.64877" lon="1.21389">
        <ele>219.90773</ele>
        <time>2012-10-14T09:00:08Z</time>
      </trkpt>
      <trkpt lat="43.64876" lon="1.21415">
        <ele>219.459213</ele>
        <time>2012-10-14T09:00:14Z</time>
      </trkpt>
      <trkpt lat="43.64869" lon="1.21428">
        <ele>219.227127</ele>
        <time>2012-10-14T09:00:19Z</time>
      </trkpt>
      <trkpt lat="43.64845" lon="1.21442">
        <ele>218.933685</ele>
        <time>2012-10-14T09:00:28Z</time>
      </trkpt>
      <trkpt lat="43.64823" lon="1.21446">
        <ele>218.733627</ele>
        <time>2012-10-14T09:00:34Z</time>
      </trkpt>
      <trkpt lat="43.64819" lon="1.21447">
        <ele>218.604492</ele>
        <time>2012-10-14T09:00:35Z</time>
      </trkpt>
      <trkpt lat="43.64788" lon="1.21445">
        <ele>217.104996</ele>
        <time>2012-10-14T09:00:43Z</time>
      </trkpt>
      <trkpt lat="43.64784" lon="1.21444">
        <ele>216.87294</ele>
        <time>2012-10-14T09:00:44Z</time>
      </trkpt>
      <trkpt lat="43.6478" lon="1.21443">
        <ele>216.704163</ele>
        <time>2012-10-14T09:00:45Z</time>
      </trkpt>
      <trkpt lat="43.64735" lon="1.21452">
        <ele>216</ele>
        <time>2012-10-14T09:00:56Z</time>
      </trkpt>
      <trkpt lat="43.64715" lon="1.21454">
        <ele>216</ele>
        <time>2012-10-14T09:01:03Z</time>
      </trkpt>
      <trkpt lat="43.64713" lon="1.21453">
        <ele>216</ele>
        <time>2012-10-14T09:01:04Z</time>
      </trkpt>
      <trkpt lat="43.6471" lon="1.21452">
        <ele>216</ele>
        <time>2012-10-14T09:01:05Z</time>
      </trkpt>
      <trkpt lat="43.64707" lon="1.21452">
        <ele>216</ele>
        <time>2012-10-14T09:01:06Z</time>
      </trkpt>
      <trkpt lat="43.64704" lon="1.21455">
        <ele>216</ele>
        <time>2012-10-14T09:01:07Z</time>
      </trkpt>
      <trkpt lat="43.64701" lon="1.21458">
        <ele>216</ele>
        <time>2012-10-14T09:01:08Z</time>
      </trkpt>
      <trkpt lat="43.64698" lon="1.21463">
        <ele>216</ele>
        <time>2012-10-14T09:01:09Z</time>
      </trkpt>
      <trkpt lat="43.64695" lon="1.21467">
        <ele>216</ele>
        <time>2012-10-14T09:01:10Z</time>
      </trkpt>
      <trkpt lat="43.64692" lon="1.2147">
        <ele>216.013382</ele>
        <time>2012-10-14T09:01:11Z</time>
      </trkpt>
      <trkpt lat="43.64689" lon="1.21471">
        <ele>216.070251</ele>
        <time>2012-10-14T09:01:12Z</time>
      </trkpt>
      <trkpt lat="43.64685" lon="1.21471">
        <ele>216.119217</ele>
        <time>2012-10-14T09:01:13Z</time>
      </trkpt>
      <trkpt lat="43.64682" lon="1.2147">
        <ele>216.16066</ele>
        <time>2012-10-14T09:01:14Z</time>
      </trkpt>
      <trkpt lat="43.64679" lon="1.21471">
        <ele>216.215057</ele>
        <time>2012-10-14T09:01:15Z</time>
      </trkpt>
      <trkpt lat="43.64676" lon="1.21473">
        <ele>216.288269</ele>
        <time>2012-10-14T09:01:16Z</time>
      </trkpt>
      <trkpt lat="43.64672" lon="1.21475">
        <ele>216.385986</ele>
        <time>2012-10-14T09:01:17Z</time>
      </trkpt>
      <trkpt lat="43.64668" lon="1.21478">
        <ele>216.506622</ele>
        <time>2012-10-14T09:01:18Z</time>
      </trkpt>
      <trkpt lat="43.64639" lon="1.21493">
        <ele>217.561249</ele>
        <time>2012-10-14T09:01:25Z</time>
      </trkpt>
      <trkpt lat="43.64635" lon="1.21493">
        <ele>217.668747</ele>
        <time>2012-10-14T09:01:26Z</time>
      </trkpt>
      <trkpt lat="43.64631" lon="1.21494">
        <ele>217.770004</ele>
        <time>2012-10-14T09:01:27Z</time>
      </trkpt>
      <trkpt lat="43.64627" lon="1.21494">
        <ele>217.882492</ele>
        <time>2012-10-14T09:01:28Z</time>
      </trkpt>
      <trkpt lat="43.64622" lon="1.21494">
        <ele>217.975006</ele>
        <time>2012-10-14T09:01:29Z</time>
      </trkpt>
      <trkpt lat="43.64617" lon="1.21493">
        <ele>218.04126</ele>
        <time>2012-10-14T09:01:30Z</time>
      </trkpt>
      <trkpt lat="43.64607" lon="1.21492">
        <ele>218.226257</ele>
        <time>2012-10-14T09:01:32Z</time>
      </trkpt>
      <trkpt lat="43.64603" lon="1.21492">
        <ele>218.323624</ele>
        <time>2012-10-14T09:01:33Z</time>
      </trkpt>
      <trkpt lat="43.64598" lon="1.21491">
        <ele>218.440979</ele>
        <time>2012-10-14T09:01:34Z</time>
      </trkpt>
      <trkpt lat="43.64593" lon="1.21491">
        <ele>218.569275</ele>
        <time>2012-10-14T09:01:35Z</time>
      </trkpt>
      <trkpt lat="43.64589" lon="1.2149">
        <ele>218.688492</ele>
        <time>2012-10-14T09:01:36Z</time>
      </trkpt>
      <trkpt lat="43.64571" lon="1.21489">
        <ele>219.222473</ele>
        <time>2012-10-14T09:01:40Z</time>
      </trkpt>
      <trkpt lat="43.64566" lon="1.2149">
        <ele>219.370636</ele>
        <time>2012-10-14T09:01:41Z</time>
      </trkpt>
      <trkpt lat="43.64562" lon="1.21492">
        <ele>219.528473</ele>
        <time>2012-10-14T09:01:42Z</time>
      </trkpt>
      <trkpt lat="43.64538" lon="1.21503">
        <ele>220.278122</ele>
        <time>2012-10-14T09:01:48Z</time>
      </trkpt>
      <trkpt lat="43.64533" lon="1.21504">
        <ele>220.395004</ele>
        <time>2012-10-14T09:01:49Z</time>
      </trkpt>
      <trkpt lat="43.64529" lon="1.21506">
        <ele>220.505005</ele>
        <time>2012-10-14T09:01:50Z</time>
      </trkpt>
      <trkpt lat="43.64521" lon="1.21507">
        <ele>220.72438</ele>
        <time>2012-10-14T09:01:52Z</time>
      </trkpt>
      <trkpt lat="43.64516" lon="1.21508">
        <ele>220.846878</ele>
        <time>2012-10-14T09:01:53Z</time>
      </trkpt>
      <trkpt lat="43.64511" lon="1.21509">
        <ele>220.902405</ele>
        <time>2012-10-14T09:01:54Z</time>
      </trkpt>
      <trkpt lat="43.64506" lon="1.21509">
        <ele>220.92131</ele>
        <time>2012-10-14T09:01:55Z</time>
      </trkpt>
      <trkpt lat="43.645" lon="1.2151">
        <ele>220.939194</ele>
        <time>2012-10-14T09:01:56Z</time>
      </trkpt>
      <trkpt lat="43.64495" lon="1.2151">
        <ele>220.950745</ele>
        <time>2012-10-14T09:01:57Z</time>
      </trkpt>
      <trkpt lat="43.64491" lon="1.21509">
        <ele>220.951065</ele>
        <time>2012-10-14T09:01:58Z</time>
      </trkpt>
      <trkpt lat="43.64487" lon="1.21508">
        <ele>220.949066</ele>
        <time>2012-10-14T09:01:59Z</time>
      </trkpt>
      <trkpt lat="43.64482" lon="1.21507">
        <ele>220.957809</ele>
        <time>2012-10-14T09:02:00Z</time>
      </trkpt>
      <trkpt lat="43.64478" lon="1.21507">
        <ele>220.970627</ele>
        <time>2012-10-14T09:02:01Z</time>
      </trkpt>
      <trkpt lat="43.64474" lon="1.21506">
        <ele>220.981918</ele>
        <time>2012-10-14T09:02:02Z</time>
      </trkpt>
      <trkpt lat="43.64469" lon="1.21505">
        <ele>220.998657</ele>
        <time>2012-10-14T09:02:03Z</time>
      </trkpt>
      <trkpt lat="43.6446" lon="1.21504">
        <ele>221.037537</ele>
        <time>2012-10-14T09:02:05Z</time>
      </trkpt>
      <trkpt lat="43.64456" lon="1.21504">
        <ele>221.057892</ele>
        <time>2012-10-14T09:02:06Z</time>
      </trkpt>
      <trkpt lat="43.64429" lon="1.21506">
        <ele>221.147659</ele>
        <time>2012-10-14T09:02:12Z</time>
      </trkpt>
      <trkpt lat="43.64425" lon="1.21507">
        <ele>221.158447</ele>
        <time>2012-10-14T09:02:13Z</time>
      </trkpt>
      <trkpt lat="43.64415" lon="1.21507">
        <ele>221.201233</ele>
        <time>2012-10-14T09:02:15Z</time>
      </trkpt>
      <trkpt lat="43.64411" lon="1.21505">
        <ele>221.24881</ele>
        <time>2012-10-14T09:02:16Z</time>
      </trkpt>
      <trkpt lat="43.64406" lon="1.21503">
        <ele>221.321442</ele>
        <time>2012-10-14T09:02:17Z</time>
      </trkpt>
      <trkpt lat="43.64402" lon="1.215">
        <ele>221.402802</ele>
        <time>2012-10-14T09:02:18Z</time>
      </trkpt>
      <trkpt lat="43.64398" lon="1.21497">
        <ele>221.507935</ele>
        <time>2012-10-14T09:02:19Z</time>
      </trkpt>
      <trkpt lat="43.64394" lon="1.21494">
        <ele>221.633743</ele>
        <time>2012-10-14T09:02:20Z</time>
      </trkpt>
      <trkpt lat="43.6439" lon="1.2149">
        <ele>221.779816</ele>
        <time>2012-10-14T09:02:21Z</time>
      </trkpt>
      <trkpt lat="43.64387" lon="1.21486">
        <ele>221.94072</ele>
        <time>2012-10-14T09:02:22Z</time>
      </trkpt>
      <trkpt lat="43.64384" lon="1.21481">
        <ele>222.118347</ele>
        <time>2012-10-14T09:02:23Z</time>
      </trkpt>
      <trkpt lat="43.64382" lon="1.21476">
        <ele>222.303894</ele>
        <time>2012-10-14T09:02:24Z</time>
      </trkpt>
      <trkpt lat="43.64383" lon="1.21471">
        <ele>222.452789</ele>
        <time>2012-10-14T09:02:25Z</time>
      </trkpt>
      <trkpt lat="43.64384" lon="1.21465">
        <ele>222.578979</ele>
        <time>2012-10-14T09:02:26Z</time>
      </trkpt>
      <trkpt lat="43.64387" lon="1.2146">
        <ele>222.677704</ele>
        <time>2012-10-14T09:02:27Z</time>
      </trkpt>
      <trkpt lat="43.64389" lon="1.21455">
        <ele>222.757446</ele>
        <time>2012-10-14T09:02:28Z</time>
      </trkpt>
      <trkpt lat="43.64391" lon="1.21449">
        <ele>222.677155</ele>
        <time>2012-10-14T09:02:29Z</time>
      </trkpt>
      <trkpt lat="43.64394" lon="1.21443">
        <ele>222.592636</ele>
        <time>2012-10-14T09:02:30Z</time>
      </trkpt>
      <trkpt lat="43.64417" lon="1.21388">
        <ele>220.914841</ele>
        <time>2012-10-14T09:02:39Z</time>
      </trkpt>
      <trkpt lat="43.64419" lon="1.21382">
        <ele>220.436462</ele>
        <time>2012-10-14T09:02:40Z</time>
      </trkpt>
      <trkpt lat="43.64442" lon="1.21324">
        <ele>214.530807</ele>
        <time>2012-10-14T09:02:47Z</time>
      </trkpt>
      <trkpt lat="43.64465" lon="1.21274">
        <ele>206.762665</ele>
        <time>2012-10-14T09:02:52Z</time>
      </trkpt>
      <trkpt lat="43.64472" lon="1.21254">
        <ele>204.289429</ele>
        <time>2012-10-14T09:02:54Z</time>
      </trkpt>
      <trkpt lat="43.64475" lon="1.21248">
        <ele>203.522247</ele>
        <time>2012-10-14T09:02:55Z</time>
      </trkpt>
      <trkpt lat="43.64478" lon="1.21243">
        <ele>202.818604</ele>
        <time>2012-10-14T09:02:56Z</time>
      </trkpt>
      <trkpt lat="43.6448" lon="1.21237">
        <ele>202.282745</ele>
        <time>2012-10-14T09:02:57Z</time>
      </trkpt>
      <trkpt lat="43.6448" lon="1.21233">
        <ele>201.994461</ele>
        <time>2012-10-14T09:02:58Z</time>
      </trkpt>
      <trkpt lat="43.64479" lon="1.21232">
        <ele>201.951752</ele>
        <time>2012-10-14T09:02:59Z</time>
      </trkpt>
      <trkpt lat="43.64476" lon="1.2123">
        <ele>202.030396</ele>
        <time>2012-10-14T09:03:00Z</time>
      </trkpt>
      <trkpt lat="43.64473" lon="1.21227">
        <ele>202.034424</ele>
        <time>2012-10-14T09:03:01Z</time>
      </trkpt>
      <trkpt lat="43.6447" lon="1.21224">
        <ele>202.050003</ele>
        <time>2012-10-14T09:03:02Z</time>
      </trkpt>
      <trkpt lat="43.64468" lon="1.21221">
        <ele>202.043396</ele>
        <time>2012-10-14T09:03:03Z</time>
      </trkpt>
      <trkpt lat="43.64465" lon="1.21218">
        <ele>202.029205</ele>
        <time>2012-10-14T09:03:04Z</time>
      </trkpt>
      <trkpt lat="43.64451" lon="1.21211">
        <ele>202.414505</ele>
        <time>2012-10-14T09:03:08Z</time>
      </trkpt>
      <trkpt lat="43.64448" lon="1.21211">
        <ele>202.55217</ele>
        <time>2012-10-14T09:03:09Z</time>
      </trkpt>
      <trkpt lat="43.64444" lon="1.21208">
        <ele>202.529266</ele>
        <time>2012-10-14T09:03:10Z</time>
      </trkpt>
      <trkpt lat="43.64441" lon="1.21205">
        <ele>202.590271</ele>
        <time>2012-10-14T09:03:11Z</time>
      </trkpt>
      <trkpt lat="43.64437" lon="1.21202">
        <ele>202.699844</ele>
        <time>2012-10-14T09:03:12Z</time>
      </trkpt>
      <trkpt lat="43.64434" lon="1.21199">
        <ele>202.776779</ele>
        <time>2012-10-14T09:03:13Z</time>
      </trkpt>
      <trkpt lat="43.6443" lon="1.21196">
        <ele>202.826508</ele>
        <time>2012-10-14T09:03:14Z</time>
      </trkpt>
      <trkpt lat="43.64422" lon="1.2119">
        <ele>202.819016</ele>
        <time>2012-10-14T09:03:16Z</time>
      </trkpt>
      <trkpt lat="43.64403" lon="1.21171">
        <ele>203.210556</ele>
        <time>2012-10-14T09:03:21Z</time>
      </trkpt>
      <trkpt lat="43.644" lon="1.21166">
        <ele>203.135452</ele>
        <time>2012-10-14T09:03:22Z</time>
      </trkpt>
      <trkpt lat="43.64393" lon="1.21158">
        <ele>202.913071</ele>
        <time>2012-10-14T09:03:24Z</time>
      </trkpt>
      <trkpt lat="43.6439" lon="1.21154">
        <ele>202.812958</ele>
        <time>2012-10-14T09:03:25Z</time>
      </trkpt>
      <trkpt lat="43.64387" lon="1.21149">
        <ele>202.562332</ele>
        <time>2012-10-14T09:03:26Z</time>
      </trkpt>
      <trkpt lat="43.64384" lon="1.21145">
        <ele>202.329239</ele>
        <time>2012-10-14T09:03:27Z</time>
      </trkpt>
      <trkpt lat="43.64383" lon="1.2114">
        <ele>202.274673</ele>
        <time>2012-10-14T09:03:28Z</time>
      </trkpt>
      <trkpt lat="43.64377" lon="1.21125">
        <ele>201.926254</ele>
        <time>2012-10-14T09:03:31Z</time>
      </trkpt>
      <trkpt lat="43.64376" lon="1.2112">
        <ele>201.710968</ele>
        <time>2012-10-14T09:03:32Z</time>
      </trkpt>
      <trkpt lat="43.64374" lon="1.21114">
        <ele>201.527496</ele>
        <time>2012-10-14T09:03:33Z</time>
      </trkpt>
      <trkpt lat="43.64372" lon="1.21108">
        <ele>201.414368</ele>
        <time>2012-10-14T09:03:34Z</time>
      </trkpt>
      <trkpt lat="43.6437" lon="1.21101">
        <ele>201.365631</ele>
        <time>2012-10-14T09:03:35Z</time>
      </trkpt>
      <trkpt lat="43.64368" lon="1.21096">
        <ele>201.264374</ele>
        <time>2012-10-14T09:03:36Z</time>
      </trkpt>
      <trkpt lat="43.64363" lon="1.21081">
        <ele>201.188751</ele>
        <time>2012-10-14T09:03:39Z</time>
      </trkpt>
      <trkpt lat="43.6436" lon="1.21071">
        <ele>201.138748</ele>
        <time>2012-10-14T09:03:41Z</time>
      </trkpt>
      <trkpt lat="43.6436" lon="1.21066">
        <ele>200.956253</ele>
        <time>2012-10-14T09:03:42Z</time>
      </trkpt>
      <trkpt lat="43.6436" lon="1.21062">
        <ele>200.891251</ele>
        <time>2012-10-14T09:03:43Z</time>
      </trkpt>
      <trkpt lat="43.64358" lon="1.21058">
        <ele>200.892502</ele>
        <time>2012-10-14T09:03:44Z</time>
      </trkpt>
      <trkpt lat="43.64356" lon="1.21053">
        <ele>200.955002</ele>
        <time>2012-10-14T09:03:45Z</time>
      </trkpt>
      <trkpt lat="43.64353" lon="1.21046">
        <ele>201.082504</ele>
        <time>2012-10-14T09:03:46Z</time>
      </trkpt>
      <trkpt lat="43.6435" lon="1.21039">
        <ele>201.236252</ele>
        <time>2012-10-14T09:03:47Z</time>
      </trkpt>
      <trkpt lat="43.64347" lon="1.21033">
        <ele>201.3125</ele>
        <time>2012-10-14T09:03:48Z</time>
      </trkpt>
      <trkpt lat="43.64345" lon="1.21027">
        <ele>201.319992</ele>
        <time>2012-10-14T09:03:49Z</time>
      </trkpt>
      <trkpt lat="43.64344" lon="1.2102">
        <ele>201.408722</ele>
        <time>2012-10-14T09:03:50Z</time>
      </trkpt>
      <trkpt lat="43.64343" lon="1.21014">
        <ele>201.557053</ele>
        <time>2012-10-14T09:03:51Z</time>
      </trkpt>
      <trkpt lat="43.64342" lon="1.21008">
        <ele>201.638367</ele>
        <time>2012-10-14T09:03:52Z</time>
      </trkpt>
      <trkpt lat="43.64342" lon="1.21003">
        <ele>201.671341</ele>
        <time>2012-10-14T09:03:53Z</time>
      </trkpt>
      <trkpt lat="43.64343" lon="1.21">
        <ele>201.664398</ele>
        <time>2012-10-14T09:03:54Z</time>
      </trkpt>
      <trkpt lat="43.64342" lon="1.20995">
        <ele>201.770752</ele>
        <time>2012-10-14T09:03:55Z</time>
      </trkpt>
      <trkpt lat="43.64341" lon="1.20991">
        <ele>201.902832</ele>
        <time>2012-10-14T09:03:56Z</time>
      </trkpt>
      <trkpt lat="43.64339" lon="1.20986">
        <ele>202.10994</ele>
        <time>2012-10-14T09:03:57Z</time>
      </trkpt>
      <trkpt lat="43.64328" lon="1.20962">
        <ele>203.123734</ele>
        <time>2012-10-14T09:04:02Z</time>
      </trkpt>
      <trkpt lat="43.64324" lon="1.20957">
        <ele>203.877075</ele>
        <time>2012-10-14T09:04:03Z</time>
      </trkpt>
      <trkpt lat="43.6432" lon="1.20952">
        <ele>204.519318</ele>
        <time>2012-10-14T09:04:04Z</time>
      </trkpt>
      <trkpt lat="43.64317" lon="1.20947">
        <ele>205.11937</ele>
        <time>2012-10-14T09:04:05Z</time>
      </trkpt>
      <trkpt lat="43.64314" lon="1.20941">
        <ele>205.57959</ele>
        <time>2012-10-14T09:04:06Z</time>
      </trkpt>
      <trkpt lat="43.64312" lon="1.20936">
        <ele>206.103012</ele>
        <time>2012-10-14T09:04:07Z</time>
      </trkpt>
      <trkpt lat="43.64309" lon="1.20931">
        <ele>206.515656</ele>
        <time>2012-10-14T09:04:08Z</time>
      </trkpt>
      <trkpt lat="43.64309" lon="1.20927">
        <ele>206.658371</ele>
        <time>2012-10-14T09:04:09Z</time>
      </trkpt>
      <trkpt lat="43.6431" lon="1.20922">
        <ele>206.562744</ele>
        <time>2012-10-14T09:04:10Z</time>
      </trkpt>
      <trkpt lat="43.64313" lon="1.20915">
        <ele>206.347488</ele>
        <time>2012-10-14T09:04:11Z</time>
      </trkpt>
      <trkpt lat="43.64314" lon="1.20908">
        <ele>206.286407</ele>
        <time>2012-10-14T09:04:12Z</time>
      </trkpt>
      <trkpt lat="43.64315" lon="1.20901">
        <ele>206.431366</ele>
        <time>2012-10-14T09:04:13Z</time>
      </trkpt>
      <trkpt lat="43.64313" lon="1.20893">
        <ele>206.685333</ele>
        <time>2012-10-14T09:04:14Z</time>
      </trkpt>
      <trkpt lat="43.64312" lon="1.20886">
        <ele>206.833664</ele>
        <time>2012-10-14T09:04:15Z</time>
      </trkpt>
      <trkpt lat="43.64313" lon="1.2088">
        <ele>206.795486</ele>
        <time>2012-10-14T09:04:16Z</time>
      </trkpt>
      <trkpt lat="43.64314" lon="1.20875">
        <ele>206.811691</ele>
        <time>2012-10-14T09:04:17Z</time>
      </trkpt>
      <trkpt lat="43.64313" lon="1.20869">
        <ele>206.900604</ele>
        <time>2012-10-14T09:04:18Z</time>
      </trkpt>
      <trkpt lat="43.64312" lon="1.20863">
        <ele>207.05452</ele>
        <time>2012-10-14T09:04:19Z</time>
      </trkpt>
      <trkpt lat="43.6431" lon="1.20857">
        <ele>207.361267</ele>
        <time>2012-10-14T09:04:20Z</time>
      </trkpt>
      <trkpt lat="43.64306" lon="1.20852">
        <ele>207.717484</ele>
        <time>2012-10-14T09:04:21Z</time>
      </trkpt>
      <trkpt lat="43.64289" lon="1.20809">
        <ele>209.661606</ele>
        <time>2012-10-14T09:04:30Z</time>
      </trkpt>
      <trkpt lat="43.64289" lon="1.20803">
        <ele>209.714874</ele>
        <time>2012-10-14T09:04:31Z</time>
      </trkpt>
      <trkpt lat="43.64289" lon="1.20797">
        <ele>209.76178</ele>
        <time>2012-10-14T09:04:32Z</time>
      </trkpt>
      <trkpt lat="43.64288" lon="1.20792">
        <ele>209.916031</ele>
        <time>2012-10-14T09:04:33Z</time>
      </trkpt>
      <trkpt lat="43.64287" lon="1.20787">
        <ele>210.111618</ele>
        <time>2012-10-14T09:04:34Z</time>
      </trkpt>
      <trkpt lat="43.64285" lon="1.20783">
        <ele>210.441254</ele>
        <time>2012-10-14T09:04:35Z</time>
      </trkpt>
      <trkpt lat="43.64283" lon="1.20778">
        <ele>210.775467</ele>
        <time>2012-10-14T09:04:36Z</time>
      </trkpt>
      <trkpt lat="43.64282" lon="1.20773">
        <ele>210.875687</ele>
        <time>2012-10-14T09:04:37Z</time>
      </trkpt>
      <trkpt lat="43.64282" lon="1.20769">
        <ele>210.823257</ele>
        <time>2012-10-14T09:04:38Z</time>
      </trkpt>
      <trkpt lat="43.64282" lon="1.20765">
        <ele>210.673996</ele>
        <time>2012-10-14T09:04:39Z</time>
      </trkpt>
      <trkpt lat="43.64283" lon="1.2076">
        <ele>210.453629</ele>
        <time>2012-10-14T09:04:40Z</time>
      </trkpt>
      <trkpt lat="43.64284" lon="1.20755">
        <ele>210.325394</ele>
        <time>2012-10-14T09:04:41Z</time>
      </trkpt>
      <trkpt lat="43.64281" lon="1.20716">
        <ele>209.947876</ele>
        <time>2012-10-14T09:04:49Z</time>
      </trkpt>
      <trkpt lat="43.64283" lon="1.20701">
        <ele>209.638596</ele>
        <time>2012-10-14T09:04:52Z</time>
      </trkpt>
      <trkpt lat="43.64282" lon="1.20698">
        <ele>209.65123</ele>
        <time>2012-10-14T09:04:53Z</time>
      </trkpt>
      <trkpt lat="43.6428" lon="1.20695">
        <ele>209.748611</ele>
        <time>2012-10-14T09:04:54Z</time>
      </trkpt>
      <trkpt lat="43.64278" lon="1.20693">
        <ele>209.897247</ele>
        <time>2012-10-14T09:04:55Z</time>
      </trkpt>
      <trkpt lat="43.64276" lon="1.20692">
        <ele>210.078079</ele>
        <time>2012-10-14T09:04:56Z</time>
      </trkpt>
      <trkpt lat="43.64274" lon="1.2069">
        <ele>210.190475</ele>
        <time>2012-10-14T09:04:57Z</time>
      </trkpt>
      <trkpt lat="43.64274" lon="1.20688">
        <ele>210.179321</ele>
        <time>2012-10-14T09:04:58Z</time>
      </trkpt>
      <trkpt lat="43.64273" lon="1.20685">
        <ele>210.154846</ele>
        <time>2012-10-14T09:04:59Z</time>
      </trkpt>
      <trkpt lat="43.64272" lon="1.20682">
        <ele>210.207031</ele>
        <time>2012-10-14T09:05:00Z</time>
      </trkpt>
      <trkpt lat="43.6427" lon="1.2068">
        <ele>210.290649</ele>
        <time>2012-10-14T09:05:01Z</time>
      </trkpt>
      <trkpt lat="43.64269" lon="1.20677">
        <ele>210.370895</ele>
        <time>2012-10-14T09:05:02Z</time>
      </trkpt>
      <trkpt lat="43.64267" lon="1.20676">
        <ele>210.486298</ele>
        <time>2012-10-14T09:05:03Z</time>
      </trkpt>
      <trkpt lat="43.64264" lon="1.2067">
        <ele>210.534485</ele>
        <time>2012-10-14T09:05:06Z</time>
      </trkpt>
      <trkpt lat="43.64265" lon="1.20666">
        <ele>210.389999</ele>
        <time>2012-10-14T09:05:19Z</time>
      </trkpt>
      <trkpt lat="43.64264" lon="1.20664">
        <ele>210.351425</ele>
        <time>2012-10-14T09:05:37Z</time>
      </trkpt>
      <trkpt lat="43.64264" lon="1.20662">
        <ele>210.314987</ele>
        <time>2012-10-14T09:05:38Z</time>
      </trkpt>
      <trkpt lat="43.64263" lon="1.20657">
        <ele>210.222336</ele>
        <time>2012-10-14T09:05:40Z</time>
      </trkpt>
      <trkpt lat="43.64263" lon="1.20654">
        <ele>210.129501</ele>
        <time>2012-10-14T09:05:41Z</time>
      </trkpt>
      <trkpt lat="43.64263" lon="1.20651">
        <ele>210.067749</ele>
        <time>2012-10-14T09:05:42Z</time>
      </trkpt>
      <trkpt lat="43.64264" lon="1.20649">
        <ele>209.994812</ele>
        <time>2012-10-14T09:05:43Z</time>
      </trkpt>
      <trkpt lat="43.64263" lon="1.20647">
        <ele>209.970306</ele>
        <time>2012-10-14T09:05:44Z</time>
      </trkpt>
      <trkpt lat="43.64262" lon="1.20645">
        <ele>209.982727</ele>
        <time>2012-10-14T09:05:45Z</time>
      </trkpt>
      <trkpt lat="43.64261" lon="1.2064">
        <ele>209.943314</ele>
        <time>2012-10-14T09:05:47Z</time>
      </trkpt>
      <trkpt lat="43.64261" lon="1.20638">
        <ele>209.885727</ele>
        <time>2012-10-14T09:05:48Z</time>
      </trkpt>
      <trkpt lat="43.64261" lon="1.20634">
        <ele>209.848495</ele>
        <time>2012-10-14T09:05:49Z</time>
      </trkpt>
      <trkpt lat="43.64259" lon="1.20631">
        <ele>209.840286</ele>
        <time>2012-10-14T09:05:50Z</time>
      </trkpt>
      <trkpt lat="43.64258" lon="1.20629">
        <ele>209.89537</ele>
        <time>2012-10-14T09:05:51Z</time>
      </trkpt>
      <trkpt lat="43.64256" lon="1.20626">
        <ele>209.883026</ele>
        <time>2012-10-14T09:05:52Z</time>
      </trkpt>
      <trkpt lat="43.64256" lon="1.20622">
        <ele>209.812073</ele>
        <time>2012-10-14T09:05:53Z</time>
      </trkpt>
      <trkpt lat="43.64255" lon="1.20618">
        <ele>209.783981</ele>
        <time>2012-10-14T09:05:54Z</time>
      </trkpt>
      <trkpt lat="43.64253" lon="1.20615">
        <ele>209.76239</ele>
        <time>2012-10-14T09:05:55Z</time>
      </trkpt>
      <trkpt lat="43.64252" lon="1.2061">
        <ele>209.692505</ele>
        <time>2012-10-14T09:05:56Z</time>
      </trkpt>
      <trkpt lat="43.64252" lon="1.20607">
        <ele>209.635406</ele>
        <time>2012-10-14T09:05:57Z</time>
      </trkpt>
      <trkpt lat="43.64245" lon="1.20573">
        <ele>210.078506</ele>
        <time>2012-10-14T09:06:06Z</time>
      </trkpt>
      <trkpt lat="43.64244" lon="1.20522">
        <ele>211.402695</ele>
        <time>2012-10-14T09:06:16Z</time>
      </trkpt>
      <trkpt lat="43.64244" lon="1.20516">
        <ele>211.437073</ele>
        <time>2012-10-14T09:06:17Z</time>
      </trkpt>
      <trkpt lat="43.64244" lon="1.20511">
        <ele>211.46962</ele>
        <time>2012-10-14T09:06:18Z</time>
      </trkpt>
      <trkpt lat="43.64243" lon="1.20504">
        <ele>211.533447</ele>
        <time>2012-10-14T09:06:19Z</time>
      </trkpt>
      <trkpt lat="43.64242" lon="1.20499">
        <ele>211.613556</ele>
        <time>2012-10-14T09:06:20Z</time>
      </trkpt>
      <trkpt lat="43.64242" lon="1.20496">
        <ele>211.656677</ele>
        <time>2012-10-14T09:06:21Z</time>
      </trkpt>
      <trkpt lat="43.64243" lon="1.20492">
        <ele>211.631195</ele>
        <time>2012-10-14T09:06:22Z</time>
      </trkpt>
      <trkpt lat="43.64243" lon="1.20486">
        <ele>211.682327</ele>
        <time>2012-10-14T09:06:23Z</time>
      </trkpt>
      <trkpt lat="43.64241" lon="1.2048">
        <ele>211.754379</ele>
        <time>2012-10-14T09:06:24Z</time>
      </trkpt>
      <trkpt lat="43.6424" lon="1.20474">
        <ele>211.83345</ele>
        <time>2012-10-14T09:06:25Z</time>
      </trkpt>
      <trkpt lat="43.64239" lon="1.20467">
        <ele>211.884537</ele>
        <time>2012-10-14T09:06:26Z</time>
      </trkpt>
      <trkpt lat="43.64238" lon="1.20462">
        <ele>211.934006</ele>
        <time>2012-10-14T09:06:27Z</time>
      </trkpt>
      <trkpt lat="43.64238" lon="1.20459">
        <ele>211.959763</ele>
        <time>2012-10-14T09:06:28Z</time>
      </trkpt>
      <trkpt lat="43.64235" lon="1.20452">
        <ele>212.003326</ele>
        <time>2012-10-14T09:06:29Z</time>
      </trkpt>
      <trkpt lat="43.64233" lon="1.20445">
        <ele>212.028076</ele>
        <time>2012-10-14T09:06:30Z</time>
      </trkpt>
      <trkpt lat="43.64232" lon="1.20439">
        <ele>212.124405</ele>
        <time>2012-10-14T09:06:31Z</time>
      </trkpt>
      <trkpt lat="43.64232" lon="1.20434">
        <ele>212.163223</ele>
        <time>2012-10-14T09:06:32Z</time>
      </trkpt>
      <trkpt lat="43.6423" lon="1.20419">
        <ele>212.351044</ele>
        <time>2012-10-14T09:06:35Z</time>
      </trkpt>
      <trkpt lat="43.64229" lon="1.20416">
        <ele>212.411545</ele>
        <time>2012-10-14T09:06:36Z</time>
      </trkpt>
      <trkpt lat="43.64228" lon="1.20411">
        <ele>212.482361</ele>
        <time>2012-10-14T09:06:37Z</time>
      </trkpt>
      <trkpt lat="43.64228" lon="1.20407">
        <ele>212.525528</ele>
        <time>2012-10-14T09:06:38Z</time>
      </trkpt>
      <trkpt lat="43.64226" lon="1.204">
        <ele>212.763657</ele>
        <time>2012-10-14T09:06:39Z</time>
      </trkpt>
      <trkpt lat="43.64226" lon="1.20397">
        <ele>212.912308</ele>
        <time>2012-10-14T09:06:40Z</time>
      </trkpt>
      <trkpt lat="43.64223" lon="1.2039">
        <ele>213.249985</ele>
        <time>2012-10-14T09:06:41Z</time>
      </trkpt>
      <trkpt lat="43.64221" lon="1.20382">
        <ele>213.55777</ele>
        <time>2012-10-14T09:06:42Z</time>
      </trkpt>
      <trkpt lat="43.6422" lon="1.20375">
        <ele>213.777527</ele>
        <time>2012-10-14T09:06:43Z</time>
      </trkpt>
      <trkpt lat="43.64218" lon="1.2037">
        <ele>214.015182</ele>
        <time>2012-10-14T09:06:44Z</time>
      </trkpt>
      <trkpt lat="43.64215" lon="1.20366">
        <ele>214.275467</ele>
        <time>2012-10-14T09:06:45Z</time>
      </trkpt>
      <trkpt lat="43.642" lon="1.20329">
        <ele>216.086044</ele>
        <time>2012-10-14T09:06:53Z</time>
      </trkpt>
      <trkpt lat="43.64196" lon="1.20327">
        <ele>216.360275</ele>
        <time>2012-10-14T09:06:54Z</time>
      </trkpt>
      <trkpt lat="43.64178" lon="1.20306">
        <ele>217.636612</ele>
        <time>2012-10-14T09:07:03Z</time>
      </trkpt>
      <trkpt lat="43.64168" lon="1.20267">
        <ele>217.970001</ele>
        <time>2012-10-14T09:07:11Z</time>
      </trkpt>
      <trkpt lat="43.64165" lon="1.20264">
        <ele>218.108749</ele>
        <time>2012-10-14T09:07:12Z</time>
      </trkpt>
      <trkpt lat="43.64161" lon="1.20261">
        <ele>218.290009</ele>
        <time>2012-10-14T09:07:13Z</time>
      </trkpt>
      <trkpt lat="43.64153" lon="1.20253">
        <ele>218.725006</ele>
        <time>2012-10-14T09:07:16Z</time>
      </trkpt>
      <trkpt lat="43.64152" lon="1.20249">
        <ele>218.701248</ele>
        <time>2012-10-14T09:07:17Z</time>
      </trkpt>
      <trkpt lat="43.64152" lon="1.20245">
        <ele>218.638123</ele>
        <time>2012-10-14T09:07:18Z</time>
      </trkpt>
      <trkpt lat="43.64153" lon="1.20241">
        <ele>218.478119</ele>
        <time>2012-10-14T09:07:19Z</time>
      </trkpt>
      <trkpt lat="43.64155" lon="1.20237">
        <ele>218.281876</ele>
        <time>2012-10-14T09:07:20Z</time>
      </trkpt>
      <trkpt lat="43.64157" lon="1.20233">
        <ele>218.111252</ele>
        <time>2012-10-14T09:07:21Z</time>
      </trkpt>
      <trkpt lat="43.64158" lon="1.20229">
        <ele>217.978119</ele>
        <time>2012-10-14T09:07:22Z</time>
      </trkpt>
      <trkpt lat="43.64158" lon="1.20224">
        <ele>217.876877</ele>
        <time>2012-10-14T09:07:23Z</time>
      </trkpt>
      <trkpt lat="43.64158" lon="1.2022">
        <ele>217.887497</ele>
        <time>2012-10-14T09:07:24Z</time>
      </trkpt>
      <trkpt lat="43.64158" lon="1.20215">
        <ele>217.971878</ele>
        <time>2012-10-14T09:07:25Z</time>
      </trkpt>
      <trkpt lat="43.64157" lon="1.2021">
        <ele>218.091873</ele>
        <time>2012-10-14T09:07:26Z</time>
      </trkpt>
      <trkpt lat="43.64156" lon="1.20206">
        <ele>218.222504</ele>
        <time>2012-10-14T09:07:27Z</time>
      </trkpt>
      <trkpt lat="43.64149" lon="1.20156">
        <ele>219.4254</ele>
        <time>2012-10-14T09:07:38Z</time>
      </trkpt>
      <trkpt lat="43.64148" lon="1.2015">
        <ele>219.515686</ele>
        <time>2012-10-14T09:07:39Z</time>
      </trkpt>
      <trkpt lat="43.64146" lon="1.20145">
        <ele>219.667923</ele>
        <time>2012-10-14T09:07:40Z</time>
      </trkpt>
      <trkpt lat="43.64144" lon="1.20141">
        <ele>219.809998</ele>
        <time>2012-10-14T09:07:41Z</time>
      </trkpt>
      <trkpt lat="43.64142" lon="1.20137">
        <ele>219.893478</ele>
        <time>2012-10-14T09:07:42Z</time>
      </trkpt>
      <trkpt lat="43.64142" lon="1.20133">
        <ele>219.921021</ele>
        <time>2012-10-14T09:07:43Z</time>
      </trkpt>
      <trkpt lat="43.64141" lon="1.20129">
        <ele>219.936295</ele>
        <time>2012-10-14T09:07:44Z</time>
      </trkpt>
      <trkpt lat="43.64136" lon="1.20105">
        <ele>220.218063</ele>
        <time>2012-10-14T09:07:49Z</time>
      </trkpt>
      <trkpt lat="43.64135" lon="1.20099">
        <ele>220.292984</ele>
        <time>2012-10-14T09:07:50Z</time>
      </trkpt>
      <trkpt lat="43.64134" lon="1.20093">
        <ele>220.387192</ele>
        <time>2012-10-14T09:07:51Z</time>
      </trkpt>
      <trkpt lat="43.64134" lon="1.20088">
        <ele>220.40625</ele>
        <time>2012-10-14T09:07:52Z</time>
      </trkpt>
      <trkpt lat="43.64134" lon="1.20082">
        <ele>220.368225</ele>
        <time>2012-10-14T09:07:53Z</time>
      </trkpt>
      <trkpt lat="43.64135" lon="1.20077">
        <ele>220.318787</ele>
        <time>2012-10-14T09:07:54Z</time>
      </trkpt>
      <trkpt lat="43.64136" lon="1.20072">
        <ele>220.25795</ele>
        <time>2012-10-14T09:07:55Z</time>
      </trkpt>
      <trkpt lat="43.64137" lon="1.20066">
        <ele>220.159042</ele>
        <time>2012-10-14T09:07:56Z</time>
      </trkpt>
      <trkpt lat="43.64138" lon="1.2006">
        <ele>220.054565</ele>
        <time>2012-10-14T09:07:57Z</time>
      </trkpt>
      <trkpt lat="43.64138" lon="1.20053">
        <ele>220.084137</ele>
        <time>2012-10-14T09:07:58Z</time>
      </trkpt>
      <trkpt lat="43.64133" lon="1.20035">
        <ele>220.466873</ele>
        <time>2012-10-14T09:08:01Z</time>
      </trkpt>
      <trkpt lat="43.64133" lon="1.20027">
        <ele>220.362503</ele>
        <time>2012-10-14T09:08:02Z</time>
      </trkpt>
      <trkpt lat="43.64133" lon="1.20019">
        <ele>220.206879</ele>
        <time>2012-10-14T09:08:03Z</time>
      </trkpt>
      <trkpt lat="43.64133" lon="1.20005">
        <ele>219.952499</ele>
        <time>2012-10-14T09:08:05Z</time>
      </trkpt>
      <trkpt lat="43.64132" lon="1.19996">
        <ele>219.918121</ele>
        <time>2012-10-14T09:08:06Z</time>
      </trkpt>
      <trkpt lat="43.6413" lon="1.1999">
        <ele>219.990631</ele>
        <time>2012-10-14T09:08:07Z</time>
      </trkpt>
      <trkpt lat="43.64127" lon="1.19985">
        <ele>220.180618</ele>
        <time>2012-10-14T09:08:08Z</time>
      </trkpt>
      <trkpt lat="43.64123" lon="1.19982">
        <ele>220.427505</ele>
        <time>2012-10-14T09:08:09Z</time>
      </trkpt>
      <trkpt lat="43.64122" lon="1.19978">
        <ele>220.513748</ele>
        <time>2012-10-14T09:08:10Z</time>
      </trkpt>
      <trkpt lat="43.64121" lon="1.19974">
        <ele>220.502899</ele>
        <time>2012-10-14T09:08:11Z</time>
      </trkpt>
      <trkpt lat="43.6412" lon="1.19969">
        <ele>220.51149</ele>
        <time>2012-10-14T09:08:12Z</time>
      </trkpt>
      <trkpt lat="43.6412" lon="1.19964">
        <ele>220.427719</ele>
        <time>2012-10-14T09:08:13Z</time>
      </trkpt>
      <trkpt lat="43.64122" lon="1.1996">
        <ele>220.282578</ele>
        <time>2012-10-14T09:08:14Z</time>
      </trkpt>
      <trkpt lat="43.64122" lon="1.19954">
        <ele>220.201691</ele>
        <time>2012-10-14T09:08:15Z</time>
      </trkpt>
      <trkpt lat="43.64114" lon="1.19924">
        <ele>220.20575</ele>
        <time>2012-10-14T09:08:20Z</time>
      </trkpt>
      <trkpt lat="43.641" lon="1.19895">
        <ele>220.703491</ele>
        <time>2012-10-14T09:08:25Z</time>
      </trkpt>
      <trkpt lat="43.64101" lon="1.19889">
        <ele>220.704468</ele>
        <time>2012-10-14T09:08:26Z</time>
      </trkpt>
      <trkpt lat="43.64102" lon="1.19883">
        <ele>220.689011</ele>
        <time>2012-10-14T09:08:27Z</time>
      </trkpt>
      <trkpt lat="43.64101" lon="1.19877">
        <ele>220.711594</ele>
        <time>2012-10-14T09:08:28Z</time>
      </trkpt>
      <trkpt lat="43.641" lon="1.19872">
        <ele>220.775177</ele>
        <time>2012-10-14T09:08:29Z</time>
      </trkpt>
      <trkpt lat="43.64097" lon="1.19867">
        <ele>220.866638</ele>
        <time>2012-10-14T09:08:30Z</time>
      </trkpt>
      <trkpt lat="43.64094" lon="1.19862">
        <ele>220.962448</ele>
        <time>2012-10-14T09:08:31Z</time>
      </trkpt>
      <trkpt lat="43.64091" lon="1.19857">
        <ele>221.101547</ele>
        <time>2012-10-14T09:08:32Z</time>
      </trkpt>
      <trkpt lat="43.64089" lon="1.19852">
        <ele>221.3703</ele>
        <time>2012-10-14T09:08:33Z</time>
      </trkpt>
      <trkpt lat="43.64086" lon="1.19847">
        <ele>221.785843</ele>
        <time>2012-10-14T09:08:34Z</time>
      </trkpt>
      <trkpt lat="43.64084" lon="1.19842">
        <ele>222.148529</ele>
        <time>2012-10-14T09:08:35Z</time>
      </trkpt>
      <trkpt lat="43.64081" lon="1.19839">
        <ele>222.45343</ele>
        <time>2012-10-14T09:08:36Z</time>
      </trkpt>
      <trkpt lat="43.64079" lon="1.19836">
        <ele>222.74733</ele>
        <time>2012-10-14T09:08:37Z</time>
      </trkpt>
      <trkpt lat="43.64064" lon="1.19811">
        <ele>224.158417</ele>
        <time>2012-10-14T09:08:44Z</time>
      </trkpt>
      <trkpt lat="43.6406" lon="1.19805">
        <ele>224.396149</ele>
        <time>2012-10-14T09:08:46Z</time>
      </trkpt>
      <trkpt lat="43.64059" lon="1.19802">
        <ele>224.461212</ele>
        <time>2012-10-14T09:08:47Z</time>
      </trkpt>
      <trkpt lat="43.64059" lon="1.19799">
        <ele>224.460205</ele>
        <time>2012-10-14T09:08:48Z</time>
      </trkpt>
      <trkpt lat="43.64059" lon="1.19796">
        <ele>224.468338</ele>
        <time>2012-10-14T09:08:49Z</time>
      </trkpt>
      <trkpt lat="43.64047" lon="1.19796">
        <ele>225.06076</ele>
        <time>2012-10-14T09:08:56Z</time>
      </trkpt>
      <trkpt lat="43.64044" lon="1.19797">
        <ele>225.347504</ele>
        <time>2012-10-14T09:08:57Z</time>
      </trkpt>
      <trkpt lat="43.6403" lon="1.19807">
        <ele>227.139999</ele>
        <time>2012-10-14T09:09:06Z</time>
      </trkpt>
      <trkpt lat="43.64023" lon="1.1982">
        <ele>228.039993</ele>
        <time>2012-10-14T09:09:13Z</time>
      </trkpt>
      <trkpt lat="43.64011" lon="1.19843">
        <ele>229.804382</ele>
        <time>2012-10-14T09:09:22Z</time>
      </trkpt>
      <trkpt lat="43.64006" lon="1.19855">
        <ele>230.563324</ele>
        <time>2012-10-14T09:09:26Z</time>
      </trkpt>
      <trkpt lat="43.63998" lon="1.19874">
        <ele>231.128281</ele>
        <time>2012-10-14T09:09:33Z</time>
      </trkpt>
      <trkpt lat="43.63974" lon="1.19924">
        <ele>232.300003</ele>
        <time>2012-10-14T09:09:46Z</time>
      </trkpt>
      <trkpt lat="43.63966" lon="1.19939">
        <ele>232.634995</ele>
        <time>2012-10-14T09:09:50Z</time>
      </trkpt>
      <trkpt lat="43.63948" lon="1.19939">
        <ele>233</ele>
        <time>2012-10-14T09:09:58Z</time>
      </trkpt>
      <trkpt lat="43.63931" lon="1.19917">
        <ele>232.999252</ele>
        <time>2012-10-14T09:10:11Z</time>
      </trkpt>
      <trkpt lat="43.63923" lon="1.19906">
        <ele>232.957855</ele>
        <time>2012-10-14T09:10:22Z</time>
      </trkpt>
      <trkpt lat="43.63921" lon="1.19902">
        <ele>232.9534</ele>
        <time>2012-10-14T09:10:43Z</time>
      </trkpt>
      <trkpt lat="43.63907" lon="1.19848">
        <ele>232.875626</ele>
        <time>2012-10-14T09:10:55Z</time>
      </trkpt>
      <trkpt lat="43.63905" lon="1.19842">
        <ele>232.778122</ele>
        <time>2012-10-14T09:10:56Z</time>
      </trkpt>
      <trkpt lat="43.63903" lon="1.19836">
        <ele>232.68187</ele>
        <time>2012-10-14T09:10:57Z</time>
      </trkpt>
      <trkpt lat="43.63901" lon="1.19831">
        <ele>232.587494</ele>
        <time>2012-10-14T09:10:58Z</time>
      </trkpt>
      <trkpt lat="43.63898" lon="1.19825">
        <ele>232.501251</ele>
        <time>2012-10-14T09:10:59Z</time>
      </trkpt>
      <trkpt lat="43.63895" lon="1.19821">
        <ele>232.425629</ele>
        <time>2012-10-14T09:11:00Z</time>
      </trkpt>
      <trkpt lat="43.63877" lon="1.19798">
        <ele>232.053131</ele>
        <time>2012-10-14T09:11:05Z</time>
      </trkpt>
      <trkpt lat="43.63873" lon="1.19793">
        <ele>231.961182</ele>
        <time>2012-10-14T09:11:06Z</time>
      </trkpt>
      <trkpt lat="43.6387" lon="1.19787">
        <ele>231.868683</ele>
        <time>2012-10-14T09:11:07Z</time>
      </trkpt>
      <trkpt lat="43.63867" lon="1.19783">
        <ele>231.805084</ele>
        <time>2012-10-14T09:11:08Z</time>
      </trkpt>
      <trkpt lat="43.63866" lon="1.19781">
        <ele>231.776443</ele>
        <time>2012-10-14T09:11:09Z</time>
      </trkpt>
      <trkpt lat="43.63864" lon="1.1978">
        <ele>231.767426</ele>
        <time>2012-10-14T09:11:10Z</time>
      </trkpt>
      <trkpt lat="43.63861" lon="1.19779">
        <ele>231.765823</ele>
        <time>2012-10-14T09:11:11Z</time>
      </trkpt>
      <trkpt lat="43.63858" lon="1.19777">
        <ele>231.766403</ele>
        <time>2012-10-14T09:11:12Z</time>
      </trkpt>
      <trkpt lat="43.63854" lon="1.19775">
        <ele>231.757278</ele>
        <time>2012-10-14T09:11:13Z</time>
      </trkpt>
      <trkpt lat="43.6385" lon="1.1977">
        <ele>231.737762</ele>
        <time>2012-10-14T09:11:14Z</time>
      </trkpt>
      <trkpt lat="43.63845" lon="1.19765">
        <ele>231.741364</ele>
        <time>2012-10-14T09:11:15Z</time>
      </trkpt>
      <trkpt lat="43.63839" lon="1.19762">
        <ele>231.779877</ele>
        <time>2012-10-14T09:11:16Z</time>
      </trkpt>
      <trkpt lat="43.63834" lon="1.19759">
        <ele>231.8311</ele>
        <time>2012-10-14T09:11:17Z</time>
      </trkpt>
      <trkpt lat="43.6382" lon="1.19754">
        <ele>232</ele>
        <time>2012-10-14T09:11:20Z</time>
      </trkpt>
      <trkpt lat="43.63816" lon="1.19753">
        <ele>232</ele>
        <time>2012-10-14T09:11:21Z</time>
      </trkpt>
      <trkpt lat="43.63812" lon="1.19752">
        <ele>232</ele>
        <time>2012-10-14T09:11:22Z</time>
      </trkpt>
      <trkpt lat="43.63808" lon="1.19751">
        <ele>232</ele>
        <time>2012-10-14T09:11:23Z</time>
      </trkpt>
      <trkpt lat="43.63805" lon="1.19749">
        <ele>232</ele>
        <time>2012-10-14T09:11:24Z</time>
      </trkpt>
      <trkpt lat="43.63802" lon="1.19745">
        <ele>232</ele>
        <time>2012-10-14T09:11:25Z</time>
      </trkpt>
      <trkpt lat="43.63802" lon="1.1974">
        <ele>232</ele>
        <time>2012-10-14T09:11:26Z</time>
      </trkpt>
      <trkpt lat="43.63803" lon="1.19736">
        <ele>232</ele>
        <time>2012-10-14T09:11:27Z</time>
      </trkpt>
      <trkpt lat="43.63805" lon="1.19731">
        <ele>231.968643</ele>
        <time>2012-10-14T09:11:28Z</time>
      </trkpt>
      <trkpt lat="43.6381" lon="1.19717">
        <ele>231.783661</ele>
        <time>2012-10-14T09:11:31Z</time>
      </trkpt>
      <trkpt lat="43.63812" lon="1.19707">
        <ele>231.645889</ele>
        <time>2012-10-14T09:11:33Z</time>
      </trkpt>
      <trkpt lat="43.6381" lon="1.19701">
        <ele>231.595032</ele>
        <time>2012-10-14T09:11:34Z</time>
      </trkpt>
      <trkpt lat="43.63807" lon="1.19697">
        <ele>231.57019</ele>
        <time>2012-10-14T09:11:35Z</time>
      </trkpt>
      <trkpt lat="43.63805" lon="1.19692">
        <ele>231.557083</ele>
        <time>2012-10-14T09:11:36Z</time>
      </trkpt>
      <trkpt lat="43.63802" lon="1.19686">
        <ele>231.540161</ele>
        <time>2012-10-14T09:11:37Z</time>
      </trkpt>
      <trkpt lat="43.638" lon="1.1968">
        <ele>231.525314</ele>
        <time>2012-10-14T09:11:38Z</time>
      </trkpt>
      <trkpt lat="43.63782" lon="1.19636">
        <ele>231.347351</ele>
        <time>2012-10-14T09:11:46Z</time>
      </trkpt>
      <trkpt lat="43.6378" lon="1.19631">
        <ele>231.280441</ele>
        <time>2012-10-14T09:11:47Z</time>
      </trkpt>
      <trkpt lat="43.63779" lon="1.19626">
        <ele>231.216568</ele>
        <time>2012-10-14T09:11:48Z</time>
      </trkpt>
      <trkpt lat="43.63779" lon="1.19621">
        <ele>231.15004</ele>
        <time>2012-10-14T09:11:49Z</time>
      </trkpt>
      <trkpt lat="43.63778" lon="1.19617">
        <ele>231.083481</ele>
        <time>2012-10-14T09:11:50Z</time>
      </trkpt>
      <trkpt lat="43.63776" lon="1.19611">
        <ele>231.00061</ele>
        <time>2012-10-14T09:11:51Z</time>
      </trkpt>
      <trkpt lat="43.63772" lon="1.19605">
        <ele>231</ele>
        <time>2012-10-14T09:11:52Z</time>
      </trkpt>
      <trkpt lat="43.6377" lon="1.19597">
        <ele>231</ele>
        <time>2012-10-14T09:11:53Z</time>
      </trkpt>
      <trkpt lat="43.63768" lon="1.1959">
        <ele>231</ele>
        <time>2012-10-14T09:11:54Z</time>
      </trkpt>
      <trkpt lat="43.63765" lon="1.19583">
        <ele>231</ele>
        <time>2012-10-14T09:11:55Z</time>
      </trkpt>
      <trkpt lat="43.63762" lon="1.19576">
        <ele>231</ele>
        <time>2012-10-14T09:11:56Z</time>
      </trkpt>
      <trkpt lat="43.63759" lon="1.1957">
        <ele>231</ele>
        <time>2012-10-14T09:11:57Z</time>
      </trkpt>
      <trkpt lat="43.63755" lon="1.19563">
        <ele>231</ele>
        <time>2012-10-14T09:11:58Z</time>
      </trkpt>
      <trkpt lat="43.63751" lon="1.19555">
        <ele>231</ele>
        <time>2012-10-14T09:11:59Z</time>
      </trkpt>
      <trkpt lat="43.63747" lon="1.19549">
        <ele>230.994995</ele>
        <time>2012-10-14T09:12:00Z</time>
      </trkpt>
      <trkpt lat="43.63726" lon="1.19523">
        <ele>231</ele>
        <time>2012-10-14T09:12:05Z</time>
      </trkpt>
      <trkpt lat="43.63722" lon="1.19518">
        <ele>231</ele>
        <time>2012-10-14T09:12:06Z</time>
      </trkpt>
      <trkpt lat="43.63714" lon="1.19508">
        <ele>231</ele>
        <time>2012-10-14T09:12:08Z</time>
      </trkpt>
      <trkpt lat="43.6371" lon="1.19503">
        <ele>231</ele>
        <time>2012-10-14T09:12:09Z</time>
      </trkpt>
      <trkpt lat="43.63705" lon="1.19497">
        <ele>231</ele>
        <time>2012-10-14T09:12:10Z</time>
      </trkpt>
      <trkpt lat="43.63693" lon="1.19481">
        <ele>231</ele>
        <time>2012-10-14T09:12:13Z</time>
      </trkpt>
      <trkpt lat="43.63683" lon="1.19472">
        <ele>231</ele>
        <time>2012-10-14T09:12:15Z</time>
      </trkpt>
      <trkpt lat="43.63678" lon="1.1947">
        <ele>231</ele>
        <time>2012-10-14T09:12:16Z</time>
      </trkpt>
      <trkpt lat="43.63673" lon="1.19468">
        <ele>231</ele>
        <time>2012-10-14T09:12:17Z</time>
      </trkpt>
      <trkpt lat="43.63656" lon="1.19463">
        <ele>231</ele>
        <time>2012-10-14T09:12:20Z</time>
      </trkpt>
      <trkpt lat="43.6365" lon="1.19461">
        <ele>231</ele>
        <time>2012-10-14T09:12:21Z</time>
      </trkpt>
      <trkpt lat="43.63644" lon="1.1946">
        <ele>231</ele>
        <time>2012-10-14T09:12:22Z</time>
      </trkpt>
      <trkpt lat="43.63638" lon="1.1946">
        <ele>231</ele>
        <time>2012-10-14T09:12:23Z</time>
      </trkpt>
      <trkpt lat="43.63632" lon="1.19461">
        <ele>231.132507</ele>
        <time>2012-10-14T09:12:24Z</time>
      </trkpt>
      <trkpt lat="43.63627" lon="1.19463">
        <ele>231.252502</ele>
        <time>2012-10-14T09:12:25Z</time>
      </trkpt>
      <trkpt lat="43.63617" lon="1.19468">
        <ele>231.485001</ele>
        <time>2012-10-14T09:12:27Z</time>
      </trkpt>
      <trkpt lat="43.63611" lon="1.19471">
        <ele>231.607498</ele>
        <time>2012-10-14T09:12:28Z</time>
      </trkpt>
      <trkpt lat="43.63601" lon="1.19478">
        <ele>231.839996</ele>
        <time>2012-10-14T09:12:30Z</time>
      </trkpt>
      <trkpt lat="43.63586" lon="1.1949">
        <ele>232</ele>
        <time>2012-10-14T09:12:33Z</time>
      </trkpt>
      <trkpt lat="43.63576" lon="1.19501">
        <ele>232</ele>
        <time>2012-10-14T09:12:35Z</time>
      </trkpt>
      <trkpt lat="43.63573" lon="1.19508">
        <ele>232</ele>
        <time>2012-10-14T09:12:36Z</time>
      </trkpt>
      <trkpt lat="43.63565" lon="1.19523">
        <ele>232</ele>
        <time>2012-10-14T09:12:38Z</time>
      </trkpt>
      <trkpt lat="43.63562" lon="1.1953">
        <ele>232</ele>
        <time>2012-10-14T09:12:39Z</time>
      </trkpt>
      <trkpt lat="43.63558" lon="1.19536">
        <ele>232</ele>
        <time>2012-10-14T09:12:40Z</time>
      </trkpt>
      <trkpt lat="43.63554" lon="1.19542">
        <ele>232</ele>
        <time>2012-10-14T09:12:41Z</time>
      </trkpt>
      <trkpt lat="43.6355" lon="1.19547">
        <ele>232</ele>
        <time>2012-10-14T09:12:42Z</time>
      </trkpt>
      <trkpt lat="43.63546" lon="1.19551">
        <ele>232</ele>
        <time>2012-10-14T09:12:43Z</time>
      </trkpt>
      <trkpt lat="43.63542" lon="1.19556">
        <ele>232</ele>
        <time>2012-10-14T09:12:44Z</time>
      </trkpt>
      <trkpt lat="43.63538" lon="1.1956">
        <ele>232</ele>
        <time>2012-10-14T09:12:45Z</time>
      </trkpt>
      <trkpt lat="43.63534" lon="1.19564">
        <ele>232</ele>
        <time>2012-10-14T09:12:46Z</time>
      </trkpt>
      <trkpt lat="43.63531" lon="1.19568">
        <ele>232</ele>
        <time>2012-10-14T09:12:47Z</time>
      </trkpt>
      <trkpt lat="43.63527" lon="1.19573">
        <ele>232</ele>
        <time>2012-10-14T09:12:48Z</time>
      </trkpt>
      <trkpt lat="43.63523" lon="1.19578">
        <ele>232</ele>
        <time>2012-10-14T09:12:49Z</time>
      </trkpt>
      <trkpt lat="43.63498" lon="1.19609">
        <ele>232.154999</ele>
        <time>2012-10-14T09:12:55Z</time>
      </trkpt>
      <trkpt lat="43.63489" lon="1.19619">
        <ele>232.376373</ele>
        <time>2012-10-14T09:12:57Z</time>
      </trkpt>
      <trkpt lat="43.63485" lon="1.19624">
        <ele>232.507095</ele>
        <time>2012-10-14T09:12:58Z</time>
      </trkpt>
      <trkpt lat="43.63481" lon="1.19628">
        <ele>232.614014</ele>
        <time>2012-10-14T09:12:59Z</time>
      </trkpt>
      <trkpt lat="43.63478" lon="1.19632">
        <ele>232.706223</ele>
        <time>2012-10-14T09:13:00Z</time>
      </trkpt>
      <trkpt lat="43.63474" lon="1.19636">
        <ele>232.782227</ele>
        <time>2012-10-14T09:13:01Z</time>
      </trkpt>
      <trkpt lat="43.63463" lon="1.19645">
        <ele>232.973663</ele>
        <time>2012-10-14T09:13:04Z</time>
      </trkpt>
      <trkpt lat="43.63459" lon="1.19649">
        <ele>233</ele>
        <time>2012-10-14T09:13:05Z</time>
      </trkpt>
      <trkpt lat="43.63415" lon="1.19696">
        <ele>233</ele>
        <time>2012-10-14T09:13:15Z</time>
      </trkpt>
      <trkpt lat="43.63411" lon="1.19703">
        <ele>233</ele>
        <time>2012-10-14T09:13:16Z</time>
      </trkpt>
      <trkpt lat="43.63406" lon="1.19709">
        <ele>233</ele>
        <time>2012-10-14T09:13:17Z</time>
      </trkpt>
      <trkpt lat="43.63387" lon="1.19743">
        <ele>233.003128</ele>
        <time>2012-10-14T09:13:22Z</time>
      </trkpt>
      <trkpt lat="43.63382" lon="1.19748">
        <ele>233.091873</ele>
        <time>2012-10-14T09:13:23Z</time>
      </trkpt>
      <trkpt lat="43.63377" lon="1.19752">
        <ele>233.154999</ele>
        <time>2012-10-14T09:13:24Z</time>
      </trkpt>
      <trkpt lat="43.63354" lon="1.19768">
        <ele>233.40625</ele>
        <time>2012-10-14T09:13:28Z</time>
      </trkpt>
      <trkpt lat="43.63349" lon="1.19774">
        <ele>233.493118</ele>
        <time>2012-10-14T09:13:29Z</time>
      </trkpt>
      <trkpt lat="43.63344" lon="1.1978">
        <ele>233.586868</ele>
        <time>2012-10-14T09:13:30Z</time>
      </trkpt>
      <trkpt lat="43.63339" lon="1.19785">
        <ele>233.674377</ele>
        <time>2012-10-14T09:13:31Z</time>
      </trkpt>
      <trkpt lat="43.63334" lon="1.19791">
        <ele>233.756882</ele>
        <time>2012-10-14T09:13:32Z</time>
      </trkpt>
      <trkpt lat="43.63329" lon="1.19795">
        <ele>233.828125</ele>
        <time>2012-10-14T09:13:33Z</time>
      </trkpt>
      <trkpt lat="43.63324" lon="1.198">
        <ele>233.824066</ele>
        <time>2012-10-14T09:13:34Z</time>
      </trkpt>
      <trkpt lat="43.63318" lon="1.19805">
        <ele>233.78746</ele>
        <time>2012-10-14T09:13:35Z</time>
      </trkpt>
      <trkpt lat="43.63305" lon="1.19819">
        <ele>233.600739</ele>
        <time>2012-10-14T09:13:38Z</time>
      </trkpt>
      <trkpt lat="43.633" lon="1.19823">
        <ele>233.549423</ele>
        <time>2012-10-14T09:13:39Z</time>
      </trkpt>
      <trkpt lat="43.63295" lon="1.19826">
        <ele>233.502823</ele>
        <time>2012-10-14T09:13:40Z</time>
      </trkpt>
      <trkpt lat="43.6329" lon="1.19828">
        <ele>233.453003</ele>
        <time>2012-10-14T09:13:41Z</time>
      </trkpt>
      <trkpt lat="43.63285" lon="1.1983">
        <ele>233.413376</ele>
        <time>2012-10-14T09:13:42Z</time>
      </trkpt>
      <trkpt lat="43.63274" lon="1.19834">
        <ele>233.440628</ele>
        <time>2012-10-14T09:13:44Z</time>
      </trkpt>
      <trkpt lat="43.63268" lon="1.19835">
        <ele>233.460007</ele>
        <time>2012-10-14T09:13:45Z</time>
      </trkpt>
      <trkpt lat="43.63238" lon="1.19843">
        <ele>233.577499</ele>
        <time>2012-10-14T09:13:50Z</time>
      </trkpt>
      <trkpt lat="43.63233" lon="1.19846">
        <ele>233.613129</ele>
        <time>2012-10-14T09:13:51Z</time>
      </trkpt>
      <trkpt lat="43.63227" lon="1.19847">
        <ele>233.632507</ele>
        <time>2012-10-14T09:13:52Z</time>
      </trkpt>
      <trkpt lat="43.6322" lon="1.19847">
        <ele>233.638123</ele>
        <time>2012-10-14T09:13:53Z</time>
      </trkpt>
      <trkpt lat="43.63214" lon="1.19846">
        <ele>233.611877</ele>
        <time>2012-10-14T09:13:54Z</time>
      </trkpt>
      <trkpt lat="43.63209" lon="1.19843">
        <ele>233.570007</ele>
        <time>2012-10-14T09:13:55Z</time>
      </trkpt>
      <trkpt lat="43.63204" lon="1.19841">
        <ele>233.526245</ele>
        <time>2012-10-14T09:13:56Z</time>
      </trkpt>
      <trkpt lat="43.63197" lon="1.19839">
        <ele>233.493118</ele>
        <time>2012-10-14T09:13:57Z</time>
      </trkpt>
      <trkpt lat="43.63192" lon="1.19835">
        <ele>233.447708</ele>
        <time>2012-10-14T09:13:58Z</time>
      </trkpt>
      <trkpt lat="43.63188" lon="1.1983">
        <ele>233.429138</ele>
        <time>2012-10-14T09:13:59Z</time>
      </trkpt>
      <trkpt lat="43.63184" lon="1.19825">
        <ele>233.406494</ele>
        <time>2012-10-14T09:14:00Z</time>
      </trkpt>
      <trkpt lat="43.6318" lon="1.1982">
        <ele>233.416916</ele>
        <time>2012-10-14T09:14:01Z</time>
      </trkpt>
      <trkpt lat="43.63176" lon="1.19815">
        <ele>233.438675</ele>
        <time>2012-10-14T09:14:02Z</time>
      </trkpt>
      <trkpt lat="43.63172" lon="1.1981">
        <ele>233.469788</ele>
        <time>2012-10-14T09:14:03Z</time>
      </trkpt>
      <trkpt lat="43.63168" lon="1.19805">
        <ele>233.513901</ele>
        <time>2012-10-14T09:14:04Z</time>
      </trkpt>
      <trkpt lat="43.63163" lon="1.19801">
        <ele>233.561035</ele>
        <time>2012-10-14T09:14:05Z</time>
      </trkpt>
      <trkpt lat="43.63159" lon="1.19796">
        <ele>233.592972</ele>
        <time>2012-10-14T09:14:06Z</time>
      </trkpt>
      <trkpt lat="43.6315" lon="1.19788">
        <ele>233.625473</ele>
        <time>2012-10-14T09:14:08Z</time>
      </trkpt>
      <trkpt lat="43.63141" lon="1.1978">
        <ele>233.59108</ele>
        <time>2012-10-14T09:14:10Z</time>
      </trkpt>
      <trkpt lat="43.63137" lon="1.19776">
        <ele>233.592453</ele>
        <time>2012-10-14T09:14:11Z</time>
      </trkpt>
      <trkpt lat="43.63132" lon="1.19774">
        <ele>233.619888</ele>
        <time>2012-10-14T09:14:12Z</time>
      </trkpt>
      <trkpt lat="43.63084" lon="1.1975">
        <ele>234</ele>
        <time>2012-10-14T09:14:21Z</time>
      </trkpt>
      <trkpt lat="43.63079" lon="1.19746">
        <ele>234</ele>
        <time>2012-10-14T09:14:22Z</time>
      </trkpt>
      <trkpt lat="43.63075" lon="1.19742">
        <ele>234</ele>
        <time>2012-10-14T09:14:23Z</time>
      </trkpt>
      <trkpt lat="43.63067" lon="1.19733">
        <ele>234</ele>
        <time>2012-10-14T09:14:25Z</time>
      </trkpt>
      <trkpt lat="43.63053" lon="1.19725">
        <ele>234.092499</ele>
        <time>2012-10-14T09:14:28Z</time>
      </trkpt>
      <trkpt lat="43.63039" lon="1.19719">
        <ele>234.384995</ele>
        <time>2012-10-14T09:14:31Z</time>
      </trkpt>
      <trkpt lat="43.63036" lon="1.19717">
        <ele>234.472504</ele>
        <time>2012-10-14T09:14:32Z</time>
      </trkpt>
      <trkpt lat="43.63031" lon="1.19716">
        <ele>234.565002</ele>
        <time>2012-10-14T09:14:33Z</time>
      </trkpt>
      <trkpt lat="43.62997" lon="1.19704">
        <ele>235.335007</ele>
        <time>2012-10-14T09:14:40Z</time>
      </trkpt>
      <trkpt lat="43.62992" lon="1.197">
        <ele>235.4375</ele>
        <time>2012-10-14T09:14:41Z</time>
      </trkpt>
      <trkpt lat="43.62988" lon="1.19696">
        <ele>235.522507</ele>
        <time>2012-10-14T09:14:42Z</time>
      </trkpt>
      <trkpt lat="43.62977" lon="1.19684">
        <ele>235.844376</ele>
        <time>2012-10-14T09:14:45Z</time>
      </trkpt>
      <trkpt lat="43.62974" lon="1.19681">
        <ele>235.968124</ele>
        <time>2012-10-14T09:14:46Z</time>
      </trkpt>
      <trkpt lat="43.6297" lon="1.19679">
        <ele>236.083755</ele>
        <time>2012-10-14T09:14:47Z</time>
      </trkpt>
      <trkpt lat="43.62945" lon="1.19672">
        <ele>236.761871</ele>
        <time>2012-10-14T09:14:54Z</time>
      </trkpt>
      <trkpt lat="43.62942" lon="1.19673">
        <ele>236.807495</ele>
        <time>2012-10-14T09:14:55Z</time>
      </trkpt>
      <trkpt lat="43.62908" lon="1.19667">
        <ele>237.381256</ele>
        <time>2012-10-14T09:15:04Z</time>
      </trkpt>
      <trkpt lat="43.629" lon="1.19661">
        <ele>237.471252</ele>
        <time>2012-10-14T09:15:06Z</time>
      </trkpt>
      <trkpt lat="43.62896" lon="1.19659">
        <ele>237.514374</ele>
        <time>2012-10-14T09:15:07Z</time>
      </trkpt>
      <trkpt lat="43.62892" lon="1.19655">
        <ele>237.572495</ele>
        <time>2012-10-14T09:15:08Z</time>
      </trkpt>
      <trkpt lat="43.62888" lon="1.19652">
        <ele>237.628754</ele>
        <time>2012-10-14T09:15:09Z</time>
      </trkpt>
      <trkpt lat="43.62884" lon="1.19648">
        <ele>237.686874</ele>
        <time>2012-10-14T09:15:10Z</time>
      </trkpt>
      <trkpt lat="43.62879" lon="1.19645">
        <ele>237.73938</ele>
        <time>2012-10-14T09:15:11Z</time>
      </trkpt>
      <trkpt lat="43.62875" lon="1.19642">
        <ele>237.781555</ele>
        <time>2012-10-14T09:15:12Z</time>
      </trkpt>
      <trkpt lat="43.62871" lon="1.19638">
        <ele>237.761505</ele>
        <time>2012-10-14T09:15:13Z</time>
      </trkpt>
      <trkpt lat="43.62867" lon="1.19635">
        <ele>237.727997</ele>
        <time>2012-10-14T09:15:14Z</time>
      </trkpt>
      <trkpt lat="43.62863" lon="1.19631">
        <ele>237.694443</ele>
        <time>2012-10-14T09:15:15Z</time>
      </trkpt>
      <trkpt lat="43.62859" lon="1.19628">
        <ele>237.625</ele>
        <time>2012-10-14T09:15:16Z</time>
      </trkpt>
      <trkpt lat="43.62855" lon="1.19624">
        <ele>237.529999</ele>
        <time>2012-10-14T09:15:17Z</time>
      </trkpt>
      <trkpt lat="43.62833" lon="1.1961">
        <ele>237.044998</ele>
        <time>2012-10-14T09:15:22Z</time>
      </trkpt>
      <trkpt lat="43.62829" lon="1.19606">
        <ele>237</ele>
        <time>2012-10-14T09:15:23Z</time>
      </trkpt>
      <trkpt lat="43.62825" lon="1.19602">
        <ele>237</ele>
        <time>2012-10-14T09:15:24Z</time>
      </trkpt>
      <trkpt lat="43.62809" lon="1.19587">
        <ele>237</ele>
        <time>2012-10-14T09:15:28Z</time>
      </trkpt>
      <trkpt lat="43.62805" lon="1.19582">
        <ele>237</ele>
        <time>2012-10-14T09:15:29Z</time>
      </trkpt>
      <trkpt lat="43.628" lon="1.19579">
        <ele>237</ele>
        <time>2012-10-14T09:15:30Z</time>
      </trkpt>
      <trkpt lat="43.62775" lon="1.19562">
        <ele>237</ele>
        <time>2012-10-14T09:15:35Z</time>
      </trkpt>
      <trkpt lat="43.6277" lon="1.19558">
        <ele>237</ele>
        <time>2012-10-14T09:15:36Z</time>
      </trkpt>
      <trkpt lat="43.6274" lon="1.19534">
        <ele>237</ele>
        <time>2012-10-14T09:15:43Z</time>
      </trkpt>
      <trkpt lat="43.62736" lon="1.1953">
        <ele>237</ele>
        <time>2012-10-14T09:15:44Z</time>
      </trkpt>
      <trkpt lat="43.62718" lon="1.19515">
        <ele>237</ele>
        <time>2012-10-14T09:15:48Z</time>
      </trkpt>
      <trkpt lat="43.62704" lon="1.19502">
        <ele>237</ele>
        <time>2012-10-14T09:15:51Z</time>
      </trkpt>
      <trkpt lat="43.62701" lon="1.19496">
        <ele>237</ele>
        <time>2012-10-14T09:15:52Z</time>
      </trkpt>
      <trkpt lat="43.627" lon="1.19489">
        <ele>237</ele>
        <time>2012-10-14T09:15:53Z</time>
      </trkpt>
      <trkpt lat="43.627" lon="1.19483">
        <ele>237</ele>
        <time>2012-10-14T09:15:54Z</time>
      </trkpt>
      <trkpt lat="43.62702" lon="1.19477">
        <ele>237</ele>
        <time>2012-10-14T09:15:55Z</time>
      </trkpt>
      <trkpt lat="43.62704" lon="1.19472">
        <ele>237</ele>
        <time>2012-10-14T09:15:56Z</time>
      </trkpt>
      <trkpt lat="43.62712" lon="1.19451">
        <ele>237</ele>
        <time>2012-10-14T09:16:00Z</time>
      </trkpt>
      <trkpt lat="43.62714" lon="1.19446">
        <ele>237</ele>
        <time>2012-10-14T09:16:01Z</time>
      </trkpt>
      <trkpt lat="43.62716" lon="1.1944">
        <ele>237</ele>
        <time>2012-10-14T09:16:02Z</time>
      </trkpt>
      <trkpt lat="43.62718" lon="1.19436">
        <ele>237</ele>
        <time>2012-10-14T09:16:03Z</time>
      </trkpt>
      <trkpt lat="43.62719" lon="1.19432">
        <ele>237</ele>
        <time>2012-10-14T09:16:04Z</time>
      </trkpt>
      <trkpt lat="43.62721" lon="1.19423">
        <ele>237</ele>
        <time>2012-10-14T09:16:15Z</time>
      </trkpt>
      <trkpt lat="43.62728" lon="1.19405">
        <ele>237</ele>
        <time>2012-10-14T09:16:19Z</time>
      </trkpt>
      <trkpt lat="43.62746" lon="1.19363">
        <ele>237</ele>
        <time>2012-10-14T09:16:26Z</time>
      </trkpt>
      <trkpt lat="43.62752" lon="1.19351">
        <ele>237</ele>
        <time>2012-10-14T09:16:28Z</time>
      </trkpt>
      <trkpt lat="43.62773" lon="1.19305">
        <ele>237.265625</ele>
        <time>2012-10-14T09:16:36Z</time>
      </trkpt>
      <trkpt lat="43.62776" lon="1.193">
        <ele>237.353745</ele>
        <time>2012-10-14T09:16:37Z</time>
      </trkpt>
      <trkpt lat="43.62779" lon="1.19294">
        <ele>237.44313</ele>
        <time>2012-10-14T09:16:38Z</time>
      </trkpt>
      <trkpt lat="43.62781" lon="1.19288">
        <ele>237.536255</ele>
        <time>2012-10-14T09:16:39Z</time>
      </trkpt>
      <trkpt lat="43.62782" lon="1.19282">
        <ele>237.636246</ele>
        <time>2012-10-14T09:16:40Z</time>
      </trkpt>
      <trkpt lat="43.6278" lon="1.19277">
        <ele>237.727493</ele>
        <time>2012-10-14T09:16:41Z</time>
      </trkpt>
      <trkpt lat="43.62776" lon="1.19272">
        <ele>237.798126</ele>
        <time>2012-10-14T09:16:42Z</time>
      </trkpt>
      <trkpt lat="43.62773" lon="1.19269">
        <ele>237.846252</ele>
        <time>2012-10-14T09:16:43Z</time>
      </trkpt>
      <trkpt lat="43.62768" lon="1.19268">
        <ele>237.875</ele>
        <time>2012-10-14T09:16:44Z</time>
      </trkpt>
      <trkpt lat="43.62763" lon="1.19267">
        <ele>237.896255</ele>
        <time>2012-10-14T09:16:45Z</time>
      </trkpt>
      <trkpt lat="43.62725" lon="1.19249">
        <ele>238</ele>
        <time>2012-10-14T09:16:53Z</time>
      </trkpt>
      <trkpt lat="43.6272" lon="1.19245">
        <ele>238</ele>
        <time>2012-10-14T09:16:54Z</time>
      </trkpt>
      <trkpt lat="43.62699" lon="1.19226">
        <ele>238</ele>
        <time>2012-10-14T09:16:59Z</time>
      </trkpt>
      <trkpt lat="43.62695" lon="1.19222">
        <ele>238</ele>
        <time>2012-10-14T09:17:00Z</time>
      </trkpt>
      <trkpt lat="43.62683" lon="1.19211">
        <ele>238</ele>
        <time>2012-10-14T09:17:03Z</time>
      </trkpt>
      <trkpt lat="43.62679" lon="1.19206">
        <ele>238</ele>
        <time>2012-10-14T09:17:04Z</time>
      </trkpt>
      <trkpt lat="43.62676" lon="1.19202">
        <ele>238</ele>
        <time>2012-10-14T09:17:05Z</time>
      </trkpt>
      <trkpt lat="43.62668" lon="1.19196">
        <ele>238.07312</ele>
        <time>2012-10-14T09:17:07Z</time>
      </trkpt>
      <trkpt lat="43.62664" lon="1.19193">
        <ele>238.121246</ele>
        <time>2012-10-14T09:17:08Z</time>
      </trkpt>
      <trkpt lat="43.6266" lon="1.19189">
        <ele>238.180618</ele>
        <time>2012-10-14T09:17:09Z</time>
      </trkpt>
      <trkpt lat="43.62656" lon="1.19185">
        <ele>238.248123</ele>
        <time>2012-10-14T09:17:10Z</time>
      </trkpt>
      <trkpt lat="43.62652" lon="1.19182">
        <ele>238.302505</ele>
        <time>2012-10-14T09:17:11Z</time>
      </trkpt>
      <trkpt lat="43.62648" lon="1.19179">
        <ele>238.350632</ele>
        <time>2012-10-14T09:17:12Z</time>
      </trkpt>
      <trkpt lat="43.62636" lon="1.19169">
        <ele>238.513123</ele>
        <time>2012-10-14T09:17:15Z</time>
      </trkpt>
      <trkpt lat="43.62632" lon="1.19165">
        <ele>238.577499</ele>
        <time>2012-10-14T09:17:16Z</time>
      </trkpt>
      <trkpt lat="43.62628" lon="1.19161">
        <ele>238.641876</ele>
        <time>2012-10-14T09:17:17Z</time>
      </trkpt>
      <trkpt lat="43.6262" lon="1.19155">
        <ele>238.748123</ele>
        <time>2012-10-14T09:17:19Z</time>
      </trkpt>
      <trkpt lat="43.62615" lon="1.19152">
        <ele>238.796249</ele>
        <time>2012-10-14T09:17:20Z</time>
      </trkpt>
      <trkpt lat="43.62611" lon="1.19149">
        <ele>238.847504</ele>
        <time>2012-10-14T09:17:21Z</time>
      </trkpt>
      <trkpt lat="43.62606" lon="1.19146">
        <ele>238.896255</ele>
        <time>2012-10-14T09:17:22Z</time>
      </trkpt>
      <trkpt lat="43.62602" lon="1.19143">
        <ele>238.949371</ele>
        <time>2012-10-14T09:17:23Z</time>
      </trkpt>
      <trkpt lat="43.62593" lon="1.19137">
        <ele>239</ele>
        <time>2012-10-14T09:17:25Z</time>
      </trkpt>
      <trkpt lat="43.62589" lon="1.19134">
        <ele>239</ele>
        <time>2012-10-14T09:17:26Z</time>
      </trkpt>
      <trkpt lat="43.62571" lon="1.19119">
        <ele>239</ele>
        <time>2012-10-14T09:17:30Z</time>
      </trkpt>
      <trkpt lat="43.62567" lon="1.19115">
        <ele>239</ele>
        <time>2012-10-14T09:17:31Z</time>
      </trkpt>
      <trkpt lat="43.62562" lon="1.19112">
        <ele>239</ele>
        <time>2012-10-14T09:17:32Z</time>
      </trkpt>
      <trkpt lat="43.62558" lon="1.19108">
        <ele>239</ele>
        <time>2012-10-14T09:17:33Z</time>
      </trkpt>
      <trkpt lat="43.62553" lon="1.19105">
        <ele>239</ele>
        <time>2012-10-14T09:17:34Z</time>
      </trkpt>
      <trkpt lat="43.62549" lon="1.19101">
        <ele>239</ele>
        <time>2012-10-14T09:17:35Z</time>
      </trkpt>
      <trkpt lat="43.62544" lon="1.19097">
        <ele>239</ele>
        <time>2012-10-14T09:17:36Z</time>
      </trkpt>
      <trkpt lat="43.6254" lon="1.19092">
        <ele>239</ele>
        <time>2012-10-14T09:17:37Z</time>
      </trkpt>
      <trkpt lat="43.62537" lon="1.19088">
        <ele>239</ele>
        <time>2012-10-14T09:17:38Z</time>
      </trkpt>
      <trkpt lat="43.62533" lon="1.19083">
        <ele>239</ele>
        <time>2012-10-14T09:17:39Z</time>
      </trkpt>
      <trkpt lat="43.62529" lon="1.19078">
        <ele>239</ele>
        <time>2012-10-14T09:17:40Z</time>
      </trkpt>
      <trkpt lat="43.62525" lon="1.19073">
        <ele>239</ele>
        <time>2012-10-14T09:17:41Z</time>
      </trkpt>
      <trkpt lat="43.62521" lon="1.19068">
        <ele>239</ele>
        <time>2012-10-14T09:17:42Z</time>
      </trkpt>
      <trkpt lat="43.62506" lon="1.19047">
        <ele>239.104996</ele>
        <time>2012-10-14T09:17:46Z</time>
      </trkpt>
      <trkpt lat="43.62488" lon="1.19019">
        <ele>239.497498</ele>
        <time>2012-10-14T09:17:51Z</time>
      </trkpt>
      <trkpt lat="43.62484" lon="1.19014">
        <ele>239.717499</ele>
        <time>2012-10-14T09:17:52Z</time>
      </trkpt>
      <trkpt lat="43.62477" lon="1.19005">
        <ele>240.180008</ele>
        <time>2012-10-14T09:17:54Z</time>
      </trkpt>
      <trkpt lat="43.62468" lon="1.18997">
        <ele>240.618759</ele>
        <time>2012-10-14T09:17:56Z</time>
      </trkpt>
      <trkpt lat="43.6246" lon="1.1899">
        <ele>241.048752</ele>
        <time>2012-10-14T09:17:58Z</time>
      </trkpt>
      <trkpt lat="43.62456" lon="1.18985">
        <ele>241.277496</ele>
        <time>2012-10-14T09:17:59Z</time>
      </trkpt>
      <trkpt lat="43.62451" lon="1.18982">
        <ele>241.506256</ele>
        <time>2012-10-14T09:18:00Z</time>
      </trkpt>
      <trkpt lat="43.62447" lon="1.18978">
        <ele>241.712494</ele>
        <time>2012-10-14T09:18:01Z</time>
      </trkpt>
      <trkpt lat="43.62442" lon="1.18976">
        <ele>241.884995</ele>
        <time>2012-10-14T09:18:02Z</time>
      </trkpt>
      <trkpt lat="43.62438" lon="1.18974">
        <ele>242.054993</ele>
        <time>2012-10-14T09:18:03Z</time>
      </trkpt>
      <trkpt lat="43.62434" lon="1.18971">
        <ele>242.229996</ele>
        <time>2012-10-14T09:18:04Z</time>
      </trkpt>
      <trkpt lat="43.62429" lon="1.18969">
        <ele>242.407501</ele>
        <time>2012-10-14T09:18:05Z</time>
      </trkpt>
      <trkpt lat="43.62424" lon="1.18967">
        <ele>242.588745</ele>
        <time>2012-10-14T09:18:06Z</time>
      </trkpt>
      <trkpt lat="43.62419" lon="1.18966">
        <ele>242.751251</ele>
        <time>2012-10-14T09:18:07Z</time>
      </trkpt>
      <trkpt lat="43.62414" lon="1.18964">
        <ele>242.923752</ele>
        <time>2012-10-14T09:18:08Z</time>
      </trkpt>
      <trkpt lat="43.62409" lon="1.18962">
        <ele>243.113754</ele>
        <time>2012-10-14T09:18:09Z</time>
      </trkpt>
      <trkpt lat="43.62404" lon="1.18959">
        <ele>243.311249</ele>
        <time>2012-10-14T09:18:10Z</time>
      </trkpt>
      <trkpt lat="43.624" lon="1.18956">
        <ele>243.494995</ele>
        <time>2012-10-14T09:18:11Z</time>
      </trkpt>
      <trkpt lat="43.62397" lon="1.18953">
        <ele>243.673752</ele>
        <time>2012-10-14T09:18:12Z</time>
      </trkpt>
      <trkpt lat="43.62388" lon="1.18949">
        <ele>244.005005</ele>
        <time>2012-10-14T09:18:14Z</time>
      </trkpt>
      <trkpt lat="43.62383" lon="1.18949">
        <ele>244.117493</ele>
        <time>2012-10-14T09:18:15Z</time>
      </trkpt>
      <trkpt lat="43.62378" lon="1.18949">
        <ele>244.232498</ele>
        <time>2012-10-14T09:18:16Z</time>
      </trkpt>
      <trkpt lat="43.62366" lon="1.18948">
        <ele>244.357498</ele>
        <time>2012-10-14T09:18:18Z</time>
      </trkpt>
      <trkpt lat="43.62345" lon="1.1894">
        <ele>244.633743</ele>
        <time>2012-10-14T09:18:22Z</time>
      </trkpt>
      <trkpt lat="43.62341" lon="1.18936">
        <ele>244.756256</ele>
        <time>2012-10-14T09:18:23Z</time>
      </trkpt>
      <trkpt lat="43.62336" lon="1.18933">
        <ele>244.858749</ele>
        <time>2012-10-14T09:18:24Z</time>
      </trkpt>
      <trkpt lat="43.62311" lon="1.18919">
        <ele>245.041794</ele>
        <time>2012-10-14T09:18:29Z</time>
      </trkpt>
      <trkpt lat="43.62305" lon="1.18919">
        <ele>244.981216</ele>
        <time>2012-10-14T09:18:30Z</time>
      </trkpt>
      <trkpt lat="43.62299" lon="1.18919">
        <ele>244.873657</ele>
        <time>2012-10-14T09:18:31Z</time>
      </trkpt>
      <trkpt lat="43.62293" lon="1.1892">
        <ele>244.772003</ele>
        <time>2012-10-14T09:18:32Z</time>
      </trkpt>
      <trkpt lat="43.62287" lon="1.1892">
        <ele>244.681839</ele>
        <time>2012-10-14T09:18:33Z</time>
      </trkpt>
      <trkpt lat="43.6227" lon="1.18923">
        <ele>244.274368</ele>
        <time>2012-10-14T09:18:36Z</time>
      </trkpt>
      <trkpt lat="43.62264" lon="1.18928">
        <ele>244.080627</ele>
        <time>2012-10-14T09:18:37Z</time>
      </trkpt>
      <trkpt lat="43.62259" lon="1.18933">
        <ele>243.888748</ele>
        <time>2012-10-14T09:18:38Z</time>
      </trkpt>
      <trkpt lat="43.62256" lon="1.1894">
        <ele>243.701874</ele>
        <time>2012-10-14T09:18:39Z</time>
      </trkpt>
      <trkpt lat="43.62252" lon="1.18946">
        <ele>243.521881</ele>
        <time>2012-10-14T09:18:40Z</time>
      </trkpt>
      <trkpt lat="43.62249" lon="1.18954">
        <ele>243.331879</ele>
        <time>2012-10-14T09:18:41Z</time>
      </trkpt>
      <trkpt lat="43.62195" lon="1.19065">
        <ele>240.679459</ele>
        <time>2012-10-14T09:18:56Z</time>
      </trkpt>
      <trkpt lat="43.62185" lon="1.19088">
        <ele>240.239334</ele>
        <time>2012-10-14T09:18:59Z</time>
      </trkpt>
      <trkpt lat="43.62154" lon="1.19157">
        <ele>240</ele>
        <time>2012-10-14T09:19:08Z</time>
      </trkpt>
      <trkpt lat="43.62151" lon="1.19165">
        <ele>240</ele>
        <time>2012-10-14T09:19:09Z</time>
      </trkpt>
      <trkpt lat="43.62143" lon="1.19182">
        <ele>240</ele>
        <time>2012-10-14T09:19:11Z</time>
      </trkpt>
      <trkpt lat="43.62125" lon="1.19221">
        <ele>240</ele>
        <time>2012-10-14T09:19:16Z</time>
      </trkpt>
      <trkpt lat="43.62121" lon="1.19228">
        <ele>240</ele>
        <time>2012-10-14T09:19:17Z</time>
      </trkpt>
      <trkpt lat="43.62118" lon="1.19234">
        <ele>240</ele>
        <time>2012-10-14T09:19:18Z</time>
      </trkpt>
      <trkpt lat="43.62108" lon="1.19247">
        <ele>240</ele>
        <time>2012-10-14T09:19:21Z</time>
      </trkpt>
      <trkpt lat="43.62105" lon="1.19246">
        <ele>240</ele>
        <time>2012-10-14T09:19:22Z</time>
      </trkpt>
      <trkpt lat="43.62102" lon="1.19244">
        <ele>240</ele>
        <time>2012-10-14T09:19:23Z</time>
      </trkpt>
      <trkpt lat="43.62099" lon="1.19241">
        <ele>240</ele>
        <time>2012-10-14T09:19:24Z</time>
      </trkpt>
      <trkpt lat="43.62095" lon="1.19238">
        <ele>240</ele>
        <time>2012-10-14T09:19:25Z</time>
      </trkpt>
      <trkpt lat="43.62092" lon="1.19236">
        <ele>240</ele>
        <time>2012-10-14T09:19:26Z</time>
      </trkpt>
      <trkpt lat="43.62087" lon="1.19233">
        <ele>240</ele>
        <time>2012-10-14T09:19:27Z</time>
      </trkpt>
      <trkpt lat="43.62084" lon="1.1923">
        <ele>240</ele>
        <time>2012-10-14T09:19:28Z</time>
      </trkpt>
      <trkpt lat="43.6208" lon="1.19226">
        <ele>240</ele>
        <time>2012-10-14T09:19:29Z</time>
      </trkpt>
      <trkpt lat="43.62076" lon="1.19224">
        <ele>240</ele>
        <time>2012-10-14T09:19:30Z</time>
      </trkpt>
      <trkpt lat="43.62072" lon="1.19221">
        <ele>240</ele>
        <time>2012-10-14T09:19:31Z</time>
      </trkpt>
      <trkpt lat="43.62068" lon="1.19217">
        <ele>240</ele>
        <time>2012-10-14T09:19:32Z</time>
      </trkpt>
      <trkpt lat="43.62063" lon="1.19214">
        <ele>240</ele>
        <time>2012-10-14T09:19:33Z</time>
      </trkpt>
      <trkpt lat="43.62042" lon="1.19197">
        <ele>239.435791</ele>
        <time>2012-10-14T09:19:38Z</time>
      </trkpt>
      <trkpt lat="43.62038" lon="1.19193">
        <ele>239.276962</ele>
        <time>2012-10-14T09:19:39Z</time>
      </trkpt>
      <trkpt lat="43.62033" lon="1.19189">
        <ele>239.100784</ele>
        <time>2012-10-14T09:19:40Z</time>
      </trkpt>
      <trkpt lat="43.62" lon="1.1916">
        <ele>237.365005</ele>
        <time>2012-10-14T09:19:47Z</time>
      </trkpt>
      <trkpt lat="43.61947" lon="1.19119">
        <ele>232.166245</ele>
        <time>2012-10-14T09:19:56Z</time>
      </trkpt>
      <trkpt lat="43.61925" lon="1.19103">
        <ele>229.212494</ele>
        <time>2012-10-14T09:20:03Z</time>
      </trkpt>
      <trkpt lat="43.61922" lon="1.19099">
        <ele>228.787506</ele>
        <time>2012-10-14T09:20:05Z</time>
      </trkpt>
      <trkpt lat="43.61918" lon="1.19099">
        <ele>228.488754</ele>
        <time>2012-10-14T09:20:06Z</time>
      </trkpt>
      <trkpt lat="43.61915" lon="1.191">
        <ele>228.278748</ele>
        <time>2012-10-14T09:20:07Z</time>
      </trkpt>
      <trkpt lat="43.61912" lon="1.19102">
        <ele>228.032501</ele>
        <time>2012-10-14T09:20:08Z</time>
      </trkpt>
      <trkpt lat="43.61908" lon="1.19102">
        <ele>227.706253</ele>
        <time>2012-10-14T09:20:09Z</time>
      </trkpt>
      <trkpt lat="43.61899" lon="1.191">
        <ele>226.835007</ele>
        <time>2012-10-14T09:20:11Z</time>
      </trkpt>
      <trkpt lat="43.61897" lon="1.19095">
        <ele>226.472504</ele>
        <time>2012-10-14T09:20:12Z</time>
      </trkpt>
      <trkpt lat="43.61892" lon="1.19077">
        <ele>225.902847</ele>
        <time>2012-10-14T09:20:15Z</time>
      </trkpt>
      <trkpt lat="43.61891" lon="1.19071">
        <ele>225.824478</ele>
        <time>2012-10-14T09:20:16Z</time>
      </trkpt>
      <trkpt lat="43.61891" lon="1.19065">
        <ele>225.783478</ele>
        <time>2012-10-14T09:20:17Z</time>
      </trkpt>
      <trkpt lat="43.6189" lon="1.19059">
        <ele>225.69313</ele>
        <time>2012-10-14T09:20:18Z</time>
      </trkpt>
      <trkpt lat="43.61889" lon="1.19054">
        <ele>225.574173</ele>
        <time>2012-10-14T09:20:19Z</time>
      </trkpt>
      <trkpt lat="43.61888" lon="1.19049">
        <ele>225.470154</ele>
        <time>2012-10-14T09:20:20Z</time>
      </trkpt>
      <trkpt lat="43.61886" lon="1.19044">
        <ele>225.330185</ele>
        <time>2012-10-14T09:20:21Z</time>
      </trkpt>
      <trkpt lat="43.61884" lon="1.19039">
        <ele>225.172531</ele>
        <time>2012-10-14T09:20:22Z</time>
      </trkpt>
      <trkpt lat="43.61881" lon="1.19034">
        <ele>225.01532</ele>
        <time>2012-10-14T09:20:23Z</time>
      </trkpt>
      <trkpt lat="43.6188" lon="1.1903">
        <ele>225.06398</ele>
        <time>2012-10-14T09:20:24Z</time>
      </trkpt>
      <trkpt lat="43.61879" lon="1.19027">
        <ele>225.166687</ele>
        <time>2012-10-14T09:20:25Z</time>
      </trkpt>
      <trkpt lat="43.61878" lon="1.19024">
        <ele>225.233398</ele>
        <time>2012-10-14T09:20:26Z</time>
      </trkpt>
      <trkpt lat="43.61876" lon="1.19009">
        <ele>225.617737</ele>
        <time>2012-10-14T09:20:32Z</time>
      </trkpt>
      <trkpt lat="43.61875" lon="1.19004">
        <ele>225.821655</ele>
        <time>2012-10-14T09:20:34Z</time>
      </trkpt>
      <trkpt lat="43.61886" lon="1.18966">
        <ele>226.230026</ele>
        <time>2012-10-14T09:20:43Z</time>
      </trkpt>
      <trkpt lat="43.61887" lon="1.18952">
        <ele>226.815201</ele>
        <time>2012-10-14T09:20:46Z</time>
      </trkpt>
      <trkpt lat="43.61888" lon="1.18949">
        <ele>226.949982</ele>
        <time>2012-10-14T09:20:47Z</time>
      </trkpt>
      <trkpt lat="43.61888" lon="1.1894">
        <ele>227.315247</ele>
        <time>2012-10-14T09:20:50Z</time>
      </trkpt>
      <trkpt lat="43.6189" lon="1.18937">
        <ele>227.383743</ele>
        <time>2012-10-14T09:20:51Z</time>
      </trkpt>
      <trkpt lat="43.61893" lon="1.18935">
        <ele>227.444855</ele>
        <time>2012-10-14T09:20:52Z</time>
      </trkpt>
      <trkpt lat="43.61894" lon="1.18931">
        <ele>227.543274</ele>
        <time>2012-10-14T09:20:53Z</time>
      </trkpt>
      <trkpt lat="43.61895" lon="1.18927">
        <ele>227.657867</ele>
        <time>2012-10-14T09:20:54Z</time>
      </trkpt>
      <trkpt lat="43.61896" lon="1.18924">
        <ele>227.727249</ele>
        <time>2012-10-14T09:20:55Z</time>
      </trkpt>
      <trkpt lat="43.61898" lon="1.18921">
        <ele>227.75174</ele>
        <time>2012-10-14T09:20:56Z</time>
      </trkpt>
      <trkpt lat="43.619" lon="1.18919">
        <ele>227.774231</ele>
        <time>2012-10-14T09:20:57Z</time>
      </trkpt>
      <trkpt lat="43.61901" lon="1.18916">
        <ele>227.825241</ele>
        <time>2012-10-14T09:20:58Z</time>
      </trkpt>
      <trkpt lat="43.61901" lon="1.18912">
        <ele>227.873566</ele>
        <time>2012-10-14T09:20:59Z</time>
      </trkpt>
      <trkpt lat="43.61902" lon="1.18909">
        <ele>227.94751</ele>
        <time>2012-10-14T09:21:00Z</time>
      </trkpt>
      <trkpt lat="43.61903" lon="1.18905">
        <ele>228.011444</ele>
        <time>2012-10-14T09:21:01Z</time>
      </trkpt>
      <trkpt lat="43.61904" lon="1.189">
        <ele>228.084503</ele>
        <time>2012-10-14T09:21:02Z</time>
      </trkpt>
      <trkpt lat="43.61911" lon="1.18887">
        <ele>228.100998</ele>
        <time>2012-10-14T09:21:05Z</time>
      </trkpt>
      <trkpt lat="43.61912" lon="1.18882">
        <ele>228.1483</ele>
        <time>2012-10-14T09:21:06Z</time>
      </trkpt>
      <trkpt lat="43.61913" lon="1.18876">
        <ele>228.218124</ele>
        <time>2012-10-14T09:21:07Z</time>
      </trkpt>
      <trkpt lat="43.61927" lon="1.18836">
        <ele>228.519409</ele>
        <time>2012-10-14T09:21:15Z</time>
      </trkpt>
      <trkpt lat="43.61928" lon="1.18829">
        <ele>228.794464</ele>
        <time>2012-10-14T09:21:16Z</time>
      </trkpt>
      <trkpt lat="43.61928" lon="1.18823">
        <ele>228.955597</ele>
        <time>2012-10-14T09:21:17Z</time>
      </trkpt>
      <trkpt lat="43.61928" lon="1.18817">
        <ele>229.099579</ele>
        <time>2012-10-14T09:21:18Z</time>
      </trkpt>
      <trkpt lat="43.61928" lon="1.18811">
        <ele>229.270416</ele>
        <time>2012-10-14T09:21:19Z</time>
      </trkpt>
      <trkpt lat="43.61928" lon="1.18805">
        <ele>229.453979</ele>
        <time>2012-10-14T09:21:20Z</time>
      </trkpt>
      <trkpt lat="43.61928" lon="1.18799">
        <ele>229.627197</ele>
        <time>2012-10-14T09:21:21Z</time>
      </trkpt>
      <trkpt lat="43.61928" lon="1.18793">
        <ele>229.79187</ele>
        <time>2012-10-14T09:21:22Z</time>
      </trkpt>
      <trkpt lat="43.61927" lon="1.18788">
        <ele>229.924561</ele>
        <time>2012-10-14T09:21:23Z</time>
      </trkpt>
      <trkpt lat="43.61927" lon="1.18782">
        <ele>230.082504</ele>
        <time>2012-10-14T09:21:24Z</time>
      </trkpt>
      <trkpt lat="43.61927" lon="1.18776">
        <ele>230.080002</ele>
        <time>2012-10-14T09:21:25Z</time>
      </trkpt>
      <trkpt lat="43.61926" lon="1.18764">
        <ele>230.065002</ele>
        <time>2012-10-14T09:21:27Z</time>
      </trkpt>
      <trkpt lat="43.61924" lon="1.18758">
        <ele>230.027496</ele>
        <time>2012-10-14T09:21:28Z</time>
      </trkpt>
      <trkpt lat="43.61923" lon="1.18753">
        <ele>230</ele>
        <time>2012-10-14T09:21:29Z</time>
      </trkpt>
      <trkpt lat="43.61923" lon="1.18748">
        <ele>230</ele>
        <time>2012-10-14T09:21:30Z</time>
      </trkpt>
      <trkpt lat="43.61924" lon="1.18742">
        <ele>230.022507</ele>
        <time>2012-10-14T09:21:31Z</time>
      </trkpt>
      <trkpt lat="43.61926" lon="1.18737">
        <ele>230.065002</ele>
        <time>2012-10-14T09:21:32Z</time>
      </trkpt>
      <trkpt lat="43.61928" lon="1.18732">
        <ele>230.115005</ele>
        <time>2012-10-14T09:21:33Z</time>
      </trkpt>
      <trkpt lat="43.6193" lon="1.18726">
        <ele>230.152496</ele>
        <time>2012-10-14T09:21:34Z</time>
      </trkpt>
      <trkpt lat="43.6193" lon="1.18721">
        <ele>230.175003</ele>
        <time>2012-10-14T09:21:35Z</time>
      </trkpt>
      <trkpt lat="43.61931" lon="1.18715">
        <ele>230.197449</ele>
        <time>2012-10-14T09:21:36Z</time>
      </trkpt>
      <trkpt lat="43.6193" lon="1.18709">
        <ele>230.204971</ele>
        <time>2012-10-14T09:21:37Z</time>
      </trkpt>
      <trkpt lat="43.61928" lon="1.18705">
        <ele>230.161362</ele>
        <time>2012-10-14T09:21:38Z</time>
      </trkpt>
      <trkpt lat="43.61925" lon="1.18703">
        <ele>230.067261</ele>
        <time>2012-10-14T09:21:39Z</time>
      </trkpt>
      <trkpt lat="43.61917" lon="1.18701">
        <ele>230.852814</ele>
        <time>2012-10-14T09:21:41Z</time>
      </trkpt>
      <trkpt lat="43.61904" lon="1.18686">
        <ele>232.656754</ele>
        <time>2012-10-14T09:21:47Z</time>
      </trkpt>
      <trkpt lat="43.61908" lon="1.18661">
        <ele>231.873169</ele>
        <time>2012-10-14T09:21:53Z</time>
      </trkpt>
      <trkpt lat="43.61901" lon="1.18639">
        <ele>232.432755</ele>
        <time>2012-10-14T09:21:58Z</time>
      </trkpt>
      <trkpt lat="43.61897" lon="1.18619">
        <ele>232.571884</ele>
        <time>2012-10-14T09:22:03Z</time>
      </trkpt>
      <trkpt lat="43.61883" lon="1.18586">
        <ele>232.985062</ele>
        <time>2012-10-14T09:22:11Z</time>
      </trkpt>
      <trkpt lat="43.61869" lon="1.18557">
        <ele>233.29187</ele>
        <time>2012-10-14T09:22:17Z</time>
      </trkpt>
      <trkpt lat="43.61863" lon="1.18552">
        <ele>234.167496</ele>
        <time>2012-10-14T09:22:19Z</time>
      </trkpt>
      <trkpt lat="43.61848" lon="1.1853">
        <ele>235.724167</ele>
        <time>2012-10-14T09:22:27Z</time>
      </trkpt>
      <trkpt lat="43.61845" lon="1.18528">
        <ele>236.081726</ele>
        <time>2012-10-14T09:22:28Z</time>
      </trkpt>
      <trkpt lat="43.61837" lon="1.1849">
        <ele>235.37413</ele>
        <time>2012-10-14T09:22:37Z</time>
      </trkpt>
      <trkpt lat="43.61833" lon="1.18485">
        <ele>235.460571</ele>
        <time>2012-10-14T09:22:38Z</time>
      </trkpt>
      <trkpt lat="43.61829" lon="1.18481">
        <ele>235.550003</ele>
        <time>2012-10-14T09:22:39Z</time>
      </trkpt>
      <trkpt lat="43.61825" lon="1.18476">
        <ele>235.742493</ele>
        <time>2012-10-14T09:22:40Z</time>
      </trkpt>
      <trkpt lat="43.61821" lon="1.1847">
        <ele>235.966003</ele>
        <time>2012-10-14T09:22:41Z</time>
      </trkpt>
      <trkpt lat="43.61804" lon="1.18448">
        <ele>236.634521</ele>
        <time>2012-10-14T09:22:45Z</time>
      </trkpt>
      <trkpt lat="43.618" lon="1.18444">
        <ele>236.767883</ele>
        <time>2012-10-14T09:22:46Z</time>
      </trkpt>
      <trkpt lat="43.61798" lon="1.18442">
        <ele>236.80072</ele>
        <time>2012-10-14T09:22:47Z</time>
      </trkpt>
      <trkpt lat="43.61797" lon="1.1844">
        <ele>236.824829</ele>
        <time>2012-10-14T09:22:48Z</time>
      </trkpt>
      <trkpt lat="43.61794" lon="1.18437">
        <ele>236.912292</ele>
        <time>2012-10-14T09:22:49Z</time>
      </trkpt>
      <trkpt lat="43.61791" lon="1.18435">
        <ele>237.121231</ele>
        <time>2012-10-14T09:22:50Z</time>
      </trkpt>
      <trkpt lat="43.61787" lon="1.18432">
        <ele>237.319855</ele>
        <time>2012-10-14T09:22:51Z</time>
      </trkpt>
      <trkpt lat="43.61783" lon="1.18429">
        <ele>237.518036</ele>
        <time>2012-10-14T09:22:52Z</time>
      </trkpt>
      <trkpt lat="43.61779" lon="1.18427">
        <ele>237.768417</ele>
        <time>2012-10-14T09:22:53Z</time>
      </trkpt>
      <trkpt lat="43.61776" lon="1.18424">
        <ele>237.985596</ele>
        <time>2012-10-14T09:22:54Z</time>
      </trkpt>
      <trkpt lat="43.61772" lon="1.1842">
        <ele>238.163803</ele>
        <time>2012-10-14T09:22:55Z</time>
      </trkpt>
      <trkpt lat="43.61768" lon="1.18415">
        <ele>238.300552</ele>
        <time>2012-10-14T09:22:56Z</time>
      </trkpt>
      <trkpt lat="43.61766" lon="1.1841">
        <ele>238.287506</ele>
        <time>2012-10-14T09:22:57Z</time>
      </trkpt>
      <trkpt lat="43.61764" lon="1.18404">
        <ele>238.180618</ele>
        <time>2012-10-14T09:22:58Z</time>
      </trkpt>
      <trkpt lat="43.61763" lon="1.18398">
        <ele>238.113129</ele>
        <time>2012-10-14T09:22:59Z</time>
      </trkpt>
      <trkpt lat="43.61759" lon="1.18393">
        <ele>238.287506</ele>
        <time>2012-10-14T09:23:00Z</time>
      </trkpt>
      <trkpt lat="43.61755" lon="1.18388">
        <ele>238.621246</ele>
        <time>2012-10-14T09:23:01Z</time>
      </trkpt>
      <trkpt lat="43.61742" lon="1.18371">
        <ele>239.481873</ele>
        <time>2012-10-14T09:23:04Z</time>
      </trkpt>
      <trkpt lat="43.6174" lon="1.18365">
        <ele>239.553131</ele>
        <time>2012-10-14T09:23:05Z</time>
      </trkpt>
      <trkpt lat="43.61736" lon="1.1836">
        <ele>239.733124</ele>
        <time>2012-10-14T09:23:06Z</time>
      </trkpt>
      <trkpt lat="43.61732" lon="1.18355">
        <ele>239.927856</ele>
        <time>2012-10-14T09:23:07Z</time>
      </trkpt>
      <trkpt lat="43.61728" lon="1.18349">
        <ele>240.078751</ele>
        <time>2012-10-14T09:23:08Z</time>
      </trkpt>
      <trkpt lat="43.61724" lon="1.18344">
        <ele>240.201874</ele>
        <time>2012-10-14T09:23:09Z</time>
      </trkpt>
      <trkpt lat="43.61721" lon="1.18339">
        <ele>240.271881</ele>
        <time>2012-10-14T09:23:10Z</time>
      </trkpt>
      <trkpt lat="43.61715" lon="1.18322">
        <ele>240.134995</ele>
        <time>2012-10-14T09:23:14Z</time>
      </trkpt>
      <trkpt lat="43.61714" lon="1.18317">
        <ele>239.996872</ele>
        <time>2012-10-14T09:23:15Z</time>
      </trkpt>
      <trkpt lat="43.61712" lon="1.18312">
        <ele>240.006882</ele>
        <time>2012-10-14T09:23:16Z</time>
      </trkpt>
      <trkpt lat="43.6171" lon="1.18309">
        <ele>240.046249</ele>
        <time>2012-10-14T09:23:17Z</time>
      </trkpt>
      <trkpt lat="43.61706" lon="1.18306">
        <ele>240.305008</ele>
        <time>2012-10-14T09:23:38Z</time>
      </trkpt>
      <trkpt lat="43.61706" lon="1.183">
        <ele>240.070618</ele>
        <time>2012-10-14T09:24:41Z</time>
      </trkpt>
      <trkpt lat="43.61707" lon="1.18294">
        <ele>239.64563</ele>
        <time>2012-10-14T09:24:42Z</time>
      </trkpt>
      <trkpt lat="43.61706" lon="1.18286">
        <ele>239.351868</ele>
        <time>2012-10-14T09:24:43Z</time>
      </trkpt>
      <trkpt lat="43.61705" lon="1.1828">
        <ele>239.274368</ele>
        <time>2012-10-14T09:24:44Z</time>
      </trkpt>
      <trkpt lat="43.61702" lon="1.18274">
        <ele>239.231995</ele>
        <time>2012-10-14T09:24:45Z</time>
      </trkpt>
      <trkpt lat="43.617" lon="1.18267">
        <ele>239.163666</ele>
        <time>2012-10-14T09:24:46Z</time>
      </trkpt>
      <trkpt lat="43.61698" lon="1.18261">
        <ele>239.089996</ele>
        <time>2012-10-14T09:24:47Z</time>
      </trkpt>
      <trkpt lat="43.61691" lon="1.18243">
        <ele>238.819397</ele>
        <time>2012-10-14T09:24:50Z</time>
      </trkpt>
      <trkpt lat="43.61687" lon="1.18238">
        <ele>239.02951</ele>
        <time>2012-10-14T09:24:51Z</time>
      </trkpt>
      <trkpt lat="43.61677" lon="1.18224">
        <ele>239.436676</ele>
        <time>2012-10-14T09:24:54Z</time>
      </trkpt>
      <trkpt lat="43.61668" lon="1.18197">
        <ele>238.771194</ele>
        <time>2012-10-14T09:25:00Z</time>
      </trkpt>
      <trkpt lat="43.61642" lon="1.18159">
        <ele>238.404755</ele>
        <time>2012-10-14T09:25:08Z</time>
      </trkpt>
      <trkpt lat="43.61639" lon="1.18158">
        <ele>238.667038</ele>
        <time>2012-10-14T09:25:09Z</time>
      </trkpt>
      <trkpt lat="43.61636" lon="1.18157">
        <ele>238.934235</ele>
        <time>2012-10-14T09:25:10Z</time>
      </trkpt>
      <trkpt lat="43.61632" lon="1.18155">
        <ele>239.18924</ele>
        <time>2012-10-14T09:25:11Z</time>
      </trkpt>
      <trkpt lat="43.61629" lon="1.18152">
        <ele>239.30899</ele>
        <time>2012-10-14T09:25:12Z</time>
      </trkpt>
      <trkpt lat="43.61626" lon="1.1815">
        <ele>239.44957</ele>
        <time>2012-10-14T09:25:13Z</time>
      </trkpt>
      <trkpt lat="43.61623" lon="1.18149">
        <ele>239.651047</ele>
        <time>2012-10-14T09:25:14Z</time>
      </trkpt>
      <trkpt lat="43.6162" lon="1.18149">
        <ele>239.830093</ele>
        <time>2012-10-14T09:25:15Z</time>
      </trkpt>
      <trkpt lat="43.61617" lon="1.18148">
        <ele>239.977753</ele>
        <time>2012-10-14T09:25:16Z</time>
      </trkpt>
      <trkpt lat="43.61613" lon="1.18147">
        <ele>240.139923</ele>
        <time>2012-10-14T09:25:17Z</time>
      </trkpt>
      <trkpt lat="43.6161" lon="1.18147">
        <ele>240.325272</ele>
        <time>2012-10-14T09:25:18Z</time>
      </trkpt>
      <trkpt lat="43.61606" lon="1.18146">
        <ele>240.448029</ele>
        <time>2012-10-14T09:25:19Z</time>
      </trkpt>
      <trkpt lat="43.61602" lon="1.18143">
        <ele>240.421432</ele>
        <time>2012-10-14T09:25:20Z</time>
      </trkpt>
      <trkpt lat="43.61599" lon="1.18139">
        <ele>240.275345</ele>
        <time>2012-10-14T09:25:21Z</time>
      </trkpt>
      <trkpt lat="43.61596" lon="1.18135">
        <ele>239.972473</ele>
        <time>2012-10-14T09:25:22Z</time>
      </trkpt>
      <trkpt lat="43.61594" lon="1.1813">
        <ele>239.739594</ele>
        <time>2012-10-14T09:25:23Z</time>
      </trkpt>
      <trkpt lat="43.61576" lon="1.18107">
        <ele>238.709641</ele>
        <time>2012-10-14T09:25:29Z</time>
      </trkpt>
      <trkpt lat="43.61573" lon="1.18105">
        <ele>238.974258</ele>
        <time>2012-10-14T09:25:30Z</time>
      </trkpt>
      <trkpt lat="43.61569" lon="1.18105">
        <ele>239.205154</ele>
        <time>2012-10-14T09:25:31Z</time>
      </trkpt>
      <trkpt lat="43.61566" lon="1.18105">
        <ele>239.386429</ele>
        <time>2012-10-14T09:25:32Z</time>
      </trkpt>
      <trkpt lat="43.61563" lon="1.18104">
        <ele>239.56778</ele>
        <time>2012-10-14T09:25:34Z</time>
      </trkpt>
      <trkpt lat="43.61561" lon="1.18102">
        <ele>239.659882</ele>
        <time>2012-10-14T09:25:35Z</time>
      </trkpt>
      <trkpt lat="43.61553" lon="1.1809">
        <ele>239.857285</ele>
        <time>2012-10-14T09:25:41Z</time>
      </trkpt>
      <trkpt lat="43.61551" lon="1.18072">
        <ele>239.524994</ele>
        <time>2012-10-14T09:25:48Z</time>
      </trkpt>
      <trkpt lat="43.61535" lon="1.18069">
        <ele>239.700409</ele>
        <time>2012-10-14T09:25:56Z</time>
      </trkpt>
      <trkpt lat="43.61529" lon="1.1806">
        <ele>239.227509</ele>
        <time>2012-10-14T09:25:59Z</time>
      </trkpt>
      <trkpt lat="43.61514" lon="1.18047">
        <ele>238.118362</ele>
        <time>2012-10-14T09:26:04Z</time>
      </trkpt>
      <trkpt lat="43.6151" lon="1.1804">
        <ele>238.556747</ele>
        <time>2012-10-14T09:26:06Z</time>
      </trkpt>
      <trkpt lat="43.61486" lon="1.18041">
        <ele>239.274185</ele>
        <time>2012-10-14T09:26:15Z</time>
      </trkpt>
      <trkpt lat="43.61474" lon="1.18034">
        <ele>239.618637</ele>
        <time>2012-10-14T09:26:20Z</time>
      </trkpt>
      <trkpt lat="43.61471" lon="1.18019">
        <ele>239.565475</ele>
        <time>2012-10-14T09:26:24Z</time>
      </trkpt>
      <trkpt lat="43.61448" lon="1.1799">
        <ele>240.284683</ele>
        <time>2012-10-14T09:26:32Z</time>
      </trkpt>
      <trkpt lat="43.61418" lon="1.17961">
        <ele>241.275497</ele>
        <time>2012-10-14T09:26:40Z</time>
      </trkpt>
      <trkpt lat="43.61398" lon="1.17966">
        <ele>242.737061</ele>
        <time>2012-10-14T09:26:46Z</time>
      </trkpt>
      <trkpt lat="43.61392" lon="1.17962">
        <ele>242.87207</ele>
        <time>2012-10-14T09:26:48Z</time>
      </trkpt>
      <trkpt lat="43.61377" lon="1.17948">
        <ele>242.59697</ele>
        <time>2012-10-14T09:26:53Z</time>
      </trkpt>
      <trkpt lat="43.61376" lon="1.17926">
        <ele>240.981247</ele>
        <time>2012-10-14T09:26:58Z</time>
      </trkpt>
      <trkpt lat="43.61366" lon="1.17912">
        <ele>241.708496</ele>
        <time>2012-10-14T09:27:01Z</time>
      </trkpt>
      <trkpt lat="43.61344" lon="1.17899">
        <ele>243.071411</ele>
        <time>2012-10-14T09:27:07Z</time>
      </trkpt>
      <trkpt lat="43.61343" lon="1.17897">
        <ele>243.084427</ele>
        <time>2012-10-14T09:27:08Z</time>
      </trkpt>
      <trkpt lat="43.61335" lon="1.17871">
        <ele>242.911713</ele>
        <time>2012-10-14T09:27:15Z</time>
      </trkpt>
      <trkpt lat="43.61332" lon="1.17864">
        <ele>242.838058</ele>
        <time>2012-10-14T09:27:17Z</time>
      </trkpt>
      <trkpt lat="43.61322" lon="1.17852">
        <ele>243.417404</ele>
        <time>2012-10-14T09:27:20Z</time>
      </trkpt>
      <trkpt lat="43.61301" lon="1.1782">
        <ele>243.925247</ele>
        <time>2012-10-14T09:27:27Z</time>
      </trkpt>
      <trkpt lat="43.61283" lon="1.17798">
        <ele>243.920135</ele>
        <time>2012-10-14T09:27:35Z</time>
      </trkpt>
      <trkpt lat="43.61261" lon="1.1778">
        <ele>245.627747</ele>
        <time>2012-10-14T09:27:42Z</time>
      </trkpt>
      <trkpt lat="43.6126" lon="1.17778">
        <ele>245.739731</ele>
        <time>2012-10-14T09:27:43Z</time>
      </trkpt>
      <trkpt lat="43.61254" lon="1.17756">
        <ele>245.398727</ele>
        <time>2012-10-14T09:27:49Z</time>
      </trkpt>
      <trkpt lat="43.61254" lon="1.17733">
        <ele>244.869461</ele>
        <time>2012-10-14T09:27:53Z</time>
      </trkpt>
      <trkpt lat="43.61245" lon="1.1772">
        <ele>245.04509</ele>
        <time>2012-10-14T09:27:57Z</time>
      </trkpt>
      <trkpt lat="43.61229" lon="1.17702">
        <ele>245.529999</ele>
        <time>2012-10-14T09:28:01Z</time>
      </trkpt>
      <trkpt lat="43.612" lon="1.17666">
        <ele>247.378403</ele>
        <time>2012-10-14T09:28:09Z</time>
      </trkpt>
      <trkpt lat="43.61198" lon="1.1766">
        <ele>247.162048</ele>
        <time>2012-10-14T09:28:41Z</time>
      </trkpt>
      <trkpt lat="43.61198" lon="1.1766">
        <ele>247.162048</ele>
        <time>2012-10-14T09:28:50Z</time>
      </trkpt>
      <trkpt lat="43.61188" lon="1.17638">
        <ele>246.389999</ele>
        <time>2012-10-14T09:28:58Z</time>
      </trkpt>
      <trkpt lat="43.61174" lon="1.17613">
        <ele>246.679169</ele>
        <time>2012-10-14T09:29:04Z</time>
      </trkpt>
      <trkpt lat="43.61158" lon="1.17595">
        <ele>247.347504</ele>
        <time>2012-10-14T09:29:09Z</time>
      </trkpt>
      <trkpt lat="43.61151" lon="1.17593">
        <ele>247.435333</ele>
        <time>2012-10-14T09:29:10Z</time>
      </trkpt>
      <trkpt lat="43.6113" lon="1.17573">
        <ele>247.996506</ele>
        <time>2012-10-14T09:29:16Z</time>
      </trkpt>
      <trkpt lat="43.61123" lon="1.17563">
        <ele>248.112183</ele>
        <time>2012-10-14T09:29:18Z</time>
      </trkpt>
      <trkpt lat="43.61121" lon="1.17557">
        <ele>248.23172</ele>
        <time>2012-10-14T09:29:19Z</time>
      </trkpt>
      <trkpt lat="43.61119" lon="1.1755">
        <ele>248.370407</ele>
        <time>2012-10-14T09:29:20Z</time>
      </trkpt>
      <trkpt lat="43.61117" lon="1.17544">
        <ele>248.44873</ele>
        <time>2012-10-14T09:29:21Z</time>
      </trkpt>
      <trkpt lat="43.61115" lon="1.17539">
        <ele>248.502151</ele>
        <time>2012-10-14T09:29:22Z</time>
      </trkpt>
      <trkpt lat="43.61113" lon="1.17534">
        <ele>248.506195</ele>
        <time>2012-10-14T09:29:23Z</time>
      </trkpt>
      <trkpt lat="43.61111" lon="1.17526">
        <ele>248.477127</ele>
        <time>2012-10-14T09:29:25Z</time>
      </trkpt>
      <trkpt lat="43.61102" lon="1.17515">
        <ele>248.479889</ele>
        <time>2012-10-14T09:29:27Z</time>
      </trkpt>
      <trkpt lat="43.61091" lon="1.17509">
        <ele>249.365402</ele>
        <time>2012-10-14T09:29:29Z</time>
      </trkpt>
      <trkpt lat="43.61064" lon="1.17485">
        <ele>251.228745</ele>
        <time>2012-10-14T09:29:38Z</time>
      </trkpt>
      <trkpt lat="43.61059" lon="1.17479">
        <ele>251.132889</ele>
        <time>2012-10-14T09:29:55Z</time>
      </trkpt>
      <trkpt lat="43.61059" lon="1.17479">
        <ele>251.132889</ele>
        <time>2012-10-14T09:30:00Z</time>
      </trkpt>
      <trkpt lat="43.61051" lon="1.17462">
        <ele>250.294495</ele>
        <time>2012-10-14T09:30:08Z</time>
      </trkpt>
      <trkpt lat="43.61038" lon="1.17456">
        <ele>250.799805</ele>
        <time>2012-10-14T09:30:13Z</time>
      </trkpt>
      <trkpt lat="43.61003" lon="1.17429">
        <ele>251.901352</ele>
        <time>2012-10-14T09:30:23Z</time>
      </trkpt>
      <trkpt lat="43.60968" lon="1.17408">
        <ele>252.836945</ele>
        <time>2012-10-14T09:30:31Z</time>
      </trkpt>
      <trkpt lat="43.60947" lon="1.17392">
        <ele>251.95108</ele>
        <time>2012-10-14T09:30:37Z</time>
      </trkpt>
      <trkpt lat="43.60938" lon="1.17386">
        <ele>251.821716</ele>
        <time>2012-10-14T09:30:39Z</time>
      </trkpt>
      <trkpt lat="43.60919" lon="1.17376">
        <ele>252.056976</ele>
        <time>2012-10-14T09:30:43Z</time>
      </trkpt>
      <trkpt lat="43.60886" lon="1.17372">
        <ele>255.93454</ele>
        <time>2012-10-14T09:30:51Z</time>
      </trkpt>
      <trkpt lat="43.6087" lon="1.17372">
        <ele>257.818634</ele>
        <time>2012-10-14T09:30:58Z</time>
      </trkpt>
      <trkpt lat="43.60843" lon="1.17354">
        <ele>258.944275</ele>
        <time>2012-10-14T09:31:07Z</time>
      </trkpt>
      <trkpt lat="43.60835" lon="1.17348">
        <ele>259.213379</ele>
        <time>2012-10-14T09:31:10Z</time>
      </trkpt>
      <trkpt lat="43.60826" lon="1.17338">
        <ele>258.884674</ele>
        <time>2012-10-14T09:31:14Z</time>
      </trkpt>
      <trkpt lat="43.60812" lon="1.17328">
        <ele>258.27359</ele>
        <time>2012-10-14T09:31:18Z</time>
      </trkpt>
      <trkpt lat="43.60774" lon="1.17312">
        <ele>258.2966</ele>
        <time>2012-10-14T09:31:27Z</time>
      </trkpt>
      <trkpt lat="43.6076" lon="1.17287">
        <ele>257.574219</ele>
        <time>2012-10-14T09:31:32Z</time>
      </trkpt>
      <trkpt lat="43.60743" lon="1.17249">
        <ele>256.26532</ele>
        <time>2012-10-14T09:31:41Z</time>
      </trkpt>
      <trkpt lat="43.60734" lon="1.17232">
        <ele>256.964508</ele>
        <time>2012-10-14T09:31:48Z</time>
      </trkpt>
      <trkpt lat="43.60735" lon="1.17217">
        <ele>257.081299</ele>
        <time>2012-10-14T09:31:52Z</time>
      </trkpt>
      <trkpt lat="43.60728" lon="1.17189">
        <ele>258.39328</ele>
        <time>2012-10-14T09:31:57Z</time>
      </trkpt>
      <trkpt lat="43.60722" lon="1.17178">
        <ele>259.163147</ele>
        <time>2012-10-14T09:31:59Z</time>
      </trkpt>
      <trkpt lat="43.60707" lon="1.17156">
        <ele>260.120941</ele>
        <time>2012-10-14T09:32:03Z</time>
      </trkpt>
      <trkpt lat="43.607" lon="1.17137">
        <ele>260.002075</ele>
        <time>2012-10-14T09:32:07Z</time>
      </trkpt>
      <trkpt lat="43.60687" lon="1.171">
        <ele>259.690979</ele>
        <time>2012-10-14T09:32:15Z</time>
      </trkpt>
      <trkpt lat="43.60682" lon="1.17092">
        <ele>259.807831</ele>
        <time>2012-10-14T09:32:17Z</time>
      </trkpt>
      <trkpt lat="43.60664" lon="1.17043">
        <ele>260.82843</ele>
        <time>2012-10-14T09:32:27Z</time>
      </trkpt>
      <trkpt lat="43.60663" lon="1.17019">
        <ele>261.272186</ele>
        <time>2012-10-14T09:32:32Z</time>
      </trkpt>
      <trkpt lat="43.60656" lon="1.16986">
        <ele>261.867523</ele>
        <time>2012-10-14T09:32:39Z</time>
      </trkpt>
      <trkpt lat="43.60659" lon="1.16971">
        <ele>262.396088</ele>
        <time>2012-10-14T09:32:42Z</time>
      </trkpt>
      <trkpt lat="43.60646" lon="1.16934">
        <ele>262.062988</ele>
        <time>2012-10-14T09:32:49Z</time>
      </trkpt>
      <trkpt lat="43.60639" lon="1.16923">
        <ele>262.457367</ele>
        <time>2012-10-14T09:32:52Z</time>
      </trkpt>
      <trkpt lat="43.6062" lon="1.16886">
        <ele>263.648529</ele>
        <time>2012-10-14T09:33:01Z</time>
      </trkpt>
      <trkpt lat="43.60614" lon="1.16879">
        <ele>263.94635</ele>
        <time>2012-10-14T09:33:03Z</time>
      </trkpt>
      <trkpt lat="43.60599" lon="1.16849">
        <ele>263.663757</ele>
        <time>2012-10-14T09:33:10Z</time>
      </trkpt>
      <trkpt lat="43.60595" lon="1.16837">
        <ele>263.736237</ele>
        <time>2012-10-14T09:33:12Z</time>
      </trkpt>
      <trkpt lat="43.60588" lon="1.16828">
        <ele>264.260376</ele>
        <time>2012-10-14T09:33:14Z</time>
      </trkpt>
      <trkpt lat="43.60584" lon="1.16821">
        <ele>264.722321</ele>
        <time>2012-10-14T09:33:15Z</time>
      </trkpt>
      <trkpt lat="43.60579" lon="1.16813">
        <ele>265.16452</ele>
        <time>2012-10-14T09:33:16Z</time>
      </trkpt>
      <trkpt lat="43.60574" lon="1.16807">
        <ele>265.448425</ele>
        <time>2012-10-14T09:33:17Z</time>
      </trkpt>
      <trkpt lat="43.60571" lon="1.16802">
        <ele>265.595398</ele>
        <time>2012-10-14T09:33:18Z</time>
      </trkpt>
      <trkpt lat="43.60551" lon="1.16778">
        <ele>265.638763</ele>
        <time>2012-10-14T09:33:24Z</time>
      </trkpt>
      <trkpt lat="43.60549" lon="1.16773">
        <ele>265.619385</ele>
        <time>2012-10-14T09:33:25Z</time>
      </trkpt>
      <trkpt lat="43.60546" lon="1.16768">
        <ele>265.681396</ele>
        <time>2012-10-14T09:33:26Z</time>
      </trkpt>
      <trkpt lat="43.60543" lon="1.16766">
        <ele>265.952271</ele>
        <time>2012-10-14T09:33:27Z</time>
      </trkpt>
      <trkpt lat="43.6054" lon="1.16763">
        <ele>266.172302</ele>
        <time>2012-10-14T09:33:28Z</time>
      </trkpt>
      <trkpt lat="43.60538" lon="1.16758">
        <ele>266.3237</ele>
        <time>2012-10-14T09:33:29Z</time>
      </trkpt>
      <trkpt lat="43.60535" lon="1.16752">
        <ele>266.424866</ele>
        <time>2012-10-14T09:33:30Z</time>
      </trkpt>
      <trkpt lat="43.60532" lon="1.16746">
        <ele>266.546631</ele>
        <time>2012-10-14T09:33:31Z</time>
      </trkpt>
      <trkpt lat="43.60521" lon="1.16732">
        <ele>266.746826</ele>
        <time>2012-10-14T09:33:34Z</time>
      </trkpt>
      <trkpt lat="43.60496" lon="1.16696">
        <ele>267.040375</ele>
        <time>2012-10-14T09:33:42Z</time>
      </trkpt>
      <trkpt lat="43.60492" lon="1.16689">
        <ele>267.369019</ele>
        <time>2012-10-14T09:33:44Z</time>
      </trkpt>
      <trkpt lat="43.60482" lon="1.16679">
        <ele>267.943634</ele>
        <time>2012-10-14T09:33:48Z</time>
      </trkpt>
      <trkpt lat="43.60469" lon="1.16665">
        <ele>268.327545</ele>
        <time>2012-10-14T09:33:52Z</time>
      </trkpt>
      <trkpt lat="43.60446" lon="1.16657">
        <ele>269.697937</ele>
        <time>2012-10-14T09:33:59Z</time>
      </trkpt>
      <trkpt lat="43.60431" lon="1.16648">
        <ele>270.751404</ele>
        <time>2012-10-14T09:34:04Z</time>
      </trkpt>
      <trkpt lat="43.60427" lon="1.16646">
        <ele>271.115967</ele>
        <time>2012-10-14T09:34:06Z</time>
      </trkpt>
      <trkpt lat="43.60418" lon="1.1664">
        <ele>271.804718</ele>
        <time>2012-10-14T09:34:10Z</time>
      </trkpt>
      <trkpt lat="43.60406" lon="1.16629">
        <ele>272.192505</ele>
        <time>2012-10-14T09:34:17Z</time>
      </trkpt>
      <trkpt lat="43.60403" lon="1.16626">
        <ele>272.276245</ele>
        <time>2012-10-14T09:34:19Z</time>
      </trkpt>
      <trkpt lat="43.60391" lon="1.16618">
        <ele>272.65625</ele>
        <time>2012-10-14T09:34:25Z</time>
      </trkpt>
      <trkpt lat="43.60378" lon="1.16605">
        <ele>273.038116</ele>
        <time>2012-10-14T09:34:33Z</time>
      </trkpt>
      <trkpt lat="43.60361" lon="1.16594">
        <ele>273.614349</ele>
        <time>2012-10-14T09:34:44Z</time>
      </trkpt>
      <trkpt lat="43.60356" lon="1.16594">
        <ele>273.827393</ele>
        <time>2012-10-14T09:34:46Z</time>
      </trkpt>
      <trkpt lat="43.6033" lon="1.16589">
        <ele>274.915955</ele>
        <time>2012-10-14T09:34:59Z</time>
      </trkpt>
      <trkpt lat="43.60304" lon="1.16588">
        <ele>276.515625</ele>
        <time>2012-10-14T09:35:11Z</time>
      </trkpt>
      <trkpt lat="43.60302" lon="1.16587">
        <ele>276.658752</ele>
        <time>2012-10-14T09:35:12Z</time>
      </trkpt>
      <trkpt lat="43.60271" lon="1.16578">
        <ele>278.347748</ele>
        <time>2012-10-14T09:35:25Z</time>
      </trkpt>
      <trkpt lat="43.60266" lon="1.16577">
        <ele>278.579742</ele>
        <time>2012-10-14T09:35:27Z</time>
      </trkpt>
      <trkpt lat="43.60235" lon="1.16586">
        <ele>280.095001</ele>
        <time>2012-10-14T09:35:40Z</time>
      </trkpt>
      <trkpt lat="43.60212" lon="1.16596">
        <ele>281.057617</ele>
        <time>2012-10-14T09:35:50Z</time>
      </trkpt>
      <trkpt lat="43.60193" lon="1.166">
        <ele>281.791565</ele>
        <time>2012-10-14T09:35:58Z</time>
      </trkpt>
      <trkpt lat="43.60155" lon="1.16613">
        <ele>283.32251</ele>
        <time>2012-10-14T09:36:11Z</time>
      </trkpt>
      <trkpt lat="43.6013" lon="1.16595">
        <ele>284.320618</ele>
        <time>2012-10-14T09:36:22Z</time>
      </trkpt>
      <trkpt lat="43.60122" lon="1.16597">
        <ele>284.46875</ele>
        <time>2012-10-14T09:36:25Z</time>
      </trkpt>
      <trkpt lat="43.60105" lon="1.16607">
        <ele>284.70874</ele>
        <time>2012-10-14T09:36:32Z</time>
      </trkpt>
      <trkpt lat="43.60071" lon="1.16612">
        <ele>284.68811</ele>
        <time>2012-10-14T09:36:42Z</time>
      </trkpt>
      <trkpt lat="43.60058" lon="1.16638">
        <ele>284.27063</ele>
        <time>2012-10-14T09:36:51Z</time>
      </trkpt>
      <trkpt lat="43.60055" lon="1.16644">
        <ele>284.134369</ele>
        <time>2012-10-14T09:36:53Z</time>
      </trkpt>
      <trkpt lat="43.60027" lon="1.16694">
        <ele>282.688751</ele>
        <time>2012-10-14T09:37:05Z</time>
      </trkpt>
      <trkpt lat="43.60024" lon="1.16705">
        <ele>282.438751</ele>
        <time>2012-10-14T09:37:07Z</time>
      </trkpt>
      <trkpt lat="43.60007" lon="1.16749">
        <ele>280.460938</ele>
        <time>2012-10-14T09:37:16Z</time>
      </trkpt>
      <trkpt lat="43.59978" lon="1.16763">
        <ele>277.600281</ele>
        <time>2012-10-14T09:37:24Z</time>
      </trkpt>
      <trkpt lat="43.59972" lon="1.16794">
        <ele>275.585571</ele>
        <time>2012-10-14T09:37:31Z</time>
      </trkpt>
      <trkpt lat="43.59974" lon="1.16851">
        <ele>272.519501</ele>
        <time>2012-10-14T09:37:43Z</time>
      </trkpt>
      <trkpt lat="43.59971" lon="1.16859">
        <ele>271.680267</ele>
        <time>2012-10-14T09:37:47Z</time>
      </trkpt>
      <trkpt lat="43.59966" lon="1.16865">
        <ele>270.541016</ele>
        <time>2012-10-14T09:37:50Z</time>
      </trkpt>
      <trkpt lat="43.59958" lon="1.16871">
        <ele>268.953308</ele>
        <time>2012-10-14T09:37:54Z</time>
      </trkpt>
      <trkpt lat="43.59951" lon="1.16875">
        <ele>267.634552</ele>
        <time>2012-10-14T09:37:58Z</time>
      </trkpt>
      <trkpt lat="43.59931" lon="1.16884">
        <ele>264.068512</ele>
        <time>2012-10-14T09:38:08Z</time>
      </trkpt>
      <trkpt lat="43.59928" lon="1.16888">
        <ele>263.42337</ele>
        <time>2012-10-14T09:38:12Z</time>
      </trkpt>
      <trkpt lat="43.59934" lon="1.16898">
        <ele>263.50885</ele>
        <time>2012-10-14T09:38:17Z</time>
      </trkpt>
      <trkpt lat="43.59922" lon="1.16929">
        <ele>259.263306</ele>
        <time>2012-10-14T09:38:24Z</time>
      </trkpt>
      <trkpt lat="43.59909" lon="1.16967">
        <ele>254.878296</ele>
        <time>2012-10-14T09:38:34Z</time>
      </trkpt>
      <trkpt lat="43.59892" lon="1.16958">
        <ele>254.295242</ele>
        <time>2012-10-14T09:38:42Z</time>
      </trkpt>
      <trkpt lat="43.59879" lon="1.16959">
        <ele>253.277847</ele>
        <time>2012-10-14T09:38:46Z</time>
      </trkpt>
      <trkpt lat="43.59857" lon="1.1696">
        <ele>251.642792</ele>
        <time>2012-10-14T09:38:51Z</time>
      </trkpt>
      <trkpt lat="43.59795" lon="1.1695">
        <ele>247.895721</ele>
        <time>2012-10-14T09:39:00Z</time>
      </trkpt>
      <trkpt lat="43.59693" lon="1.16925">
        <ele>240.003906</ele>
        <time>2012-10-14T09:39:12Z</time>
      </trkpt>
      <trkpt lat="43.59657" lon="1.16911">
        <ele>238.052673</ele>
        <time>2012-10-14T09:39:17Z</time>
      </trkpt>
      <trkpt lat="43.59577" lon="1.16884">
        <ele>233.764999</ele>
        <time>2012-10-14T09:39:28Z</time>
      </trkpt>
      <trkpt lat="43.59551" lon="1.16874">
        <ele>231.987503</ele>
        <time>2012-10-14T09:39:32Z</time>
      </trkpt>
      <trkpt lat="43.59517" lon="1.16859">
        <ele>230.068405</ele>
        <time>2012-10-14T09:39:40Z</time>
      </trkpt>
      <trkpt lat="43.59501" lon="1.16883">
        <ele>230.004425</ele>
        <time>2012-10-14T09:39:48Z</time>
      </trkpt>
      <trkpt lat="43.59485" lon="1.16903">
        <ele>229.479767</ele>
        <time>2012-10-14T09:39:53Z</time>
      </trkpt>
      <trkpt lat="43.59466" lon="1.16926">
        <ele>229.426285</ele>
        <time>2012-10-14T09:39:58Z</time>
      </trkpt>
      <trkpt lat="43.59452" lon="1.16956">
        <ele>229.221207</ele>
        <time>2012-10-14T09:40:03Z</time>
      </trkpt>
      <trkpt lat="43.59439" lon="1.16979">
        <ele>228.748001</ele>
        <time>2012-10-14T09:40:07Z</time>
      </trkpt>
      <trkpt lat="43.59426" lon="1.16991">
        <ele>228.659271</ele>
        <time>2012-10-14T09:40:10Z</time>
      </trkpt>
      <trkpt lat="43.59415" lon="1.17011">
        <ele>228.332367</ele>
        <time>2012-10-14T09:40:14Z</time>
      </trkpt>
      <trkpt lat="43.59397" lon="1.1703">
        <ele>228.217499</ele>
        <time>2012-10-14T09:40:19Z</time>
      </trkpt>
      <trkpt lat="43.59388" lon="1.17031">
        <ele>228.595367</ele>
        <time>2012-10-14T09:40:22Z</time>
      </trkpt>
      <trkpt lat="43.59354" lon="1.17048">
        <ele>227.722351</ele>
        <time>2012-10-14T09:40:33Z</time>
      </trkpt>
      <trkpt lat="43.59337" lon="1.17056">
        <ele>227.639999</ele>
        <time>2012-10-14T09:40:37Z</time>
      </trkpt>
      <trkpt lat="43.59295" lon="1.17071">
        <ele>228.311905</ele>
        <time>2012-10-14T09:40:49Z</time>
      </trkpt>
      <trkpt lat="43.59291" lon="1.17065">
        <ele>228.759705</ele>
        <time>2012-10-14T09:41:01Z</time>
      </trkpt>
      <trkpt lat="43.5929" lon="1.17063">
        <ele>228.848083</ele>
        <time>2012-10-14T09:41:04Z</time>
      </trkpt>
      <trkpt lat="43.59288" lon="1.17058">
        <ele>229.109573</ele>
        <time>2012-10-14T09:41:14Z</time>
      </trkpt>
      <trkpt lat="43.59287" lon="1.17055">
        <ele>229.229889</ele>
        <time>2012-10-14T09:41:18Z</time>
      </trkpt>
      <trkpt lat="43.59278" lon="1.1704">
        <ele>229.918015</ele>
        <time>2012-10-14T09:41:30Z</time>
      </trkpt>
      <trkpt lat="43.5927" lon="1.17028">
        <ele>230.265366</ele>
        <time>2012-10-14T09:41:40Z</time>
      </trkpt>
      <trkpt lat="43.59272" lon="1.17015">
        <ele>230.272125</ele>
        <time>2012-10-14T09:41:53Z</time>
      </trkpt>
      <trkpt lat="43.59271" lon="1.17011">
        <ele>230.289032</ele>
        <time>2012-10-14T09:41:58Z</time>
      </trkpt>
      <trkpt lat="43.5926" lon="1.16974">
        <ele>230.40538</ele>
        <time>2012-10-14T09:42:13Z</time>
      </trkpt>
      <trkpt lat="43.59244" lon="1.16933">
        <ele>232.006607</ele>
        <time>2012-10-14T09:42:29Z</time>
      </trkpt>
      <trkpt lat="43.59219" lon="1.16911">
        <ele>233.588181</ele>
        <time>2012-10-14T09:42:42Z</time>
      </trkpt>
      <trkpt lat="43.59203" lon="1.16879">
        <ele>234.282303</ele>
        <time>2012-10-14T09:42:54Z</time>
      </trkpt>
      <trkpt lat="43.5919" lon="1.16859">
        <ele>235.386032</ele>
        <time>2012-10-14T09:43:03Z</time>
      </trkpt>
      <trkpt lat="43.59187" lon="1.16834">
        <ele>236.208618</ele>
        <time>2012-10-14T09:43:12Z</time>
      </trkpt>
      <trkpt lat="43.59174" lon="1.16798">
        <ele>236.993546</ele>
        <time>2012-10-14T09:43:26Z</time>
      </trkpt>
      <trkpt lat="43.59153" lon="1.16764">
        <ele>237.969376</ele>
        <time>2012-10-14T09:43:40Z</time>
      </trkpt>
      <trkpt lat="43.59135" lon="1.16731">
        <ele>239.264359</ele>
        <time>2012-10-14T09:43:54Z</time>
      </trkpt>
      <trkpt lat="43.59116" lon="1.16699">
        <ele>240.043167</ele>
        <time>2012-10-14T09:44:08Z</time>
      </trkpt>
      <trkpt lat="43.59098" lon="1.16657">
        <ele>241.436905</ele>
        <time>2012-10-14T09:44:24Z</time>
      </trkpt>
      <trkpt lat="43.59087" lon="1.16621">
        <ele>242.703018</ele>
        <time>2012-10-14T09:44:37Z</time>
      </trkpt>
      <trkpt lat="43.59083" lon="1.16593">
        <ele>243.688156</ele>
        <time>2012-10-14T09:44:47Z</time>
      </trkpt>
      <trkpt lat="43.59075" lon="1.16576">
        <ele>243.673477</ele>
        <time>2012-10-14T09:44:54Z</time>
      </trkpt>
      <trkpt lat="43.59064" lon="1.16533">
        <ele>245.067993</ele>
        <time>2012-10-14T09:45:09Z</time>
      </trkpt>
      <trkpt lat="43.59057" lon="1.16497">
        <ele>246.943054</ele>
        <time>2012-10-14T09:45:22Z</time>
      </trkpt>
      <trkpt lat="43.59049" lon="1.16461">
        <ele>247.450119</ele>
        <time>2012-10-14T09:45:35Z</time>
      </trkpt>
      <trkpt lat="43.59046" lon="1.1642">
        <ele>248.291092</ele>
        <time>2012-10-14T09:45:49Z</time>
      </trkpt>
      <trkpt lat="43.59043" lon="1.16366">
        <ele>249.49437</ele>
        <time>2012-10-14T09:46:06Z</time>
      </trkpt>
      <trkpt lat="43.59043" lon="1.16318">
        <ele>250.298126</ele>
        <time>2012-10-14T09:46:20Z</time>
      </trkpt>
      <trkpt lat="43.59051" lon="1.16257">
        <ele>251.936249</ele>
        <time>2012-10-14T09:46:37Z</time>
      </trkpt>
      <trkpt lat="43.59061" lon="1.16184">
        <ele>253.14415</ele>
        <time>2012-10-14T09:46:57Z</time>
      </trkpt>
      <trkpt lat="43.59067" lon="1.16126">
        <ele>254.209106</ele>
        <time>2012-10-14T09:47:13Z</time>
      </trkpt>
      <trkpt lat="43.59073" lon="1.1607">
        <ele>256.5336</ele>
        <time>2012-10-14T09:47:29Z</time>
      </trkpt>
      <trkpt lat="43.59085" lon="1.16023">
        <ele>257.537506</ele>
        <time>2012-10-14T09:47:43Z</time>
      </trkpt>
      <trkpt lat="43.59092" lon="1.15961">
        <ele>258.349976</ele>
        <time>2012-10-14T09:48:00Z</time>
      </trkpt>
      <trkpt lat="43.59099" lon="1.15897">
        <ele>259.637115</ele>
        <time>2012-10-14T09:48:16Z</time>
      </trkpt>
      <trkpt lat="43.5911" lon="1.15824">
        <ele>261.42688</ele>
        <time>2012-10-14T09:48:33Z</time>
      </trkpt>
      <trkpt lat="43.59106" lon="1.15789">
        <ele>262.393768</ele>
        <time>2012-10-14T09:48:45Z</time>
      </trkpt>
      <trkpt lat="43.59103" lon="1.15779">
        <ele>263.154602</ele>
        <time>2012-10-14T09:48:52Z</time>
      </trkpt>
      <trkpt lat="43.59112" lon="1.15744">
        <ele>265.32486</ele>
        <time>2012-10-14T09:49:05Z</time>
      </trkpt>
      <trkpt lat="43.59114" lon="1.15692">
        <ele>268.159302</ele>
        <time>2012-10-14T09:49:24Z</time>
      </trkpt>
      <trkpt lat="43.5911" lon="1.15641">
        <ele>269.488068</ele>
        <time>2012-10-14T09:49:42Z</time>
      </trkpt>
      <trkpt lat="43.59108" lon="1.15588">
        <ele>272.201172</ele>
        <time>2012-10-14T09:50:00Z</time>
      </trkpt>
      <trkpt lat="43.591" lon="1.1555">
        <ele>274.895355</ele>
        <time>2012-10-14T09:50:14Z</time>
      </trkpt>
      <trkpt lat="43.59087" lon="1.15509">
        <ele>278.142578</ele>
        <time>2012-10-14T09:50:31Z</time>
      </trkpt>
      <trkpt lat="43.59085" lon="1.15477">
        <ele>279.728088</ele>
        <time>2012-10-14T09:50:43Z</time>
      </trkpt>
      <trkpt lat="43.59086" lon="1.15442">
        <ele>281.139557</ele>
        <time>2012-10-14T09:50:56Z</time>
      </trkpt>
      <trkpt lat="43.59086" lon="1.15405">
        <ele>283.397491</ele>
        <time>2012-10-14T09:51:10Z</time>
      </trkpt>
      <trkpt lat="43.59088" lon="1.15393">
        <ele>283.987488</ele>
        <time>2012-10-14T09:51:15Z</time>
      </trkpt>
      <trkpt lat="43.5909" lon="1.15348">
        <ele>286.575684</ele>
        <time>2012-10-14T09:51:33Z</time>
      </trkpt>
      <trkpt lat="43.59074" lon="1.15336">
        <ele>288.492767</ele>
        <time>2012-10-14T09:51:45Z</time>
      </trkpt>
      <trkpt lat="43.59063" lon="1.15334">
        <ele>289.469025</ele>
        <time>2012-10-14T09:51:52Z</time>
      </trkpt>
      <trkpt lat="43.59057" lon="1.15312">
        <ele>290.859924</ele>
        <time>2012-10-14T09:52:05Z</time>
      </trkpt>
      <trkpt lat="43.59058" lon="1.1531">
        <ele>290.872192</ele>
        <time>2012-10-14T09:52:06Z</time>
      </trkpt>
      <trkpt lat="43.59062" lon="1.15275">
        <ele>291.353333</ele>
        <time>2012-10-14T09:52:19Z</time>
      </trkpt>
      <trkpt lat="43.59066" lon="1.15235">
        <ele>292.406403</ele>
        <time>2012-10-14T09:52:33Z</time>
      </trkpt>
      <trkpt lat="43.59081" lon="1.15177">
        <ele>294.4375</ele>
        <time>2012-10-14T09:52:49Z</time>
      </trkpt>
      <trkpt lat="43.59093" lon="1.15135">
        <ele>295.801239</ele>
        <time>2012-10-14T09:53:00Z</time>
      </trkpt>
      <trkpt lat="43.59097" lon="1.15118">
        <ele>296.334991</ele>
        <time>2012-10-14T09:53:05Z</time>
      </trkpt>
      <trkpt lat="43.59089" lon="1.15103">
        <ele>296.697113</ele>
        <time>2012-10-14T09:53:12Z</time>
      </trkpt>
      <trkpt lat="43.59049" lon="1.15086">
        <ele>295.869995</ele>
        <time>2012-10-14T09:53:29Z</time>
      </trkpt>
      <trkpt lat="43.59052" lon="1.15066">
        <ele>296.066864</ele>
        <time>2012-10-14T09:53:36Z</time>
      </trkpt>
      <trkpt lat="43.59054" lon="1.1506">
        <ele>296.241241</ele>
        <time>2012-10-14T09:53:39Z</time>
      </trkpt>
      <trkpt lat="43.59052" lon="1.1507">
        <ele>296.02417</ele>
        <time>2012-10-14T09:53:43Z</time>
      </trkpt>
      <trkpt lat="43.5905" lon="1.15076">
        <ele>295.929993</ele>
        <time>2012-10-14T09:53:45Z</time>
      </trkpt>
      <trkpt lat="43.59052" lon="1.15075">
        <ele>296.022156</ele>
        <time>2012-10-14T09:53:56Z</time>
      </trkpt>
      <trkpt lat="43.59053" lon="1.15073">
        <ele>296.05069</ele>
        <time>2012-10-14T09:54:02Z</time>
      </trkpt>
      <trkpt lat="43.59064" lon="1.15035">
        <ele>297.095642</ele>
        <time>2012-10-14T09:54:15Z</time>
      </trkpt>
      <trkpt lat="43.59069" lon="1.15012">
        <ele>297.684387</ele>
        <time>2012-10-14T09:54:21Z</time>
      </trkpt>
      <trkpt lat="43.59074" lon="1.14998">
        <ele>298.101624</ele>
        <time>2012-10-14T09:54:26Z</time>
      </trkpt>
      <trkpt lat="43.59086" lon="1.14959">
        <ele>299.16806</ele>
        <time>2012-10-14T09:54:39Z</time>
      </trkpt>
      <trkpt lat="43.59094" lon="1.14916">
        <ele>299.954987</ele>
        <time>2012-10-14T09:54:52Z</time>
      </trkpt>
      <trkpt lat="43.59081" lon="1.14867">
        <ele>299.309845</ele>
        <time>2012-10-14T09:55:03Z</time>
      </trkpt>
      <trkpt lat="43.5904" lon="1.14768">
        <ele>295.70874</ele>
        <time>2012-10-14T09:55:18Z</time>
      </trkpt>
      <trkpt lat="43.59019" lon="1.14719">
        <ele>294.667053</ele>
        <time>2012-10-14T09:55:24Z</time>
      </trkpt>
      <trkpt lat="43.59009" lon="1.14696">
        <ele>294.866425</ele>
        <time>2012-10-14T09:55:27Z</time>
      </trkpt>
      <trkpt lat="43.58993" lon="1.14658">
        <ele>295.995789</ele>
        <time>2012-10-14T09:55:34Z</time>
      </trkpt>
      <trkpt lat="43.58981" lon="1.14628">
        <ele>296.937622</ele>
        <time>2012-10-14T09:55:40Z</time>
      </trkpt>
      <trkpt lat="43.58942" lon="1.1455">
        <ele>298.679718</ele>
        <time>2012-10-14T09:55:57Z</time>
      </trkpt>
      <trkpt lat="43.58901" lon="1.14504">
        <ele>297.357513</ele>
        <time>2012-10-14T09:56:10Z</time>
      </trkpt>
      <trkpt lat="43.5889" lon="1.14495">
        <ele>296.891876</ele>
        <time>2012-10-14T09:56:13Z</time>
      </trkpt>
      <trkpt lat="43.58823" lon="1.14458">
        <ele>296.974609</ele>
        <time>2012-10-14T09:56:30Z</time>
      </trkpt>
      <trkpt lat="43.58756" lon="1.14418">
        <ele>299.944031</ele>
        <time>2012-10-14T09:56:46Z</time>
      </trkpt>
      <trkpt lat="43.58726" lon="1.14401">
        <ele>301</ele>
        <time>2012-10-14T09:56:53Z</time>
      </trkpt>
      <trkpt lat="43.58682" lon="1.14378">
        <ele>300.409027</ele>
        <time>2012-10-14T09:57:03Z</time>
      </trkpt>
      <trkpt lat="43.58595" lon="1.14329">
        <ele>297.347504</ele>
        <time>2012-10-14T09:57:21Z</time>
      </trkpt>
      <trkpt lat="43.58573" lon="1.14316">
        <ele>296.801392</ele>
        <time>2012-10-14T09:57:27Z</time>
      </trkpt>
      <trkpt lat="43.58572" lon="1.14307">
        <ele>296.101746</ele>
        <time>2012-10-14T09:57:32Z</time>
      </trkpt>
      <trkpt lat="43.58573" lon="1.14296">
        <ele>295.208801</ele>
        <time>2012-10-14T09:57:37Z</time>
      </trkpt>
      <trkpt lat="43.58558" lon="1.14275">
        <ele>294.366089</ele>
        <time>2012-10-14T09:57:49Z</time>
      </trkpt>
      <trkpt lat="43.58544" lon="1.14231">
        <ele>292.074646</ele>
        <time>2012-10-14T09:58:00Z</time>
      </trkpt>
      <trkpt lat="43.58544" lon="1.14227">
        <ele>291.825165</ele>
        <time>2012-10-14T09:58:01Z</time>
      </trkpt>
      <trkpt lat="43.58546" lon="1.14195">
        <ele>289.648651</ele>
        <time>2012-10-14T09:58:07Z</time>
      </trkpt>
      <trkpt lat="43.58563" lon="1.14126">
        <ele>284.5</ele>
        <time>2012-10-14T09:58:16Z</time>
      </trkpt>
      <trkpt lat="43.58564" lon="1.14111">
        <ele>284.200012</ele>
        <time>2012-10-14T09:58:18Z</time>
      </trkpt>
      <trkpt lat="43.58566" lon="1.14074">
        <ele>283.484497</ele>
        <time>2012-10-14T09:58:23Z</time>
      </trkpt>
      <trkpt lat="43.58561" lon="1.1401">
        <ele>282.431763</ele>
        <time>2012-10-14T09:58:32Z</time>
      </trkpt>
      <trkpt lat="43.58566" lon="1.13982">
        <ele>279.786285</ele>
        <time>2012-10-14T09:58:36Z</time>
      </trkpt>
      <trkpt lat="43.58583" lon="1.13953">
        <ele>275.565826</ele>
        <time>2012-10-14T09:58:41Z</time>
      </trkpt>
      <trkpt lat="43.58601" lon="1.13937">
        <ele>271.925629</ele>
        <time>2012-10-14T09:58:45Z</time>
      </trkpt>
      <trkpt lat="43.58611" lon="1.13926">
        <ele>269.867065</ele>
        <time>2012-10-14T09:58:48Z</time>
      </trkpt>
      <trkpt lat="43.5862" lon="1.13913">
        <ele>267.975037</ele>
        <time>2012-10-14T09:58:52Z</time>
      </trkpt>
      <trkpt lat="43.58628" lon="1.13911">
        <ele>267.036285</ele>
        <time>2012-10-14T09:58:54Z</time>
      </trkpt>
      <trkpt lat="43.58642" lon="1.13912">
        <ele>265.325592</ele>
        <time>2012-10-14T09:58:58Z</time>
      </trkpt>
      <trkpt lat="43.5866" lon="1.13896">
        <ele>261.483368</ele>
        <time>2012-10-14T09:59:05Z</time>
      </trkpt>
      <trkpt lat="43.58683" lon="1.13879">
        <ele>256.918396</ele>
        <time>2012-10-14T09:59:10Z</time>
      </trkpt>
      <trkpt lat="43.58697" lon="1.13865">
        <ele>253.875595</ele>
        <time>2012-10-14T09:59:13Z</time>
      </trkpt>
      <trkpt lat="43.58713" lon="1.13846">
        <ele>250.729553</ele>
        <time>2012-10-14T09:59:16Z</time>
      </trkpt>
      <trkpt lat="43.58732" lon="1.13825">
        <ele>246.957504</ele>
        <time>2012-10-14T09:59:20Z</time>
      </trkpt>
      <trkpt lat="43.5875" lon="1.13816">
        <ele>243.987503</ele>
        <time>2012-10-14T09:59:26Z</time>
      </trkpt>
      <trkpt lat="43.58754" lon="1.13797">
        <ele>242.214996</ele>
        <time>2012-10-14T09:59:31Z</time>
      </trkpt>
      <trkpt lat="43.58756" lon="1.13789">
        <ele>241.387497</ele>
        <time>2012-10-14T09:59:34Z</time>
      </trkpt>
      <trkpt lat="43.58756" lon="1.13784">
        <ele>241.132492</ele>
        <time>2012-10-14T09:59:36Z</time>
      </trkpt>
      <trkpt lat="43.58745" lon="1.13765">
        <ele>241.743118</ele>
        <time>2012-10-14T09:59:43Z</time>
      </trkpt>
      <trkpt lat="43.58751" lon="1.13757">
        <ele>240.814987</ele>
        <time>2012-10-14T09:59:49Z</time>
      </trkpt>
      <trkpt lat="43.58771" lon="1.13752">
        <ele>238.336761</ele>
        <time>2012-10-14T09:59:54Z</time>
      </trkpt>
      <trkpt lat="43.5878" lon="1.13748">
        <ele>237.580399</ele>
        <time>2012-10-14T09:59:56Z</time>
      </trkpt>
      <trkpt lat="43.58802" lon="1.13731">
        <ele>235.41066</ele>
        <time>2012-10-14T10:00:03Z</time>
      </trkpt>
      <trkpt lat="43.58807" lon="1.13724">
        <ele>234.82428</ele>
        <time>2012-10-14T10:00:05Z</time>
      </trkpt>
      <trkpt lat="43.58812" lon="1.1372">
        <ele>234.259399</ele>
        <time>2012-10-14T10:00:07Z</time>
      </trkpt>
      <trkpt lat="43.58839" lon="1.13691">
        <ele>232.382935</ele>
        <time>2012-10-14T10:00:15Z</time>
      </trkpt>
      <trkpt lat="43.58848" lon="1.13678">
        <ele>231.242096</ele>
        <time>2012-10-14T10:00:21Z</time>
      </trkpt>
      <trkpt lat="43.58848" lon="1.13672">
        <ele>231.194977</ele>
        <time>2012-10-14T10:00:23Z</time>
      </trkpt>
      <trkpt lat="43.58849" lon="1.13656">
        <ele>230.798798</ele>
        <time>2012-10-14T10:00:28Z</time>
      </trkpt>
      <trkpt lat="43.58843" lon="1.13648">
        <ele>231.855347</ele>
        <time>2012-10-14T10:00:31Z</time>
      </trkpt>
      <trkpt lat="43.58834" lon="1.1362">
        <ele>233.5811</ele>
        <time>2012-10-14T10:00:41Z</time>
      </trkpt>
      <trkpt lat="43.58835" lon="1.13618">
        <ele>233.444107</ele>
        <time>2012-10-14T10:00:42Z</time>
      </trkpt>
      <trkpt lat="43.5884" lon="1.13615">
        <ele>232.430176</ele>
        <time>2012-10-14T10:00:48Z</time>
      </trkpt>
      <trkpt lat="43.58839" lon="1.1361">
        <ele>232.588486</ele>
        <time>2012-10-14T10:00:51Z</time>
      </trkpt>
      <trkpt lat="43.58837" lon="1.13585">
        <ele>233.120728</ele>
        <time>2012-10-14T10:01:00Z</time>
      </trkpt>
      <trkpt lat="43.58836" lon="1.13572">
        <ele>234.087021</ele>
        <time>2012-10-14T10:01:12Z</time>
      </trkpt>
      <trkpt lat="43.58838" lon="1.13569">
        <ele>234.190353</ele>
        <time>2012-10-14T10:01:14Z</time>
      </trkpt>
      <trkpt lat="43.5884" lon="1.13563">
        <ele>234.600128</ele>
        <time>2012-10-14T10:01:18Z</time>
      </trkpt>
      <trkpt lat="43.58841" lon="1.13563">
        <ele>234.468735</ele>
        <time>2012-10-14T10:01:20Z</time>
      </trkpt>
      <trkpt lat="43.58849" lon="1.1357">
        <ele>233.114761</ele>
        <time>2012-10-14T10:01:33Z</time>
      </trkpt>
      <trkpt lat="43.58851" lon="1.13572">
        <ele>232.739182</ele>
        <time>2012-10-14T10:01:48Z</time>
      </trkpt>
      <trkpt lat="43.58851" lon="1.13573">
        <ele>232.636429</ele>
        <time>2012-10-14T10:01:51Z</time>
      </trkpt>
      <trkpt lat="43.58851" lon="1.13579">
        <ele>231.884781</ele>
        <time>2012-10-14T10:01:54Z</time>
      </trkpt>
      <trkpt lat="43.58858" lon="1.13589">
        <ele>230.494629</ele>
        <time>2012-10-14T10:02:00Z</time>
      </trkpt>
      <trkpt lat="43.5886" lon="1.13598">
        <ele>230.597961</ele>
        <time>2012-10-14T10:02:03Z</time>
      </trkpt>
      <trkpt lat="43.58875" lon="1.13625">
        <ele>231.299133</ele>
        <time>2012-10-14T10:02:12Z</time>
      </trkpt>
      <trkpt lat="43.5888" lon="1.13637">
        <ele>230.620239</ele>
        <time>2012-10-14T10:02:24Z</time>
      </trkpt>
      <trkpt lat="43.58897" lon="1.13656">
        <ele>229.931152</ele>
        <time>2012-10-14T10:03:14Z</time>
      </trkpt>
      <trkpt lat="43.58904" lon="1.13661">
        <ele>230.177811</ele>
        <time>2012-10-14T10:03:16Z</time>
      </trkpt>
      <trkpt lat="43.58911" lon="1.1367">
        <ele>230.421921</ele>
        <time>2012-10-14T10:03:18Z</time>
      </trkpt>
      <trkpt lat="43.58934" lon="1.13691">
        <ele>229.876633</ele>
        <time>2012-10-14T10:03:25Z</time>
      </trkpt>
      <trkpt lat="43.58944" lon="1.13701">
        <ele>228.956177</ele>
        <time>2012-10-14T10:03:28Z</time>
      </trkpt>
      <trkpt lat="43.58956" lon="1.1371">
        <ele>227.867004</ele>
        <time>2012-10-14T10:03:32Z</time>
      </trkpt>
      <trkpt lat="43.58984" lon="1.13733">
        <ele>228.579315</ele>
        <time>2012-10-14T10:03:41Z</time>
      </trkpt>
      <trkpt lat="43.58998" lon="1.13735">
        <ele>227.959061</ele>
        <time>2012-10-14T10:03:44Z</time>
      </trkpt>
      <trkpt lat="43.59019" lon="1.13746">
        <ele>226.665268</ele>
        <time>2012-10-14T10:03:50Z</time>
      </trkpt>
      <trkpt lat="43.59026" lon="1.13746">
        <ele>226.054276</ele>
        <time>2012-10-14T10:03:52Z</time>
      </trkpt>
      <trkpt lat="43.59046" lon="1.13742">
        <ele>224.943741</ele>
        <time>2012-10-14T10:03:57Z</time>
      </trkpt>
      <trkpt lat="43.59062" lon="1.13727">
        <ele>224.948746</ele>
        <time>2012-10-14T10:04:04Z</time>
      </trkpt>
      <trkpt lat="43.59066" lon="1.13725">
        <ele>224.827499</ele>
        <time>2012-10-14T10:04:06Z</time>
      </trkpt>
      <trkpt lat="43.59079" lon="1.13725">
        <ele>224.255005</ele>
        <time>2012-10-14T10:04:11Z</time>
      </trkpt>
      <trkpt lat="43.59083" lon="1.13718">
        <ele>224.422562</ele>
        <time>2012-10-14T10:04:16Z</time>
      </trkpt>
      <trkpt lat="43.59092" lon="1.1372">
        <ele>224.076569</ele>
        <time>2012-10-14T10:04:26Z</time>
      </trkpt>
      <trkpt lat="43.59093" lon="1.1372">
        <ele>224.06839</ele>
        <time>2012-10-14T10:04:28Z</time>
      </trkpt>
      <trkpt lat="43.59101" lon="1.13718">
        <ele>223.903122</ele>
        <time>2012-10-14T10:04:35Z</time>
      </trkpt>
      <trkpt lat="43.59109" lon="1.13718">
        <ele>223.673599</ele>
        <time>2012-10-14T10:04:40Z</time>
      </trkpt>
      <trkpt lat="43.59112" lon="1.13718">
        <ele>223.585052</ele>
        <time>2012-10-14T10:04:42Z</time>
      </trkpt>
      <trkpt lat="43.59123" lon="1.13722">
        <ele>223.330002</ele>
        <time>2012-10-14T10:04:46Z</time>
      </trkpt>
      <trkpt lat="43.59132" lon="1.13725">
        <ele>223.224136</ele>
        <time>2012-10-14T10:04:50Z</time>
      </trkpt>
      <trkpt lat="43.59143" lon="1.13718">
        <ele>222.906586</ele>
        <time>2012-10-14T10:04:58Z</time>
      </trkpt>
      <trkpt lat="43.59158" lon="1.13729">
        <ele>222.950836</ele>
        <time>2012-10-14T10:05:08Z</time>
      </trkpt>
      <trkpt lat="43.59165" lon="1.13725">
        <ele>222.720688</ele>
        <time>2012-10-14T10:05:14Z</time>
      </trkpt>
      <trkpt lat="43.59181" lon="1.13726">
        <ele>222.479492</ele>
        <time>2012-10-14T10:05:23Z</time>
      </trkpt>
      <trkpt lat="43.59189" lon="1.13727">
        <ele>222.306335</ele>
        <time>2012-10-14T10:05:30Z</time>
      </trkpt>
      <trkpt lat="43.59203" lon="1.13732">
        <ele>221.958496</ele>
        <time>2012-10-14T10:05:35Z</time>
      </trkpt>
      <trkpt lat="43.59208" lon="1.13736">
        <ele>221.782578</ele>
        <time>2012-10-14T10:05:37Z</time>
      </trkpt>
      <trkpt lat="43.5922" lon="1.13734">
        <ele>221.415649</ele>
        <time>2012-10-14T10:05:46Z</time>
      </trkpt>
      <trkpt lat="43.59229" lon="1.13727">
        <ele>221.181229</ele>
        <time>2012-10-14T10:05:56Z</time>
      </trkpt>
      <trkpt lat="43.5923" lon="1.13727">
        <ele>221.144821</ele>
        <time>2012-10-14T10:05:57Z</time>
      </trkpt>
      <trkpt lat="43.59233" lon="1.13732">
        <ele>220.976898</ele>
        <time>2012-10-14T10:06:00Z</time>
      </trkpt>
      <trkpt lat="43.59246" lon="1.13734">
        <ele>220.53714</ele>
        <time>2012-10-14T10:06:06Z</time>
      </trkpt>
      <trkpt lat="43.59258" lon="1.13731">
        <ele>220.135345</ele>
        <time>2012-10-14T10:06:09Z</time>
      </trkpt>
      <trkpt lat="43.59278" lon="1.13717">
        <ele>218.234634</ele>
        <time>2012-10-14T10:06:17Z</time>
      </trkpt>
      <trkpt lat="43.59281" lon="1.13714">
        <ele>217.927933</ele>
        <time>2012-10-14T10:06:19Z</time>
      </trkpt>
      <trkpt lat="43.59288" lon="1.13705">
        <ele>217.058975</ele>
        <time>2012-10-14T10:06:24Z</time>
      </trkpt>
      <trkpt lat="43.59311" lon="1.13718">
        <ele>215.759079</ele>
        <time>2012-10-14T10:06:35Z</time>
      </trkpt>
      <trkpt lat="43.59318" lon="1.1374">
        <ele>216.076401</ele>
        <time>2012-10-14T10:06:44Z</time>
      </trkpt>
      <trkpt lat="43.59321" lon="1.13747">
        <ele>215.961441</ele>
        <time>2012-10-14T10:06:46Z</time>
      </trkpt>
      <trkpt lat="43.59327" lon="1.13755">
        <ele>215.610077</ele>
        <time>2012-10-14T10:06:48Z</time>
      </trkpt>
      <trkpt lat="43.59348" lon="1.13765">
        <ele>214.365875</ele>
        <time>2012-10-14T10:06:52Z</time>
      </trkpt>
      <trkpt lat="43.5936" lon="1.13763">
        <ele>214.778503</ele>
        <time>2012-10-14T10:06:56Z</time>
      </trkpt>
      <trkpt lat="43.59374" lon="1.13783">
        <ele>216.164688</ele>
        <time>2012-10-14T10:07:03Z</time>
      </trkpt>
      <trkpt lat="43.59391" lon="1.13797">
        <ele>215.088364</ele>
        <time>2012-10-14T10:07:10Z</time>
      </trkpt>
      <trkpt lat="43.59407" lon="1.13817">
        <ele>212.967758</ele>
        <time>2012-10-14T10:07:17Z</time>
      </trkpt>
      <trkpt lat="43.5945" lon="1.13852">
        <ele>212.703247</ele>
        <time>2012-10-14T10:07:30Z</time>
      </trkpt>
      <trkpt lat="43.59463" lon="1.13863">
        <ele>212.362976</ele>
        <time>2012-10-14T10:07:33Z</time>
      </trkpt>
      <trkpt lat="43.59481" lon="1.13862">
        <ele>212.441818</ele>
        <time>2012-10-14T10:07:41Z</time>
      </trkpt>
      <trkpt lat="43.59486" lon="1.13863">
        <ele>212.386612</ele>
        <time>2012-10-14T10:07:54Z</time>
      </trkpt>
      <trkpt lat="43.59489" lon="1.13866">
        <ele>212.112946</ele>
        <time>2012-10-14T10:09:19Z</time>
      </trkpt>
      <trkpt lat="43.59524" lon="1.13892">
        <ele>210.3405</ele>
        <time>2012-10-14T10:09:30Z</time>
      </trkpt>
      <trkpt lat="43.59529" lon="1.13894">
        <ele>210.296432</ele>
        <time>2012-10-14T10:09:31Z</time>
      </trkpt>
      <trkpt lat="43.59551" lon="1.13902">
        <ele>210.213257</ele>
        <time>2012-10-14T10:09:37Z</time>
      </trkpt>
      <trkpt lat="43.59573" lon="1.13908">
        <ele>209.843613</ele>
        <time>2012-10-14T10:09:45Z</time>
      </trkpt>
      <trkpt lat="43.59576" lon="1.13908">
        <ele>209.791306</ele>
        <time>2012-10-14T10:09:48Z</time>
      </trkpt>
      <trkpt lat="43.59585" lon="1.13903">
        <ele>210.196564</ele>
        <time>2012-10-14T10:09:53Z</time>
      </trkpt>
      <trkpt lat="43.59596" lon="1.139">
        <ele>210.665878</ele>
        <time>2012-10-14T10:09:58Z</time>
      </trkpt>
      <trkpt lat="43.59629" lon="1.13895">
        <ele>212.152832</ele>
        <time>2012-10-14T10:10:10Z</time>
      </trkpt>
      <trkpt lat="43.59672" lon="1.13905">
        <ele>212.699371</ele>
        <time>2012-10-14T10:10:23Z</time>
      </trkpt>
      <trkpt lat="43.5972" lon="1.13917">
        <ele>214.935837</ele>
        <time>2012-10-14T10:10:38Z</time>
      </trkpt>
      <trkpt lat="43.59774" lon="1.13923">
        <ele>217.206879</ele>
        <time>2012-10-14T10:10:54Z</time>
      </trkpt>
      <trkpt lat="43.59831" lon="1.13916">
        <ele>218.166061</ele>
        <time>2012-10-14T10:11:10Z</time>
      </trkpt>
      <trkpt lat="43.59876" lon="1.13905">
        <ele>220.764008</ele>
        <time>2012-10-14T10:11:26Z</time>
      </trkpt>
      <trkpt lat="43.59914" lon="1.13881">
        <ele>225.736877</ele>
        <time>2012-10-14T10:11:42Z</time>
      </trkpt>
      <trkpt lat="43.59919" lon="1.13829">
        <ele>230.967377</ele>
        <time>2012-10-14T10:11:58Z</time>
      </trkpt>
      <trkpt lat="43.59915" lon="1.13766">
        <ele>237.008865</ele>
        <time>2012-10-14T10:12:17Z</time>
      </trkpt>
      <trkpt lat="43.5991" lon="1.1371">
        <ele>241.025391</ele>
        <time>2012-10-14T10:12:34Z</time>
      </trkpt>
      <trkpt lat="43.59905" lon="1.13653">
        <ele>243.315262</ele>
        <time>2012-10-14T10:12:50Z</time>
      </trkpt>
      <trkpt lat="43.59904" lon="1.13623">
        <ele>243.918121</ele>
        <time>2012-10-14T10:13:04Z</time>
      </trkpt>
      <trkpt lat="43.59904" lon="1.13619">
        <ele>243.863129</ele>
        <time>2012-10-14T10:13:07Z</time>
      </trkpt>
      <trkpt lat="43.59907" lon="1.13611">
        <ele>243.729996</ele>
        <time>2012-10-14T10:13:15Z</time>
      </trkpt>
      <trkpt lat="43.59904" lon="1.13611">
        <ele>243.722504</ele>
        <time>2012-10-14T10:13:20Z</time>
      </trkpt>
      <trkpt lat="43.59908" lon="1.13621">
        <ele>243.889999</ele>
        <time>2012-10-14T10:13:33Z</time>
      </trkpt>
      <trkpt lat="43.59907" lon="1.13622">
        <ele>243.903122</ele>
        <time>2012-10-14T10:13:34Z</time>
      </trkpt>
      <trkpt lat="43.59895" lon="1.13624">
        <ele>243.9375</ele>
        <time>2012-10-14T10:13:41Z</time>
      </trkpt>
      <trkpt lat="43.59862" lon="1.13608">
        <ele>244.889374</ele>
        <time>2012-10-14T10:13:55Z</time>
      </trkpt>
      <trkpt lat="43.59832" lon="1.13586">
        <ele>246.465408</ele>
        <time>2012-10-14T10:14:08Z</time>
      </trkpt>
      <trkpt lat="43.59796" lon="1.13567">
        <ele>250.452911</ele>
        <time>2012-10-14T10:14:22Z</time>
      </trkpt>
      <trkpt lat="43.59774" lon="1.13562">
        <ele>253.480392</ele>
        <time>2012-10-14T10:14:31Z</time>
      </trkpt>
      <trkpt lat="43.59745" lon="1.13556">
        <ele>257.540955</ele>
        <time>2012-10-14T10:14:45Z</time>
      </trkpt>
      <trkpt lat="43.59741" lon="1.13557">
        <ele>257.967194</ele>
        <time>2012-10-14T10:14:47Z</time>
      </trkpt>
      <trkpt lat="43.59715" lon="1.13562">
        <ele>260.745392</ele>
        <time>2012-10-14T10:15:00Z</time>
      </trkpt>
      <trkpt lat="43.59695" lon="1.1355">
        <ele>263.161041</ele>
        <time>2012-10-14T10:15:12Z</time>
      </trkpt>
      <trkpt lat="43.59674" lon="1.13533">
        <ele>266.090759</ele>
        <time>2012-10-14T10:15:25Z</time>
      </trkpt>
      <trkpt lat="43.59654" lon="1.13521">
        <ele>268.779724</ele>
        <time>2012-10-14T10:15:39Z</time>
      </trkpt>
      <trkpt lat="43.5964" lon="1.13511">
        <ele>270.959534</ele>
        <time>2012-10-14T10:15:49Z</time>
      </trkpt>
      <trkpt lat="43.59634" lon="1.13504">
        <ele>272.073059</ele>
        <time>2012-10-14T10:15:54Z</time>
      </trkpt>
      <trkpt lat="43.5963" lon="1.13498">
        <ele>272.92569</ele>
        <time>2012-10-14T10:15:58Z</time>
      </trkpt>
      <trkpt lat="43.59621" lon="1.13485">
        <ele>275.17749</ele>
        <time>2012-10-14T10:16:09Z</time>
      </trkpt>
      <trkpt lat="43.59614" lon="1.13475">
        <ele>276.393799</ele>
        <time>2012-10-14T10:16:16Z</time>
      </trkpt>
      <trkpt lat="43.5961" lon="1.13468">
        <ele>277.073364</ele>
        <time>2012-10-14T10:16:22Z</time>
      </trkpt>
      <trkpt lat="43.59608" lon="1.13458">
        <ele>278.04953</ele>
        <time>2012-10-14T10:16:29Z</time>
      </trkpt>
      <trkpt lat="43.59606" lon="1.13455">
        <ele>278.322327</ele>
        <time>2012-10-14T10:16:31Z</time>
      </trkpt>
      <trkpt lat="43.59605" lon="1.13447">
        <ele>279.04187</ele>
        <time>2012-10-14T10:16:36Z</time>
      </trkpt>
      <trkpt lat="43.59603" lon="1.13436">
        <ele>279.337219</ele>
        <time>2012-10-14T10:16:42Z</time>
      </trkpt>
      <trkpt lat="43.596" lon="1.13436">
        <ele>279.375824</ele>
        <time>2012-10-14T10:16:55Z</time>
      </trkpt>
      <trkpt lat="43.59599" lon="1.13437">
        <ele>279.365204</ele>
        <time>2012-10-14T10:17:38Z</time>
      </trkpt>
      <trkpt lat="43.59594" lon="1.13445">
        <ele>279.133911</ele>
        <time>2012-10-14T10:17:42Z</time>
      </trkpt>
      <trkpt lat="43.5959" lon="1.13452">
        <ele>278.714417</ele>
        <time>2012-10-14T10:17:44Z</time>
      </trkpt>
      <trkpt lat="43.59574" lon="1.13481">
        <ele>275.431488</ele>
        <time>2012-10-14T10:17:49Z</time>
      </trkpt>
      <trkpt lat="43.59547" lon="1.13481">
        <ele>271.938995</ele>
        <time>2012-10-14T10:17:56Z</time>
      </trkpt>
      <trkpt lat="43.59544" lon="1.13476">
        <ele>271.932892</ele>
        <time>2012-10-14T10:17:57Z</time>
      </trkpt>
      <trkpt lat="43.59477" lon="1.13403">
        <ele>265.390533</ele>
        <time>2012-10-14T10:18:10Z</time>
      </trkpt>
      <trkpt lat="43.59459" lon="1.13383">
        <ele>263.069366</ele>
        <time>2012-10-14T10:18:13Z</time>
      </trkpt>
      <trkpt lat="43.59456" lon="1.13354">
        <ele>264.147491</ele>
        <time>2012-10-14T10:18:19Z</time>
      </trkpt>
      <trkpt lat="43.59474" lon="1.13309">
        <ele>269.626495</ele>
        <time>2012-10-14T10:18:33Z</time>
      </trkpt>
      <trkpt lat="43.59445" lon="1.13246">
        <ele>269.557983</ele>
        <time>2012-10-14T10:18:45Z</time>
      </trkpt>
      <trkpt lat="43.5942" lon="1.13168">
        <ele>270.348999</ele>
        <time>2012-10-14T10:19:00Z</time>
      </trkpt>
      <trkpt lat="43.59416" lon="1.13121">
        <ele>273.105865</ele>
        <time>2012-10-14T10:19:12Z</time>
      </trkpt>
      <trkpt lat="43.59427" lon="1.13074">
        <ele>277.382111</ele>
        <time>2012-10-14T10:19:27Z</time>
      </trkpt>
      <trkpt lat="43.59417" lon="1.13042">
        <ele>279.683624</ele>
        <time>2012-10-14T10:19:40Z</time>
      </trkpt>
      <trkpt lat="43.59405" lon="1.13004">
        <ele>283.1875</ele>
        <time>2012-10-14T10:19:56Z</time>
      </trkpt>
      <trkpt lat="43.59392" lon="1.12962">
        <ele>288.317505</ele>
        <time>2012-10-14T10:20:13Z</time>
      </trkpt>
      <trkpt lat="43.59368" lon="1.12921">
        <ele>289.532806</ele>
        <time>2012-10-14T10:20:27Z</time>
      </trkpt>
      <trkpt lat="43.59325" lon="1.12858">
        <ele>291.393158</ele>
        <time>2012-10-14T10:20:44Z</time>
      </trkpt>
      <trkpt lat="43.59295" lon="1.1282">
        <ele>291.373901</ele>
        <time>2012-10-14T10:20:56Z</time>
      </trkpt>
      <trkpt lat="43.59291" lon="1.12817">
        <ele>291.068695</ele>
        <time>2012-10-14T10:20:58Z</time>
      </trkpt>
      <trkpt lat="43.59294" lon="1.12795">
        <ele>290.565521</ele>
        <time>2012-10-14T10:21:09Z</time>
      </trkpt>
      <trkpt lat="43.5929" lon="1.12789">
        <ele>290.243439</ele>
        <time>2012-10-14T10:21:16Z</time>
      </trkpt>
      <trkpt lat="43.5929" lon="1.12789">
        <ele>290.234406</ele>
        <time>2012-10-14T10:25:17Z</time>
      </trkpt>
      <trkpt lat="43.5929" lon="1.12789">
        <ele>290.236237</ele>
        <time>2012-10-14T10:26:18Z</time>
      </trkpt>
      <trkpt lat="43.59287" lon="1.1279">
        <ele>290.192413</ele>
        <time>2012-10-14T10:28:57Z</time>
      </trkpt>
      <trkpt lat="43.59285" lon="1.12789">
        <ele>290.081726</ele>
        <time>2012-10-14T10:29:00Z</time>
      </trkpt>
      <trkpt lat="43.59265" lon="1.12774">
        <ele>289.169617</ele>
        <time>2012-10-14T10:29:10Z</time>
      </trkpt>
      <trkpt lat="43.59238" lon="1.12737">
        <ele>284.921265</ele>
        <time>2012-10-14T10:29:17Z</time>
      </trkpt>
      <trkpt lat="43.59225" lon="1.12688">
        <ele>280.411835</ele>
        <time>2012-10-14T10:29:26Z</time>
      </trkpt>
      <trkpt lat="43.59236" lon="1.12668">
        <ele>278.341339</ele>
        <time>2012-10-14T10:29:34Z</time>
      </trkpt>
      <trkpt lat="43.59265" lon="1.12647">
        <ele>274.212616</ele>
        <time>2012-10-14T10:29:39Z</time>
      </trkpt>
      <trkpt lat="43.59283" lon="1.12586">
        <ele>267.117493</ele>
        <time>2012-10-14T10:29:45Z</time>
      </trkpt>
      <trkpt lat="43.5929" lon="1.1255">
        <ele>265.186493</ele>
        <time>2012-10-14T10:29:50Z</time>
      </trkpt>
      <trkpt lat="43.59355" lon="1.12456">
        <ele>254.873611</ele>
        <time>2012-10-14T10:30:00Z</time>
      </trkpt>
      <trkpt lat="43.59425" lon="1.1233">
        <ele>254.23381</ele>
        <time>2012-10-14T10:30:11Z</time>
      </trkpt>
      <trkpt lat="43.59465" lon="1.12242">
        <ele>256.333893</ele>
        <time>2012-10-14T10:30:23Z</time>
      </trkpt>
      <trkpt lat="43.59499" lon="1.12145">
        <ele>255.520966</ele>
        <time>2012-10-14T10:30:39Z</time>
      </trkpt>
      <trkpt lat="43.59527" lon="1.12012">
        <ele>253.477493</ele>
        <time>2012-10-14T10:30:55Z</time>
      </trkpt>
      <trkpt lat="43.59542" lon="1.11929">
        <ele>249.418472</ele>
        <time>2012-10-14T10:31:05Z</time>
      </trkpt>
      <trkpt lat="43.59555" lon="1.11929">
        <ele>247.636932</ele>
        <time>2012-10-14T10:31:11Z</time>
      </trkpt>
      <trkpt lat="43.59614" lon="1.11993">
        <ele>239.447647</ele>
        <time>2012-10-14T10:31:20Z</time>
      </trkpt>
      <trkpt lat="43.59655" lon="1.12039">
        <ele>236.38475</ele>
        <time>2012-10-14T10:31:26Z</time>
      </trkpt>
      <trkpt lat="43.59691" lon="1.12039">
        <ele>233.3358</ele>
        <time>2012-10-14T10:31:31Z</time>
      </trkpt>
      <trkpt lat="43.59713" lon="1.1202">
        <ele>232.947906</ele>
        <time>2012-10-14T10:31:34Z</time>
      </trkpt>
      <trkpt lat="43.59735" lon="1.11986">
        <ele>231.421204</ele>
        <time>2012-10-14T10:31:38Z</time>
      </trkpt>
      <trkpt lat="43.5978" lon="1.1194">
        <ele>228.997665</ele>
        <time>2012-10-14T10:31:45Z</time>
      </trkpt>
      <trkpt lat="43.59797" lon="1.11938">
        <ele>228.370148</ele>
        <time>2012-10-14T10:31:47Z</time>
      </trkpt>
      <trkpt lat="43.59862" lon="1.11891">
        <ele>229.413818</ele>
        <time>2012-10-14T10:31:57Z</time>
      </trkpt>
      <trkpt lat="43.59901" lon="1.11853">
        <ele>229.358475</ele>
        <time>2012-10-14T10:32:05Z</time>
      </trkpt>
      <trkpt lat="43.59924" lon="1.11836">
        <ele>230.168121</ele>
        <time>2012-10-14T10:32:10Z</time>
      </trkpt>
      <trkpt lat="43.5999" lon="1.11751">
        <ele>228.765213</ele>
        <time>2012-10-14T10:32:26Z</time>
      </trkpt>
      <trkpt lat="43.60012" lon="1.11698">
        <ele>227.218933</ele>
        <time>2012-10-14T10:32:34Z</time>
      </trkpt>
      <trkpt lat="43.60037" lon="1.11693">
        <ele>226.660721</ele>
        <time>2012-10-14T10:32:41Z</time>
      </trkpt>
      <trkpt lat="43.6004" lon="1.11695">
        <ele>226.702118</ele>
        <time>2012-10-14T10:32:42Z</time>
      </trkpt>
      <trkpt lat="43.60058" lon="1.11712">
        <ele>225.840714</ele>
        <time>2012-10-14T10:32:58Z</time>
      </trkpt>
      <trkpt lat="43.6008" lon="1.1173">
        <ele>222.804947</ele>
        <time>2012-10-14T10:33:14Z</time>
      </trkpt>
      <trkpt lat="43.60117" lon="1.11759">
        <ele>216.148071</ele>
        <time>2012-10-14T10:33:25Z</time>
      </trkpt>
      <trkpt lat="43.60139" lon="1.1177">
        <ele>211.629044</ele>
        <time>2012-10-14T10:33:34Z</time>
      </trkpt>
      <trkpt lat="43.60141" lon="1.11771">
        <ele>211.252533</ele>
        <time>2012-10-14T10:33:47Z</time>
      </trkpt>
      <trkpt lat="43.60141" lon="1.11771">
        <ele>211.232391</ele>
        <time>2012-10-14T10:33:59Z</time>
      </trkpt>
      <trkpt lat="43.60141" lon="1.11777">
        <ele>210.51442</ele>
        <time>2012-10-14T10:34:03Z</time>
      </trkpt>
      <trkpt lat="43.60148" lon="1.11802">
        <ele>206.463669</ele>
        <time>2012-10-14T10:34:18Z</time>
      </trkpt>
      <trkpt lat="43.60149" lon="1.11809">
        <ele>205.353836</ele>
        <time>2012-10-14T10:34:23Z</time>
      </trkpt>
      <trkpt lat="43.60153" lon="1.11817">
        <ele>203.705246</ele>
        <time>2012-10-14T10:34:30Z</time>
      </trkpt>
      <trkpt lat="43.60164" lon="1.11813">
        <ele>202.004837</ele>
        <time>2012-10-14T10:34:41Z</time>
      </trkpt>
      <trkpt lat="43.60176" lon="1.11806">
        <ele>200.324326</ele>
        <time>2012-10-14T10:34:45Z</time>
      </trkpt>
      <trkpt lat="43.60192" lon="1.11801">
        <ele>198.56752</ele>
        <time>2012-10-14T10:34:48Z</time>
      </trkpt>
      <trkpt lat="43.60276" lon="1.1176">
        <ele>189.915024</ele>
        <time>2012-10-14T10:34:59Z</time>
      </trkpt>
      <trkpt lat="43.60302" lon="1.11747">
        <ele>187.034149</ele>
        <time>2012-10-14T10:35:03Z</time>
      </trkpt>
      <trkpt lat="43.60313" lon="1.11751">
        <ele>185.647018</ele>
        <time>2012-10-14T10:35:08Z</time>
      </trkpt>
      <trkpt lat="43.60303" lon="1.11789">
        <ele>187.244873</ele>
        <time>2012-10-14T10:35:20Z</time>
      </trkpt>
      <trkpt lat="43.60281" lon="1.11844">
        <ele>187.943253</ele>
        <time>2012-10-14T10:35:36Z</time>
      </trkpt>
      <trkpt lat="43.60278" lon="1.1186">
        <ele>187.682022</ele>
        <time>2012-10-14T10:35:41Z</time>
      </trkpt>
      <trkpt lat="43.60287" lon="1.11865">
        <ele>188.269348</ele>
        <time>2012-10-14T10:35:46Z</time>
      </trkpt>
      <trkpt lat="43.6031" lon="1.11868">
        <ele>189.99556</ele>
        <time>2012-10-14T10:36:00Z</time>
      </trkpt>
      <trkpt lat="43.60332" lon="1.1187">
        <ele>193.601089</ele>
        <time>2012-10-14T10:36:14Z</time>
      </trkpt>
      <trkpt lat="43.60355" lon="1.11875">
        <ele>198.944427</ele>
        <time>2012-10-14T10:36:29Z</time>
      </trkpt>
      <trkpt lat="43.60357" lon="1.11875">
        <ele>199.290634</ele>
        <time>2012-10-14T10:36:30Z</time>
      </trkpt>
      <trkpt lat="43.6037" lon="1.11876">
        <ele>202.255005</ele>
        <time>2012-10-14T10:36:40Z</time>
      </trkpt>
      <trkpt lat="43.60394" lon="1.11881">
        <ele>207.485001</ele>
        <time>2012-10-14T10:36:58Z</time>
      </trkpt>
      <trkpt lat="43.6041" lon="1.11884">
        <ele>211.049744</ele>
        <time>2012-10-14T10:37:11Z</time>
      </trkpt>
      <trkpt lat="43.60431" lon="1.11889">
        <ele>214.737503</ele>
        <time>2012-10-14T10:37:29Z</time>
      </trkpt>
      <trkpt lat="43.60455" lon="1.11893">
        <ele>218.691788</ele>
        <time>2012-10-14T10:37:46Z</time>
      </trkpt>
      <trkpt lat="43.60481" lon="1.11888">
        <ele>221.175995</ele>
        <time>2012-10-14T10:38:03Z</time>
      </trkpt>
      <trkpt lat="43.60497" lon="1.11842">
        <ele>221.953293</ele>
        <time>2012-10-14T10:38:15Z</time>
      </trkpt>
      <trkpt lat="43.60502" lon="1.11825">
        <ele>222.047668</ele>
        <time>2012-10-14T10:38:18Z</time>
      </trkpt>
      <trkpt lat="43.60509" lon="1.11805">
        <ele>221.646301</ele>
        <time>2012-10-14T10:38:22Z</time>
      </trkpt>
      <trkpt lat="43.60532" lon="1.11741">
        <ele>222.216248</ele>
        <time>2012-10-14T10:38:36Z</time>
      </trkpt>
      <trkpt lat="43.6054" lon="1.11742">
        <ele>222.819641</ele>
        <time>2012-10-14T10:38:43Z</time>
      </trkpt>
      <trkpt lat="43.60529" lon="1.11781">
        <ele>222.016159</ele>
        <time>2012-10-14T10:38:58Z</time>
      </trkpt>
      <trkpt lat="43.60524" lon="1.11823">
        <ele>222.010178</ele>
        <time>2012-10-14T10:39:12Z</time>
      </trkpt>
      <trkpt lat="43.60519" lon="1.11866">
        <ele>222.398834</ele>
        <time>2012-10-14T10:39:26Z</time>
      </trkpt>
      <trkpt lat="43.60512" lon="1.11908">
        <ele>223.941879</ele>
        <time>2012-10-14T10:39:40Z</time>
      </trkpt>
      <trkpt lat="43.605" lon="1.11971">
        <ele>228.02359</ele>
        <time>2012-10-14T10:39:59Z</time>
      </trkpt>
      <trkpt lat="43.6049" lon="1.12018">
        <ele>230.48291</ele>
        <time>2012-10-14T10:40:18Z</time>
      </trkpt>
      <trkpt lat="43.60481" lon="1.12065">
        <ele>232.310165</ele>
        <time>2012-10-14T10:40:36Z</time>
      </trkpt>
      <trkpt lat="43.60474" lon="1.12111">
        <ele>235.633514</ele>
        <time>2012-10-14T10:40:52Z</time>
      </trkpt>
      <trkpt lat="43.60464" lon="1.1217">
        <ele>239.489014</ele>
        <time>2012-10-14T10:41:09Z</time>
      </trkpt>
      <trkpt lat="43.60457" lon="1.12225">
        <ele>240.70047</ele>
        <time>2012-10-14T10:41:24Z</time>
      </trkpt>
      <trkpt lat="43.60454" lon="1.12285">
        <ele>240.249985</ele>
        <time>2012-10-14T10:41:37Z</time>
      </trkpt>
      <trkpt lat="43.6047" lon="1.12324">
        <ele>241.352493</ele>
        <time>2012-10-14T10:41:48Z</time>
      </trkpt>
      <trkpt lat="43.60513" lon="1.12352">
        <ele>242.513885</ele>
        <time>2012-10-14T10:42:03Z</time>
      </trkpt>
      <trkpt lat="43.60563" lon="1.12364">
        <ele>241.341049</ele>
        <time>2012-10-14T10:42:15Z</time>
      </trkpt>
      <trkpt lat="43.6064" lon="1.12375">
        <ele>239.022476</ele>
        <time>2012-10-14T10:42:26Z</time>
      </trkpt>
      <trkpt lat="43.60665" lon="1.12379">
        <ele>241.030502</ele>
        <time>2012-10-14T10:42:30Z</time>
      </trkpt>
      <trkpt lat="43.60683" lon="1.12373">
        <ele>242.868301</ele>
        <time>2012-10-14T10:42:34Z</time>
      </trkpt>
      <trkpt lat="43.60691" lon="1.12347">
        <ele>244.448746</ele>
        <time>2012-10-14T10:42:40Z</time>
      </trkpt>
      <trkpt lat="43.607" lon="1.12291">
        <ele>247.475006</ele>
        <time>2012-10-14T10:42:57Z</time>
      </trkpt>
      <trkpt lat="43.60713" lon="1.12235">
        <ele>251.03479</ele>
        <time>2012-10-14T10:43:16Z</time>
      </trkpt>
      <trkpt lat="43.60732" lon="1.12182">
        <ele>254.263748</ele>
        <time>2012-10-14T10:43:35Z</time>
      </trkpt>
      <trkpt lat="43.6076" lon="1.12176">
        <ele>256.540009</ele>
        <time>2012-10-14T10:43:51Z</time>
      </trkpt>
      <trkpt lat="43.60791" lon="1.12174">
        <ele>258.684875</ele>
        <time>2012-10-14T10:44:09Z</time>
      </trkpt>
      <trkpt lat="43.60819" lon="1.12175">
        <ele>260.292725</ele>
        <time>2012-10-14T10:44:24Z</time>
      </trkpt>
      <trkpt lat="43.60848" lon="1.12189">
        <ele>261.328583</ele>
        <time>2012-10-14T10:44:40Z</time>
      </trkpt>
      <trkpt lat="43.60877" lon="1.12198">
        <ele>262.050018</ele>
        <time>2012-10-14T10:44:53Z</time>
      </trkpt>
      <trkpt lat="43.60893" lon="1.12196">
        <ele>261.174988</ele>
        <time>2012-10-14T10:44:57Z</time>
      </trkpt>
      <trkpt lat="43.60931" lon="1.1218">
        <ele>257.053101</ele>
        <time>2012-10-14T10:45:03Z</time>
      </trkpt>
      <trkpt lat="43.60977" lon="1.12173">
        <ele>251.882248</ele>
        <time>2012-10-14T10:45:10Z</time>
      </trkpt>
      <trkpt lat="43.60983" lon="1.12177">
        <ele>251.063934</ele>
        <time>2012-10-14T10:45:11Z</time>
      </trkpt>
      <trkpt lat="43.61016" lon="1.12197">
        <ele>244.530838</ele>
        <time>2012-10-14T10:45:18Z</time>
      </trkpt>
      <trkpt lat="43.61017" lon="1.12198">
        <ele>244.23494</ele>
        <time>2012-10-14T10:45:31Z</time>
      </trkpt>
      <trkpt lat="43.61018" lon="1.12198">
        <ele>244.214691</ele>
        <time>2012-10-14T10:46:06Z</time>
      </trkpt>
      <trkpt lat="43.61018" lon="1.12197">
        <ele>244.042282</ele>
        <time>2012-10-14T10:46:51Z</time>
      </trkpt>
      <trkpt lat="43.61018" lon="1.12197">
        <ele>244.042282</ele>
        <time>2012-10-14T10:46:53Z</time>
      </trkpt>
      <trkpt lat="43.61018" lon="1.12212">
        <ele>243.84758</ele>
        <time>2012-10-14T10:47:00Z</time>
      </trkpt>
      <trkpt lat="43.61008" lon="1.12276">
        <ele>245.815002</ele>
        <time>2012-10-14T10:47:18Z</time>
      </trkpt>
      <trkpt lat="43.60998" lon="1.12338">
        <ele>248.300003</ele>
        <time>2012-10-14T10:47:35Z</time>
      </trkpt>
      <trkpt lat="43.60989" lon="1.12406">
        <ele>249.241241</ele>
        <time>2012-10-14T10:47:49Z</time>
      </trkpt>
      <trkpt lat="43.60986" lon="1.1242">
        <ele>249.40625</ele>
        <time>2012-10-14T10:47:51Z</time>
      </trkpt>
      <trkpt lat="43.60975" lon="1.12529">
        <ele>248.787155</ele>
        <time>2012-10-14T10:48:04Z</time>
      </trkpt>
      <trkpt lat="43.60974" lon="1.12537">
        <ele>248.746353</ele>
        <time>2012-10-14T10:48:05Z</time>
      </trkpt>
      <trkpt lat="43.6098" lon="1.1262">
        <ele>247.363998</ele>
        <time>2012-10-14T10:48:15Z</time>
      </trkpt>
      <trkpt lat="43.60998" lon="1.12657">
        <ele>245.144852</ele>
        <time>2012-10-14T10:48:20Z</time>
      </trkpt>
      <trkpt lat="43.61012" lon="1.12672">
        <ele>243.799576</ele>
        <time>2012-10-14T10:48:23Z</time>
      </trkpt>
      <trkpt lat="43.61028" lon="1.12694">
        <ele>242.430786</ele>
        <time>2012-10-14T10:48:27Z</time>
      </trkpt>
      <trkpt lat="43.61041" lon="1.12708">
        <ele>241.590668</ele>
        <time>2012-10-14T10:48:30Z</time>
      </trkpt>
      <trkpt lat="43.61065" lon="1.12766">
        <ele>239.380722</ele>
        <time>2012-10-14T10:48:38Z</time>
      </trkpt>
      <trkpt lat="43.61092" lon="1.12855">
        <ele>239.490234</ele>
        <time>2012-10-14T10:48:47Z</time>
      </trkpt>
      <trkpt lat="43.61103" lon="1.12897">
        <ele>240.130997</ele>
        <time>2012-10-14T10:48:53Z</time>
      </trkpt>
      <trkpt lat="43.6111" lon="1.12941">
        <ele>240.563721</ele>
        <time>2012-10-14T10:49:00Z</time>
      </trkpt>
      <trkpt lat="43.61116" lon="1.1298">
        <ele>240.944443</ele>
        <time>2012-10-14T10:49:06Z</time>
      </trkpt>
      <trkpt lat="43.61118" lon="1.12999">
        <ele>240.734879</ele>
        <time>2012-10-14T10:49:09Z</time>
      </trkpt>
      <trkpt lat="43.61114" lon="1.1307">
        <ele>239.607758</ele>
        <time>2012-10-14T10:49:20Z</time>
      </trkpt>
      <trkpt lat="43.61105" lon="1.13156">
        <ele>236.680481</ele>
        <time>2012-10-14T10:49:31Z</time>
      </trkpt>
      <trkpt lat="43.61103" lon="1.13256">
        <ele>231.173782</ele>
        <time>2012-10-14T10:49:40Z</time>
      </trkpt>
      <trkpt lat="43.61131" lon="1.13324">
        <ele>225.619904</ele>
        <time>2012-10-14T10:49:46Z</time>
      </trkpt>
      <trkpt lat="43.61155" lon="1.13348">
        <ele>222.941193</ele>
        <time>2012-10-14T10:49:49Z</time>
      </trkpt>
      <trkpt lat="43.61174" lon="1.134">
        <ele>218.767502</ele>
        <time>2012-10-14T10:49:54Z</time>
      </trkpt>
      <trkpt lat="43.61189" lon="1.13526">
        <ele>212.810684</ele>
        <time>2012-10-14T10:50:04Z</time>
      </trkpt>
      <trkpt lat="43.61201" lon="1.13576">
        <ele>208.221466</ele>
        <time>2012-10-14T10:50:08Z</time>
      </trkpt>
      <trkpt lat="43.61217" lon="1.13611">
        <ele>203.438705</ele>
        <time>2012-10-14T10:50:11Z</time>
      </trkpt>
      <trkpt lat="43.61247" lon="1.13767">
        <ele>189.060562</ele>
        <time>2012-10-14T10:50:22Z</time>
      </trkpt>
      <trkpt lat="43.61249" lon="1.1383">
        <ele>186.391251</ele>
        <time>2012-10-14T10:50:27Z</time>
      </trkpt>
      <trkpt lat="43.61272" lon="1.13852">
        <ele>185.074707</ele>
        <time>2012-10-14T10:50:32Z</time>
      </trkpt>
      <trkpt lat="43.61285" lon="1.13872">
        <ele>184.170334</ele>
        <time>2012-10-14T10:50:37Z</time>
      </trkpt>
      <trkpt lat="43.61273" lon="1.13909">
        <ele>182.945618</ele>
        <time>2012-10-14T10:50:42Z</time>
      </trkpt>
      <trkpt lat="43.61294" lon="1.13951">
        <ele>181.05188</ele>
        <time>2012-10-14T10:50:48Z</time>
      </trkpt>
      <trkpt lat="43.61359" lon="1.14015">
        <ele>178.75563</ele>
        <time>2012-10-14T10:50:58Z</time>
      </trkpt>
      <trkpt lat="43.61384" lon="1.14023">
        <ele>178.314453</ele>
        <time>2012-10-14T10:51:02Z</time>
      </trkpt>
      <trkpt lat="43.61418" lon="1.14024">
        <ele>178.173309</ele>
        <time>2012-10-14T10:51:08Z</time>
      </trkpt>
      <trkpt lat="43.61421" lon="1.14026">
        <ele>178.107178</ele>
        <time>2012-10-14T10:51:10Z</time>
      </trkpt>
      <trkpt lat="43.61428" lon="1.14027">
        <ele>177.952637</ele>
        <time>2012-10-14T10:51:14Z</time>
      </trkpt>
      <trkpt lat="43.61483" lon="1.14055">
        <ele>176.412399</ele>
        <time>2012-10-14T10:51:27Z</time>
      </trkpt>
      <trkpt lat="43.61524" lon="1.14075">
        <ele>175.436249</ele>
        <time>2012-10-14T10:51:34Z</time>
      </trkpt>
      <trkpt lat="43.61563" lon="1.14084">
        <ele>175.126022</ele>
        <time>2012-10-14T10:51:40Z</time>
      </trkpt>
      <trkpt lat="43.6159" lon="1.14076">
        <ele>175.510941</ele>
        <time>2012-10-14T10:51:45Z</time>
      </trkpt>
      <trkpt lat="43.61622" lon="1.13997">
        <ele>179.564621</ele>
        <time>2012-10-14T10:52:01Z</time>
      </trkpt>
      <trkpt lat="43.61657" lon="1.13957">
        <ele>182.434372</ele>
        <time>2012-10-14T10:52:15Z</time>
      </trkpt>
      <trkpt lat="43.61702" lon="1.13937">
        <ele>183.877243</ele>
        <time>2012-10-14T10:52:32Z</time>
      </trkpt>
      <trkpt lat="43.61737" lon="1.13921">
        <ele>184.522491</ele>
        <time>2012-10-14T10:52:46Z</time>
      </trkpt>
      <trkpt lat="43.61784" lon="1.13892">
        <ele>185.417877</ele>
        <time>2012-10-14T10:53:02Z</time>
      </trkpt>
      <trkpt lat="43.61827" lon="1.13872">
        <ele>186.32019</ele>
        <time>2012-10-14T10:53:17Z</time>
      </trkpt>
      <trkpt lat="43.61872" lon="1.13863">
        <ele>190.353531</ele>
        <time>2012-10-14T10:53:35Z</time>
      </trkpt>
      <trkpt lat="43.61897" lon="1.1385">
        <ele>194.544678</ele>
        <time>2012-10-14T10:53:48Z</time>
      </trkpt>
      <trkpt lat="43.61925" lon="1.13821">
        <ele>199.247452</ele>
        <time>2012-10-14T10:54:05Z</time>
      </trkpt>
      <trkpt lat="43.61941" lon="1.13784">
        <ele>201.525726</ele>
        <time>2012-10-14T10:54:20Z</time>
      </trkpt>
      <trkpt lat="43.6196" lon="1.13747">
        <ele>204.16571</ele>
        <time>2012-10-14T10:54:35Z</time>
      </trkpt>
      <trkpt lat="43.61985" lon="1.13699">
        <ele>206.261795</ele>
        <time>2012-10-14T10:54:53Z</time>
      </trkpt>
      <trkpt lat="43.62016" lon="1.13642">
        <ele>206.328125</ele>
        <time>2012-10-14T10:55:09Z</time>
      </trkpt>
      <trkpt lat="43.62029" lon="1.13628">
        <ele>205.539368</ele>
        <time>2012-10-14T10:55:19Z</time>
      </trkpt>
      <trkpt lat="43.62032" lon="1.13626">
        <ele>205.366882</ele>
        <time>2012-10-14T10:56:03Z</time>
      </trkpt>
      <trkpt lat="43.62063" lon="1.13602">
        <ele>203.388107</ele>
        <time>2012-10-14T10:56:13Z</time>
      </trkpt>
      <trkpt lat="43.62123" lon="1.13543">
        <ele>198.249542</ele>
        <time>2012-10-14T10:56:23Z</time>
      </trkpt>
      <trkpt lat="43.62188" lon="1.13487">
        <ele>190.234253</ele>
        <time>2012-10-14T10:56:31Z</time>
      </trkpt>
      <trkpt lat="43.62208" lon="1.13466">
        <ele>188.409225</ele>
        <time>2012-10-14T10:56:36Z</time>
      </trkpt>
      <trkpt lat="43.62214" lon="1.13471">
        <ele>187.806412</ele>
        <time>2012-10-14T10:56:40Z</time>
      </trkpt>
      <trkpt lat="43.62221" lon="1.13509">
        <ele>186.614182</ele>
        <time>2012-10-14T10:56:47Z</time>
      </trkpt>
      <trkpt lat="43.62223" lon="1.13527">
        <ele>186.146255</ele>
        <time>2012-10-14T10:56:50Z</time>
      </trkpt>
      <trkpt lat="43.62229" lon="1.13568">
        <ele>185.004166</ele>
        <time>2012-10-14T10:56:56Z</time>
      </trkpt>
      <trkpt lat="43.62231" lon="1.13584">
        <ele>184.71579</ele>
        <time>2012-10-14T10:56:58Z</time>
      </trkpt>
      <trkpt lat="43.62235" lon="1.13607">
        <ele>184.530685</ele>
        <time>2012-10-14T10:57:01Z</time>
      </trkpt>
      <trkpt lat="43.62243" lon="1.13639">
        <ele>184.260422</ele>
        <time>2012-10-14T10:57:05Z</time>
      </trkpt>
      <trkpt lat="43.62251" lon="1.13662">
        <ele>183.955002</ele>
        <time>2012-10-14T10:57:08Z</time>
      </trkpt>
      <trkpt lat="43.62257" lon="1.13676">
        <ele>183.690002</ele>
        <time>2012-10-14T10:57:10Z</time>
      </trkpt>
      <trkpt lat="43.62289" lon="1.13753">
        <ele>182.294998</ele>
        <time>2012-10-14T10:57:22Z</time>
      </trkpt>
      <trkpt lat="43.62292" lon="1.1376">
        <ele>182.179993</ele>
        <time>2012-10-14T10:57:23Z</time>
      </trkpt>
      <trkpt lat="43.62297" lon="1.13772">
        <ele>182.078125</ele>
        <time>2012-10-14T10:57:25Z</time>
      </trkpt>
      <trkpt lat="43.62315" lon="1.13821">
        <ele>182.144379</ele>
        <time>2012-10-14T10:57:33Z</time>
      </trkpt>
      <trkpt lat="43.62319" lon="1.13827">
        <ele>182.056244</ele>
        <time>2012-10-14T10:57:35Z</time>
      </trkpt>
      <trkpt lat="43.62366" lon="1.13778">
        <ele>180.136871</ele>
        <time>2012-10-14T10:57:46Z</time>
      </trkpt>
      <trkpt lat="43.62423" lon="1.13713">
        <ele>176.255447</ele>
        <time>2012-10-14T10:57:57Z</time>
      </trkpt>
      <trkpt lat="43.62429" lon="1.13706">
        <ele>175.765472</ele>
        <time>2012-10-14T10:57:58Z</time>
      </trkpt>
      <trkpt lat="43.62489" lon="1.13629">
        <ele>171.225632</ele>
        <time>2012-10-14T10:58:09Z</time>
      </trkpt>
      <trkpt lat="43.62489" lon="1.13585">
        <ele>170.484375</ele>
        <time>2012-10-14T10:58:15Z</time>
      </trkpt>
      <trkpt lat="43.62486" lon="1.13578">
        <ele>170.531876</ele>
        <time>2012-10-14T10:58:16Z</time>
      </trkpt>
      <trkpt lat="43.62479" lon="1.13565">
        <ele>170.593124</ele>
        <time>2012-10-14T10:58:18Z</time>
      </trkpt>
      <trkpt lat="43.62468" lon="1.13546">
        <ele>170.781876</ele>
        <time>2012-10-14T10:58:21Z</time>
      </trkpt>
      <trkpt lat="43.62477" lon="1.13525">
        <ele>170.043747</ele>
        <time>2012-10-14T10:58:25Z</time>
      </trkpt>
      <trkpt lat="43.62495" lon="1.13519">
        <ele>169.136246</ele>
        <time>2012-10-14T10:58:28Z</time>
      </trkpt>
      <trkpt lat="43.62511" lon="1.13488">
        <ele>167.903748</ele>
        <time>2012-10-14T10:58:33Z</time>
      </trkpt>
      <trkpt lat="43.62512" lon="1.13461">
        <ele>167.432495</ele>
        <time>2012-10-14T10:58:36Z</time>
      </trkpt>
      <trkpt lat="43.62516" lon="1.13434">
        <ele>166.917648</ele>
        <time>2012-10-14T10:58:39Z</time>
      </trkpt>
      <trkpt lat="43.62534" lon="1.13395">
        <ele>166.130386</ele>
        <time>2012-10-14T10:58:44Z</time>
      </trkpt>
      <trkpt lat="43.62608" lon="1.13291">
        <ele>162.134491</ele>
        <time>2012-10-14T10:58:59Z</time>
      </trkpt>
      <trkpt lat="43.62674" lon="1.13195">
        <ele>158.823746</ele>
        <time>2012-10-14T10:59:13Z</time>
      </trkpt>
      <trkpt lat="43.62703" lon="1.13167">
        <ele>157.078125</ele>
        <time>2012-10-14T10:59:18Z</time>
      </trkpt>
      <trkpt lat="43.62769" lon="1.13109">
        <ele>154.403122</ele>
        <time>2012-10-14T10:59:30Z</time>
      </trkpt>
      <trkpt lat="43.62775" lon="1.13104">
        <ele>154.186249</ele>
        <time>2012-10-14T10:59:31Z</time>
      </trkpt>
      <trkpt lat="43.62807" lon="1.13105">
        <ele>153.508118</ele>
        <time>2012-10-14T10:59:36Z</time>
      </trkpt>
      <trkpt lat="43.62834" lon="1.13116">
        <ele>153.074997</ele>
        <time>2012-10-14T10:59:41Z</time>
      </trkpt>
      <trkpt lat="43.62911" lon="1.13054">
        <ele>150.375</ele>
        <time>2012-10-14T10:59:53Z</time>
      </trkpt>
      <trkpt lat="43.62917" lon="1.13048">
        <ele>150.153122</ele>
        <time>2012-10-14T10:59:54Z</time>
      </trkpt>
      <trkpt lat="43.62942" lon="1.13042">
        <ele>149.559372</ele>
        <time>2012-10-14T10:59:58Z</time>
      </trkpt>
      <trkpt lat="43.62974" lon="1.1302">
        <ele>149.21312</ele>
        <time>2012-10-14T11:00:05Z</time>
      </trkpt>
      <trkpt lat="43.62976" lon="1.13013">
        <ele>149.110626</ele>
        <time>2012-10-14T11:00:06Z</time>
      </trkpt>
      <trkpt lat="43.62978" lon="1.13004">
        <ele>148.970551</ele>
        <time>2012-10-14T11:00:08Z</time>
      </trkpt>
      <trkpt lat="43.62991" lon="1.12994">
        <ele>148.639999</ele>
        <time>2012-10-14T11:00:14Z</time>
      </trkpt>
      <trkpt lat="43.62992" lon="1.12969">
        <ele>148.209381</ele>
        <time>2012-10-14T11:00:22Z</time>
      </trkpt>
      <trkpt lat="43.62991" lon="1.12964">
        <ele>148.153748</ele>
        <time>2012-10-14T11:00:23Z</time>
      </trkpt>
      <trkpt lat="43.62955" lon="1.12856">
        <ele>148.602493</ele>
        <time>2012-10-14T11:00:41Z</time>
      </trkpt>
      <trkpt lat="43.62927" lon="1.12777">
        <ele>149.212494</ele>
        <time>2012-10-14T11:00:57Z</time>
      </trkpt>
      <trkpt lat="43.62893" lon="1.12674">
        <ele>149.947495</ele>
        <time>2012-10-14T11:01:15Z</time>
      </trkpt>
      <trkpt lat="43.62879" lon="1.12634">
        <ele>150.475006</ele>
        <time>2012-10-14T11:01:22Z</time>
      </trkpt>
      <trkpt lat="43.62865" lon="1.12619">
        <ele>151.104996</ele>
        <time>2012-10-14T11:01:27Z</time>
      </trkpt>
      <trkpt lat="43.62849" lon="1.12578">
        <ele>151.800003</ele>
        <time>2012-10-14T11:01:37Z</time>
      </trkpt>
      <trkpt lat="43.62847" lon="1.1257">
        <ele>151.768753</ele>
        <time>2012-10-14T11:01:39Z</time>
      </trkpt>
      <trkpt lat="43.62815" lon="1.12473">
        <ele>152.25</ele>
        <time>2012-10-14T11:01:56Z</time>
      </trkpt>
      <trkpt lat="43.62803" lon="1.12437">
        <ele>152.52063</ele>
        <time>2012-10-14T11:02:02Z</time>
      </trkpt>
      <trkpt lat="43.62794" lon="1.12407">
        <ele>152.417496</ele>
        <time>2012-10-14T11:02:07Z</time>
      </trkpt>
      <trkpt lat="43.6278" lon="1.12356">
        <ele>152.170624</ele>
        <time>2012-10-14T11:02:15Z</time>
      </trkpt>
      <trkpt lat="43.6279" lon="1.12328">
        <ele>151.264999</ele>
        <time>2012-10-14T11:02:22Z</time>
      </trkpt>
      <trkpt lat="43.62794" lon="1.12334">
        <ele>151.191254</ele>
        <time>2012-10-14T11:02:24Z</time>
      </trkpt>
      <trkpt lat="43.62821" lon="1.12362">
        <ele>150.722046</ele>
        <time>2012-10-14T11:02:32Z</time>
      </trkpt>
      <trkpt lat="43.62862" lon="1.12371">
        <ele>149.552505</ele>
        <time>2012-10-14T11:02:40Z</time>
      </trkpt>
      <trkpt lat="43.62867" lon="1.12365">
        <ele>149.447495</ele>
        <time>2012-10-14T11:02:41Z</time>
      </trkpt>
      <trkpt lat="43.62879" lon="1.12346">
        <ele>149.177505</ele>
        <time>2012-10-14T11:02:44Z</time>
      </trkpt>
      <trkpt lat="43.62903" lon="1.12351">
        <ele>148.402679</ele>
        <time>2012-10-14T11:02:49Z</time>
      </trkpt>
      <trkpt lat="43.6296" lon="1.12453">
        <ele>146.823242</ele>
        <time>2012-10-14T11:03:02Z</time>
      </trkpt>
      <trkpt lat="43.63001" lon="1.12558">
        <ele>146.397629</ele>
        <time>2012-10-14T11:03:15Z</time>
      </trkpt>
      <trkpt lat="43.63038" lon="1.1265">
        <ele>145.699997</ele>
        <time>2012-10-14T11:03:27Z</time>
      </trkpt>
      <trkpt lat="43.63096" lon="1.1276">
        <ele>144.500626</ele>
        <time>2012-10-14T11:03:43Z</time>
      </trkpt>
      <trkpt lat="43.63167" lon="1.12851">
        <ele>143.949509</ele>
        <time>2012-10-14T11:03:59Z</time>
      </trkpt>
      <trkpt lat="43.63241" lon="1.12899">
        <ele>143.255005</ele>
        <time>2012-10-14T11:04:13Z</time>
      </trkpt>
      <trkpt lat="43.63252" lon="1.12905">
        <ele>143.017502</ele>
        <time>2012-10-14T11:04:15Z</time>
      </trkpt>
      <trkpt lat="43.63272" lon="1.12922">
        <ele>142.565002</ele>
        <time>2012-10-14T11:04:20Z</time>
      </trkpt>
      <trkpt lat="43.63288" lon="1.12909">
        <ele>142.217499</ele>
        <time>2012-10-14T11:04:25Z</time>
      </trkpt>
      <trkpt lat="43.63349" lon="1.12807">
        <ele>139.839996</ele>
        <time>2012-10-14T11:04:39Z</time>
      </trkpt>
      <trkpt lat="43.63399" lon="1.12686">
        <ele>138.695007</ele>
        <time>2012-10-14T11:04:52Z</time>
      </trkpt>
      <trkpt lat="43.63432" lon="1.12583">
        <ele>138</ele>
        <time>2012-10-14T11:05:03Z</time>
      </trkpt>
      <trkpt lat="43.63458" lon="1.12548">
        <ele>138</ele>
        <time>2012-10-14T11:05:08Z</time>
      </trkpt>
      <trkpt lat="43.63506" lon="1.12521">
        <ele>137.267502</ele>
        <time>2012-10-14T11:05:15Z</time>
      </trkpt>
      <trkpt lat="43.6354" lon="1.12529">
        <ele>137</ele>
        <time>2012-10-14T11:05:20Z</time>
      </trkpt>
      <trkpt lat="43.63626" lon="1.1261">
        <ele>137</ele>
        <time>2012-10-14T11:05:36Z</time>
      </trkpt>
      <trkpt lat="43.6363" lon="1.12616">
        <ele>137</ele>
        <time>2012-10-14T11:05:37Z</time>
      </trkpt>
      <trkpt lat="43.63653" lon="1.12652">
        <ele>137</ele>
        <time>2012-10-14T11:05:43Z</time>
      </trkpt>
      <trkpt lat="43.6374" lon="1.12751">
        <ele>135.112503</ele>
        <time>2012-10-14T11:06:03Z</time>
      </trkpt>
      <trkpt lat="43.63777" lon="1.12789">
        <ele>134.300003</ele>
        <time>2012-10-14T11:06:11Z</time>
      </trkpt>
      <trkpt lat="43.63786" lon="1.12799">
        <ele>134.104996</ele>
        <time>2012-10-14T11:06:13Z</time>
      </trkpt>
      <trkpt lat="43.6382" lon="1.12835">
        <ele>134.330475</ele>
        <time>2012-10-14T11:06:21Z</time>
      </trkpt>
      <trkpt lat="43.63857" lon="1.12877">
        <ele>135</ele>
        <time>2012-10-14T11:06:30Z</time>
      </trkpt>
      <trkpt lat="43.63935" lon="1.12913">
        <ele>136.154221</ele>
        <time>2012-10-14T11:06:45Z</time>
      </trkpt>
      <trkpt lat="43.64024" lon="1.12969">
        <ele>137</ele>
        <time>2012-10-14T11:07:02Z</time>
      </trkpt>
      <trkpt lat="43.64104" lon="1.13038">
        <ele>137.096161</ele>
        <time>2012-10-14T11:07:18Z</time>
      </trkpt>
      <trkpt lat="43.64184" lon="1.13132">
        <ele>137.371567</ele>
        <time>2012-10-14T11:07:36Z</time>
      </trkpt>
      <trkpt lat="43.64276" lon="1.13246">
        <ele>138.684998</ele>
        <time>2012-10-14T11:07:57Z</time>
      </trkpt>
      <trkpt lat="43.64354" lon="1.13321">
        <ele>139.395004</ele>
        <time>2012-10-14T11:08:13Z</time>
      </trkpt>
      <trkpt lat="43.64431" lon="1.13412">
        <ele>138.910004</ele>
        <time>2012-10-14T11:08:30Z</time>
      </trkpt>
      <trkpt lat="43.64493" lon="1.13547">
        <ele>138.565002</ele>
        <time>2012-10-14T11:08:49Z</time>
      </trkpt>
      <trkpt lat="43.64565" lon="1.13703">
        <ele>138.800003</ele>
        <time>2012-10-14T11:09:11Z</time>
      </trkpt>
      <trkpt lat="43.64609" lon="1.13828">
        <ele>138.006378</ele>
        <time>2012-10-14T11:09:28Z</time>
      </trkpt>
      <trkpt lat="43.6462" lon="1.13859">
        <ele>138.063019</ele>
        <time>2012-10-14T11:09:36Z</time>
      </trkpt>
      <trkpt lat="43.64621" lon="1.1386">
        <ele>138.074509</ele>
        <time>2012-10-14T11:09:37Z</time>
      </trkpt>
      <trkpt lat="43.64622" lon="1.13861">
        <ele>138.08728</ele>
        <time>2012-10-14T11:09:38Z</time>
      </trkpt>
      <trkpt lat="43.64623" lon="1.13863">
        <ele>138.106491</ele>
        <time>2012-10-14T11:09:39Z</time>
      </trkpt>
      <trkpt lat="43.64625" lon="1.13866">
        <ele>138.131226</ele>
        <time>2012-10-14T11:09:40Z</time>
      </trkpt>
      <trkpt lat="43.64626" lon="1.13869">
        <ele>138.163666</ele>
        <time>2012-10-14T11:09:41Z</time>
      </trkpt>
      <trkpt lat="43.64628" lon="1.13873">
        <ele>138.204819</ele>
        <time>2012-10-14T11:09:42Z</time>
      </trkpt>
      <trkpt lat="43.64657" lon="1.13934">
        <ele>138.431732</ele>
        <time>2012-10-14T11:09:57Z</time>
      </trkpt>
      <trkpt lat="43.64692" lon="1.13984">
        <ele>138.46817</ele>
        <time>2012-10-14T11:10:11Z</time>
      </trkpt>
      <trkpt lat="43.64729" lon="1.14035">
        <ele>138.572495</ele>
        <time>2012-10-14T11:10:25Z</time>
      </trkpt>
      <trkpt lat="43.64774" lon="1.14097">
        <ele>139</ele>
        <time>2012-10-14T11:10:41Z</time>
      </trkpt>
      <trkpt lat="43.64801" lon="1.14166">
        <ele>138.907471</ele>
        <time>2012-10-14T11:10:56Z</time>
      </trkpt>
      <trkpt lat="43.64812" lon="1.1419">
        <ele>138.910049</ele>
        <time>2012-10-14T11:11:01Z</time>
      </trkpt>
      <trkpt lat="43.64842" lon="1.14261">
        <ele>138.960007</ele>
        <time>2012-10-14T11:11:16Z</time>
      </trkpt>
      <trkpt lat="43.64871" lon="1.14337">
        <ele>139</ele>
        <time>2012-10-14T11:11:32Z</time>
      </trkpt>
      <trkpt lat="43.64889" lon="1.14404">
        <ele>138.971268</ele>
        <time>2012-10-14T11:11:45Z</time>
      </trkpt>
      <trkpt lat="43.6489" lon="1.1441">
        <ele>138.961151</ele>
        <time>2012-10-14T11:11:46Z</time>
      </trkpt>
      <trkpt lat="43.64891" lon="1.14415">
        <ele>138.949905</ele>
        <time>2012-10-14T11:11:47Z</time>
      </trkpt>
      <trkpt lat="43.64912" lon="1.14496">
        <ele>139</ele>
        <time>2012-10-14T11:12:03Z</time>
      </trkpt>
      <trkpt lat="43.64927" lon="1.14553">
        <ele>139</ele>
        <time>2012-10-14T11:12:14Z</time>
      </trkpt>
      <trkpt lat="43.64929" lon="1.14558">
        <ele>139</ele>
        <time>2012-10-14T11:12:15Z</time>
      </trkpt>
      <trkpt lat="43.64931" lon="1.14563">
        <ele>139</ele>
        <time>2012-10-14T11:12:16Z</time>
      </trkpt>
      <trkpt lat="43.64932" lon="1.14568">
        <ele>139</ele>
        <time>2012-10-14T11:12:17Z</time>
      </trkpt>
      <trkpt lat="43.64934" lon="1.14573">
        <ele>138.999893</ele>
        <time>2012-10-14T11:12:18Z</time>
      </trkpt>
      <trkpt lat="43.64941" lon="1.14593">
        <ele>139</ele>
        <time>2012-10-14T11:12:22Z</time>
      </trkpt>
      <trkpt lat="43.64942" lon="1.14599">
        <ele>139</ele>
        <time>2012-10-14T11:12:23Z</time>
      </trkpt>
      <trkpt lat="43.64942" lon="1.14605">
        <ele>139</ele>
        <time>2012-10-14T11:12:24Z</time>
      </trkpt>
      <trkpt lat="43.64942" lon="1.14611">
        <ele>139</ele>
        <time>2012-10-14T11:12:25Z</time>
      </trkpt>
      <trkpt lat="43.64941" lon="1.14616">
        <ele>139</ele>
        <time>2012-10-14T11:12:26Z</time>
      </trkpt>
      <trkpt lat="43.64939" lon="1.14622">
        <ele>139</ele>
        <time>2012-10-14T11:12:27Z</time>
      </trkpt>
      <trkpt lat="43.64937" lon="1.14627">
        <ele>139</ele>
        <time>2012-10-14T11:12:28Z</time>
      </trkpt>
      <trkpt lat="43.64917" lon="1.14678">
        <ele>138.585007</ele>
        <time>2012-10-14T11:12:38Z</time>
      </trkpt>
      <trkpt lat="43.64908" lon="1.14698">
        <ele>138.397507</ele>
        <time>2012-10-14T11:12:42Z</time>
      </trkpt>
      <trkpt lat="43.64907" lon="1.14703">
        <ele>138.34407</ele>
        <time>2012-10-14T11:12:43Z</time>
      </trkpt>
      <trkpt lat="43.64906" lon="1.14707">
        <ele>138.286163</ele>
        <time>2012-10-14T11:12:44Z</time>
      </trkpt>
      <trkpt lat="43.64904" lon="1.14712">
        <ele>138.2341</ele>
        <time>2012-10-14T11:12:45Z</time>
      </trkpt>
      <trkpt lat="43.64902" lon="1.14716">
        <ele>138.187683</ele>
        <time>2012-10-14T11:12:46Z</time>
      </trkpt>
      <trkpt lat="43.64901" lon="1.14731">
        <ele>138.113403</ele>
        <time>2012-10-14T11:12:49Z</time>
      </trkpt>
      <trkpt lat="43.64904" lon="1.14739">
        <ele>138.101517</ele>
        <time>2012-10-14T11:12:51Z</time>
      </trkpt>
      <trkpt lat="43.64906" lon="1.14743">
        <ele>138.0979</ele>
        <time>2012-10-14T11:12:52Z</time>
      </trkpt>
      <trkpt lat="43.64948" lon="1.14791">
        <ele>138.133087</ele>
        <time>2012-10-14T11:13:06Z</time>
      </trkpt>
      <trkpt lat="43.64987" lon="1.14843">
        <ele>138.070328</ele>
        <time>2012-10-14T11:13:19Z</time>
      </trkpt>
      <trkpt lat="43.65007" lon="1.14901">
        <ele>138</ele>
        <time>2012-10-14T11:13:30Z</time>
      </trkpt>
      <trkpt lat="43.65009" lon="1.14907">
        <ele>138</ele>
        <time>2012-10-14T11:13:31Z</time>
      </trkpt>
      <trkpt lat="43.6501" lon="1.14912">
        <ele>138</ele>
        <time>2012-10-14T11:13:32Z</time>
      </trkpt>
      <trkpt lat="43.65012" lon="1.14918">
        <ele>138</ele>
        <time>2012-10-14T11:13:33Z</time>
      </trkpt>
      <trkpt lat="43.65014" lon="1.14924">
        <ele>138</ele>
        <time>2012-10-14T11:13:34Z</time>
      </trkpt>
      <trkpt lat="43.6502" lon="1.14947">
        <ele>138</ele>
        <time>2012-10-14T11:13:38Z</time>
      </trkpt>
      <trkpt lat="43.65022" lon="1.14953">
        <ele>138</ele>
        <time>2012-10-14T11:13:39Z</time>
      </trkpt>
      <trkpt lat="43.65024" lon="1.14958">
        <ele>138</ele>
        <time>2012-10-14T11:13:40Z</time>
      </trkpt>
      <trkpt lat="43.65031" lon="1.14981">
        <ele>138</ele>
        <time>2012-10-14T11:13:44Z</time>
      </trkpt>
      <trkpt lat="43.65051" lon="1.15064">
        <ele>138</ele>
        <time>2012-10-14T11:13:58Z</time>
      </trkpt>
      <trkpt lat="43.6506" lon="1.15087">
        <ele>137.666245</ele>
        <time>2012-10-14T11:14:05Z</time>
      </trkpt>
      <trkpt lat="43.6506" lon="1.1509">
        <ele>137.63063</ele>
        <time>2012-10-14T11:14:06Z</time>
      </trkpt>
      <trkpt lat="43.65061" lon="1.15091">
        <ele>137.601257</ele>
        <time>2012-10-14T11:14:07Z</time>
      </trkpt>
      <trkpt lat="43.65063" lon="1.15093">
        <ele>137.58313</ele>
        <time>2012-10-14T11:14:08Z</time>
      </trkpt>
      <trkpt lat="43.65065" lon="1.15093">
        <ele>137.579376</ele>
        <time>2012-10-14T11:14:09Z</time>
      </trkpt>
      <trkpt lat="43.65067" lon="1.15092">
        <ele>137.593124</ele>
        <time>2012-10-14T11:14:10Z</time>
      </trkpt>
      <trkpt lat="43.6507" lon="1.1509">
        <ele>137.627502</ele>
        <time>2012-10-14T11:14:11Z</time>
      </trkpt>
      <trkpt lat="43.65072" lon="1.15087">
        <ele>137.66687</ele>
        <time>2012-10-14T11:14:12Z</time>
      </trkpt>
      <trkpt lat="43.65075" lon="1.15085">
        <ele>137.708694</ele>
        <time>2012-10-14T11:14:13Z</time>
      </trkpt>
      <trkpt lat="43.65119" lon="1.1504">
        <ele>138</ele>
        <time>2012-10-14T11:14:26Z</time>
      </trkpt>
      <trkpt lat="43.6513" lon="1.15031">
        <ele>138.257507</ele>
        <time>2012-10-14T11:14:29Z</time>
      </trkpt>
      <trkpt lat="43.65134" lon="1.15029">
        <ele>138.342499</ele>
        <time>2012-10-14T11:14:30Z</time>
      </trkpt>
      <trkpt lat="43.65157" lon="1.15022">
        <ele>138.860001</ele>
        <time>2012-10-14T11:14:36Z</time>
      </trkpt>
      <trkpt lat="43.65162" lon="1.15021">
        <ele>138.957504</ele>
        <time>2012-10-14T11:14:37Z</time>
      </trkpt>
      <trkpt lat="43.6517" lon="1.1502">
        <ele>139</ele>
        <time>2012-10-14T11:14:39Z</time>
      </trkpt>
      <trkpt lat="43.65208" lon="1.15018">
        <ele>139</ele>
        <time>2012-10-14T11:14:47Z</time>
      </trkpt>
      <trkpt lat="43.65226" lon="1.15009">
        <ele>138.600006</ele>
        <time>2012-10-14T11:14:51Z</time>
      </trkpt>
      <trkpt lat="43.65248" lon="1.14991">
        <ele>138.110001</ele>
        <time>2012-10-14T11:14:56Z</time>
      </trkpt>
      <trkpt lat="43.65252" lon="1.14986">
        <ele>138.022507</ele>
        <time>2012-10-14T11:14:57Z</time>
      </trkpt>
      <trkpt lat="43.65259" lon="1.14976">
        <ele>137.869995</ele>
        <time>2012-10-14T11:14:59Z</time>
      </trkpt>
      <trkpt lat="43.65262" lon="1.14971">
        <ele>137.807495</ele>
        <time>2012-10-14T11:15:00Z</time>
      </trkpt>
      <trkpt lat="43.65266" lon="1.14959">
        <ele>137.705002</ele>
        <time>2012-10-14T11:15:02Z</time>
      </trkpt>
      <trkpt lat="43.6527" lon="1.14946">
        <ele>137.619995</ele>
        <time>2012-10-14T11:15:04Z</time>
      </trkpt>
      <trkpt lat="43.65275" lon="1.14926">
        <ele>137.502502</ele>
        <time>2012-10-14T11:15:07Z</time>
      </trkpt>
      <trkpt lat="43.65276" lon="1.14918">
        <ele>137.470001</ele>
        <time>2012-10-14T11:15:08Z</time>
      </trkpt>
      <trkpt lat="43.65296" lon="1.14832">
        <ele>137.002899</ele>
        <time>2012-10-14T11:15:20Z</time>
      </trkpt>
      <trkpt lat="43.65298" lon="1.14826">
        <ele>137.045151</ele>
        <time>2012-10-14T11:15:21Z</time>
      </trkpt>
      <trkpt lat="43.65306" lon="1.14795">
        <ele>137.191055</ele>
        <time>2012-10-14T11:15:27Z</time>
      </trkpt>
      <trkpt lat="43.65309" lon="1.14792">
        <ele>137.314774</ele>
        <time>2012-10-14T11:15:28Z</time>
      </trkpt>
      <trkpt lat="43.65312" lon="1.14791">
        <ele>137.491882</ele>
        <time>2012-10-14T11:15:29Z</time>
      </trkpt>
      <trkpt lat="43.65316" lon="1.1479">
        <ele>137.679871</ele>
        <time>2012-10-14T11:15:30Z</time>
      </trkpt>
      <trkpt lat="43.6532" lon="1.1479">
        <ele>137.881989</ele>
        <time>2012-10-14T11:15:31Z</time>
      </trkpt>
      <trkpt lat="43.65323" lon="1.14793">
        <ele>138.058655</ele>
        <time>2012-10-14T11:15:32Z</time>
      </trkpt>
      <trkpt lat="43.65325" lon="1.14797">
        <ele>138.215134</ele>
        <time>2012-10-14T11:15:33Z</time>
      </trkpt>
      <trkpt lat="43.65328" lon="1.14801">
        <ele>138.35376</ele>
        <time>2012-10-14T11:15:34Z</time>
      </trkpt>
      <trkpt lat="43.65341" lon="1.1482">
        <ele>138.882645</ele>
        <time>2012-10-14T11:15:39Z</time>
      </trkpt>
      <trkpt lat="43.65344" lon="1.14823">
        <ele>139.002579</ele>
        <time>2012-10-14T11:15:40Z</time>
      </trkpt>
      <trkpt lat="43.65353" lon="1.14836">
        <ele>139.186569</ele>
        <time>2012-10-14T11:15:43Z</time>
      </trkpt>
      <trkpt lat="43.6536" lon="1.14847">
        <ele>139.235214</ele>
        <time>2012-10-14T11:15:46Z</time>
      </trkpt>
      <trkpt lat="43.65363" lon="1.14848">
        <ele>139.325943</ele>
        <time>2012-10-14T11:15:47Z</time>
      </trkpt>
      <trkpt lat="43.65366" lon="1.14848">
        <ele>139.437744</ele>
        <time>2012-10-14T11:15:48Z</time>
      </trkpt>
      <trkpt lat="43.65368" lon="1.14847">
        <ele>139.558594</ele>
        <time>2012-10-14T11:15:49Z</time>
      </trkpt>
      <trkpt lat="43.6537" lon="1.14847">
        <ele>139.675034</ele>
        <time>2012-10-14T11:15:50Z</time>
      </trkpt>
      <trkpt lat="43.654" lon="1.1483">
        <ele>142.016876</ele>
        <time>2012-10-14T11:16:07Z</time>
      </trkpt>
      <trkpt lat="43.65413" lon="1.14823">
        <ele>143.286255</ele>
        <time>2012-10-14T11:16:15Z</time>
      </trkpt>
      <trkpt lat="43.65415" lon="1.14821">
        <ele>143.456879</ele>
        <time>2012-10-14T11:16:16Z</time>
      </trkpt>
      <trkpt lat="43.65437" lon="1.14805">
        <ele>146.383759</ele>
        <time>2012-10-14T11:16:29Z</time>
      </trkpt>
      <trkpt lat="43.65459" lon="1.14792">
        <ele>149.582382</ele>
        <time>2012-10-14T11:16:43Z</time>
      </trkpt>
      <trkpt lat="43.65482" lon="1.14792">
        <ele>152.295349</ele>
        <time>2012-10-14T11:16:58Z</time>
      </trkpt>
      <trkpt lat="43.65502" lon="1.14808">
        <ele>155.674896</ele>
        <time>2012-10-14T11:17:14Z</time>
      </trkpt>
      <trkpt lat="43.65522" lon="1.14826">
        <ele>159.134995</ele>
        <time>2012-10-14T11:17:30Z</time>
      </trkpt>
      <trkpt lat="43.65544" lon="1.14845">
        <ele>163.477493</ele>
        <time>2012-10-14T11:17:46Z</time>
      </trkpt>
      <trkpt lat="43.65565" lon="1.14863">
        <ele>167.617493</ele>
        <time>2012-10-14T11:18:02Z</time>
      </trkpt>
      <trkpt lat="43.65582" lon="1.1487">
        <ele>170.839996</ele>
        <time>2012-10-14T11:18:15Z</time>
      </trkpt>
      <trkpt lat="43.65608" lon="1.14875">
        <ele>175.264786</ele>
        <time>2012-10-14T11:18:32Z</time>
      </trkpt>
      <trkpt lat="43.65633" lon="1.1488">
        <ele>179.483307</ele>
        <time>2012-10-14T11:18:48Z</time>
      </trkpt>
      <trkpt lat="43.65647" lon="1.14881">
        <ele>181.987732</ele>
        <time>2012-10-14T11:18:57Z</time>
      </trkpt>
      <trkpt lat="43.65648" lon="1.1488">
        <ele>182.240875</ele>
        <time>2012-10-14T11:18:58Z</time>
      </trkpt>
      <trkpt lat="43.65671" lon="1.14882">
        <ele>185.236282</ele>
        <time>2012-10-14T11:19:13Z</time>
      </trkpt>
      <trkpt lat="43.65694" lon="1.14876">
        <ele>187.579544</ele>
        <time>2012-10-14T11:19:29Z</time>
      </trkpt>
      <trkpt lat="43.65695" lon="1.14818">
        <ele>185.282806</ele>
        <time>2012-10-14T11:19:42Z</time>
      </trkpt>
      <trkpt lat="43.65695" lon="1.14705">
        <ele>183.073746</ele>
        <time>2012-10-14T11:19:56Z</time>
      </trkpt>
      <trkpt lat="43.65702" lon="1.14599">
        <ele>183.133331</ele>
        <time>2012-10-14T11:20:10Z</time>
      </trkpt>
      <trkpt lat="43.65704" lon="1.14593">
        <ele>183.183899</ele>
        <time>2012-10-14T11:20:11Z</time>
      </trkpt>
      <trkpt lat="43.65705" lon="1.14588">
        <ele>183.22438</ele>
        <time>2012-10-14T11:20:12Z</time>
      </trkpt>
      <trkpt lat="43.65723" lon="1.1453">
        <ele>184.647583</ele>
        <time>2012-10-14T11:20:22Z</time>
      </trkpt>
      <trkpt lat="43.65724" lon="1.14524">
        <ele>184.904587</ele>
        <time>2012-10-14T11:20:23Z</time>
      </trkpt>
      <trkpt lat="43.65734" lon="1.1449">
        <ele>187.043564</ele>
        <time>2012-10-14T11:20:33Z</time>
      </trkpt>
      <trkpt lat="43.65739" lon="1.14486">
        <ele>187.487839</ele>
        <time>2012-10-14T11:20:36Z</time>
      </trkpt>
      <trkpt lat="43.65741" lon="1.14485">
        <ele>187.618271</ele>
        <time>2012-10-14T11:20:37Z</time>
      </trkpt>
      <trkpt lat="43.65744" lon="1.14484">
        <ele>187.510101</ele>
        <time>2012-10-14T11:20:38Z</time>
      </trkpt>
      <trkpt lat="43.65746" lon="1.14483">
        <ele>187.281784</ele>
        <time>2012-10-14T11:20:39Z</time>
      </trkpt>
      <trkpt lat="43.65749" lon="1.14482">
        <ele>187.031723</ele>
        <time>2012-10-14T11:20:40Z</time>
      </trkpt>
      <trkpt lat="43.65751" lon="1.14481">
        <ele>186.795059</ele>
        <time>2012-10-14T11:20:41Z</time>
      </trkpt>
      <trkpt lat="43.65754" lon="1.14481">
        <ele>186.545807</ele>
        <time>2012-10-14T11:20:42Z</time>
      </trkpt>
      <trkpt lat="43.65757" lon="1.1448">
        <ele>186.281311</ele>
        <time>2012-10-14T11:20:43Z</time>
      </trkpt>
      <trkpt lat="43.65797" lon="1.14468">
        <ele>182.615631</ele>
        <time>2012-10-14T11:20:54Z</time>
      </trkpt>
      <trkpt lat="43.65884" lon="1.14441">
        <ele>172.981598</ele>
        <time>2012-10-14T11:21:04Z</time>
      </trkpt>
      <trkpt lat="43.65902" lon="1.14437">
        <ele>170.602295</ele>
        <time>2012-10-14T11:21:06Z</time>
      </trkpt>
      <trkpt lat="43.65911" lon="1.14437">
        <ele>169.212097</ele>
        <time>2012-10-14T11:21:07Z</time>
      </trkpt>
      <trkpt lat="43.6592" lon="1.14439">
        <ele>167.750504</ele>
        <time>2012-10-14T11:21:08Z</time>
      </trkpt>
      <trkpt lat="43.65967" lon="1.14459">
        <ele>161.552872</ele>
        <time>2012-10-14T11:21:14Z</time>
      </trkpt>
      <trkpt lat="43.65969" lon="1.14463">
        <ele>161.373047</ele>
        <time>2012-10-14T11:21:15Z</time>
      </trkpt>
      <trkpt lat="43.6597" lon="1.14469">
        <ele>161.128708</ele>
        <time>2012-10-14T11:21:16Z</time>
      </trkpt>
      <trkpt lat="43.65965" lon="1.14526">
        <ele>159.077576</ele>
        <time>2012-10-14T11:21:27Z</time>
      </trkpt>
      <trkpt lat="43.65966" lon="1.1453">
        <ele>158.834778</ele>
        <time>2012-10-14T11:21:28Z</time>
      </trkpt>
      <trkpt lat="43.65969" lon="1.14532">
        <ele>158.745544</ele>
        <time>2012-10-14T11:21:29Z</time>
      </trkpt>
      <trkpt lat="43.65972" lon="1.14533">
        <ele>158.91272</ele>
        <time>2012-10-14T11:21:30Z</time>
      </trkpt>
      <trkpt lat="43.65975" lon="1.14532">
        <ele>159.132629</ele>
        <time>2012-10-14T11:21:31Z</time>
      </trkpt>
      <trkpt lat="43.65978" lon="1.1453">
        <ele>159.364639</ele>
        <time>2012-10-14T11:21:32Z</time>
      </trkpt>
      <trkpt lat="43.65981" lon="1.14528">
        <ele>159.593155</ele>
        <time>2012-10-14T11:21:33Z</time>
      </trkpt>
      <trkpt lat="43.65984" lon="1.14525">
        <ele>159.820068</ele>
        <time>2012-10-14T11:21:34Z</time>
      </trkpt>
      <trkpt lat="43.65987" lon="1.14523">
        <ele>160.041992</ele>
        <time>2012-10-14T11:21:35Z</time>
      </trkpt>
      <trkpt lat="43.6599" lon="1.14522">
        <ele>160.250351</ele>
        <time>2012-10-14T11:21:36Z</time>
      </trkpt>
      <trkpt lat="43.65993" lon="1.1452">
        <ele>160.441193</ele>
        <time>2012-10-14T11:21:37Z</time>
      </trkpt>
      <trkpt lat="43.66026" lon="1.14492">
        <ele>163.892502</ele>
        <time>2012-10-14T11:21:52Z</time>
      </trkpt>
      <trkpt lat="43.66059" lon="1.14459">
        <ele>168.287506</ele>
        <time>2012-10-14T11:22:13Z</time>
      </trkpt>
      <trkpt lat="43.66077" lon="1.14436">
        <ele>170.300003</ele>
        <time>2012-10-14T11:22:27Z</time>
      </trkpt>
      <trkpt lat="43.66098" lon="1.14411">
        <ele>172.6875</ele>
        <time>2012-10-14T11:22:44Z</time>
      </trkpt>
      <trkpt lat="43.66121" lon="1.14381">
        <ele>173.445007</ele>
        <time>2012-10-14T11:23:03Z</time>
      </trkpt>
      <trkpt lat="43.66125" lon="1.14376">
        <ele>173.544998</ele>
        <time>2012-10-14T11:23:07Z</time>
      </trkpt>
      <trkpt lat="43.66142" lon="1.14356">
        <ele>174.140366</ele>
        <time>2012-10-14T11:23:21Z</time>
      </trkpt>
      <trkpt lat="43.66173" lon="1.14314">
        <ele>173.210388</ele>
        <time>2012-10-14T11:23:31Z</time>
      </trkpt>
      <trkpt lat="43.6624" lon="1.14228">
        <ele>165.22287</ele>
        <time>2012-10-14T11:23:41Z</time>
      </trkpt>
      <trkpt lat="43.66298" lon="1.1418">
        <ele>157.690002</ele>
        <time>2012-10-14T11:23:47Z</time>
      </trkpt>
      <trkpt lat="43.66308" lon="1.14175">
        <ele>156.690628</ele>
        <time>2012-10-14T11:23:48Z</time>
      </trkpt>
      <trkpt lat="43.66317" lon="1.14172">
        <ele>155.71077</ele>
        <time>2012-10-14T11:23:49Z</time>
      </trkpt>
      <trkpt lat="43.66365" lon="1.1417">
        <ele>159.635056</ele>
        <time>2012-10-14T11:23:57Z</time>
      </trkpt>
      <trkpt lat="43.66392" lon="1.1417">
        <ele>163.788925</ele>
        <time>2012-10-14T11:24:10Z</time>
      </trkpt>
      <trkpt lat="43.66422" lon="1.1417">
        <ele>168.138748</ele>
        <time>2012-10-14T11:24:28Z</time>
      </trkpt>
      <trkpt lat="43.66423" lon="1.1417">
        <ele>168.370621</ele>
        <time>2012-10-14T11:24:29Z</time>
      </trkpt>
      <trkpt lat="43.6643" lon="1.1417">
        <ele>169.334991</ele>
        <time>2012-10-14T11:24:34Z</time>
      </trkpt>
      <trkpt lat="43.66432" lon="1.1417">
        <ele>169.496872</ele>
        <time>2012-10-14T11:24:35Z</time>
      </trkpt>
      <trkpt lat="43.66433" lon="1.1417">
        <ele>169.674377</ele>
        <time>2012-10-14T11:24:36Z</time>
      </trkpt>
      <trkpt lat="43.66435" lon="1.1417">
        <ele>169.869995</ele>
        <time>2012-10-14T11:24:37Z</time>
      </trkpt>
      <trkpt lat="43.66436" lon="1.14171">
        <ele>170.106247</ele>
        <time>2012-10-14T11:24:38Z</time>
      </trkpt>
      <trkpt lat="43.66437" lon="1.14171">
        <ele>170.279999</ele>
        <time>2012-10-14T11:24:39Z</time>
      </trkpt>
      <trkpt lat="43.66439" lon="1.14171">
        <ele>170.458755</ele>
        <time>2012-10-14T11:24:40Z</time>
      </trkpt>
      <trkpt lat="43.6644" lon="1.14171">
        <ele>170.610626</ele>
        <time>2012-10-14T11:24:41Z</time>
      </trkpt>
      <trkpt lat="43.66441" lon="1.14171">
        <ele>170.792953</ele>
        <time>2012-10-14T11:24:42Z</time>
      </trkpt>
      <trkpt lat="43.66443" lon="1.14171">
        <ele>170.956894</ele>
        <time>2012-10-14T11:24:43Z</time>
      </trkpt>
      <trkpt lat="43.66469" lon="1.14172">
        <ele>173.99472</ele>
        <time>2012-10-14T11:25:02Z</time>
      </trkpt>
      <trkpt lat="43.66504" lon="1.14172">
        <ele>177.039474</ele>
        <time>2012-10-14T11:25:21Z</time>
      </trkpt>
      <trkpt lat="43.66537" lon="1.14172">
        <ele>180.745468</ele>
        <time>2012-10-14T11:25:39Z</time>
      </trkpt>
      <trkpt lat="43.66558" lon="1.14171">
        <ele>183.497238</ele>
        <time>2012-10-14T11:25:52Z</time>
      </trkpt>
      <trkpt lat="43.66584" lon="1.14173">
        <ele>187.553391</ele>
        <time>2012-10-14T11:26:11Z</time>
      </trkpt>
      <trkpt lat="43.66585" lon="1.14173">
        <ele>187.767487</ele>
        <time>2012-10-14T11:26:12Z</time>
      </trkpt>
      <trkpt lat="43.66586" lon="1.14172">
        <ele>187.96579</ele>
        <time>2012-10-14T11:26:13Z</time>
      </trkpt>
      <trkpt lat="43.66588" lon="1.14172">
        <ele>188.233124</ele>
        <time>2012-10-14T11:26:14Z</time>
      </trkpt>
      <trkpt lat="43.66589" lon="1.14173">
        <ele>188.482254</ele>
        <time>2012-10-14T11:26:15Z</time>
      </trkpt>
      <trkpt lat="43.66591" lon="1.14173">
        <ele>188.714157</ele>
        <time>2012-10-14T11:26:16Z</time>
      </trkpt>
      <trkpt lat="43.66592" lon="1.14173">
        <ele>188.946426</ele>
        <time>2012-10-14T11:26:17Z</time>
      </trkpt>
      <trkpt lat="43.66611" lon="1.14174">
        <ele>192.121002</ele>
        <time>2012-10-14T11:26:30Z</time>
      </trkpt>
      <trkpt lat="43.66617" lon="1.14174">
        <ele>193.205933</ele>
        <time>2012-10-14T11:26:35Z</time>
      </trkpt>
      <trkpt lat="43.66618" lon="1.14174">
        <ele>193.440308</ele>
        <time>2012-10-14T11:26:36Z</time>
      </trkpt>
      <trkpt lat="43.6662" lon="1.14174">
        <ele>193.671753</ele>
        <time>2012-10-14T11:26:37Z</time>
      </trkpt>
      <trkpt lat="43.66621" lon="1.14174">
        <ele>193.904556</ele>
        <time>2012-10-14T11:26:38Z</time>
      </trkpt>
      <trkpt lat="43.66622" lon="1.14175">
        <ele>194.109604</ele>
        <time>2012-10-14T11:26:39Z</time>
      </trkpt>
      <trkpt lat="43.66624" lon="1.14175">
        <ele>194.331558</ele>
        <time>2012-10-14T11:26:40Z</time>
      </trkpt>
      <trkpt lat="43.66641" lon="1.14176">
        <ele>196.989319</ele>
        <time>2012-10-14T11:26:55Z</time>
      </trkpt>
      <trkpt lat="43.66643" lon="1.14176">
        <ele>197.207458</ele>
        <time>2012-10-14T11:26:57Z</time>
      </trkpt>
      <trkpt lat="43.66644" lon="1.14176">
        <ele>197.314545</ele>
        <time>2012-10-14T11:26:58Z</time>
      </trkpt>
      <trkpt lat="43.66645" lon="1.14176">
        <ele>197.434906</ele>
        <time>2012-10-14T11:26:59Z</time>
      </trkpt>
      <trkpt lat="43.66648" lon="1.14176">
        <ele>197.707886</ele>
        <time>2012-10-14T11:27:01Z</time>
      </trkpt>
      <trkpt lat="43.66649" lon="1.14174">
        <ele>197.925354</ele>
        <time>2012-10-14T11:27:02Z</time>
      </trkpt>
      <trkpt lat="43.66651" lon="1.14173">
        <ele>198.096375</ele>
        <time>2012-10-14T11:27:03Z</time>
      </trkpt>
      <trkpt lat="43.66652" lon="1.14172">
        <ele>198.248245</ele>
        <time>2012-10-14T11:27:04Z</time>
      </trkpt>
      <trkpt lat="43.66656" lon="1.14168">
        <ele>198.949997</ele>
        <time>2012-10-14T11:27:09Z</time>
      </trkpt>
      <trkpt lat="43.66657" lon="1.14167">
        <ele>199.129257</ele>
        <time>2012-10-14T11:27:10Z</time>
      </trkpt>
      <trkpt lat="43.66658" lon="1.14167">
        <ele>199.242035</ele>
        <time>2012-10-14T11:27:11Z</time>
      </trkpt>
      <trkpt lat="43.66659" lon="1.14166">
        <ele>199.343796</ele>
        <time>2012-10-14T11:27:12Z</time>
      </trkpt>
      <trkpt lat="43.66659" lon="1.14165">
        <ele>199.401825</ele>
        <time>2012-10-14T11:27:13Z</time>
      </trkpt>
      <trkpt lat="43.66658" lon="1.14163">
        <ele>199.36467</ele>
        <time>2012-10-14T11:27:27Z</time>
      </trkpt>
      <trkpt lat="43.66658" lon="1.14162">
        <ele>199.365921</ele>
        <time>2012-10-14T11:28:22Z</time>
      </trkpt>
      <trkpt lat="43.66658" lon="1.14162">
        <ele>199.354874</ele>
        <time>2012-10-14T11:28:59Z</time>
      </trkpt>
      <trkpt lat="43.66658" lon="1.14162">
        <ele>199.353638</ele>
        <time>2012-10-14T11:29:45Z</time>
      </trkpt>
      <trkpt lat="43.66659" lon="1.14141">
        <ele>199.580124</ele>
        <time>2012-10-14T11:29:56Z</time>
      </trkpt>
      <trkpt lat="43.66666" lon="1.14102">
        <ele>201.195389</ele>
        <time>2012-10-14T11:30:10Z</time>
      </trkpt>
      <trkpt lat="43.66688" lon="1.14059">
        <ele>204.09082</ele>
        <time>2012-10-14T11:30:24Z</time>
      </trkpt>
      <trkpt lat="43.66723" lon="1.14027">
        <ele>209.022263</ele>
        <time>2012-10-14T11:30:43Z</time>
      </trkpt>
      <trkpt lat="43.66756" lon="1.13996">
        <ele>209.458176</ele>
        <time>2012-10-14T11:31:02Z</time>
      </trkpt>
      <trkpt lat="43.66794" lon="1.13959">
        <ele>209.904297</ele>
        <time>2012-10-14T11:31:16Z</time>
      </trkpt>
      <trkpt lat="43.66859" lon="1.13895">
        <ele>209.00705</ele>
        <time>2012-10-14T11:31:32Z</time>
      </trkpt>
      <trkpt lat="43.66903" lon="1.13839">
        <ele>210.315918</ele>
        <time>2012-10-14T11:31:48Z</time>
      </trkpt>
      <trkpt lat="43.6694" lon="1.13823">
        <ele>213.106445</ele>
        <time>2012-10-14T11:32:01Z</time>
      </trkpt>
      <trkpt lat="43.66979" lon="1.13815">
        <ele>217.690384</ele>
        <time>2012-10-14T11:32:18Z</time>
      </trkpt>
      <trkpt lat="43.67002" lon="1.13809">
        <ele>220.72641</ele>
        <time>2012-10-14T11:32:31Z</time>
      </trkpt>
      <trkpt lat="43.67031" lon="1.13792">
        <ele>225.603348</ele>
        <time>2012-10-14T11:32:47Z</time>
      </trkpt>
      <trkpt lat="43.67059" lon="1.13783">
        <ele>229.906693</ele>
        <time>2012-10-14T11:33:03Z</time>
      </trkpt>
      <trkpt lat="43.67091" lon="1.13786">
        <ele>234.483704</ele>
        <time>2012-10-14T11:33:21Z</time>
      </trkpt>
      <trkpt lat="43.67122" lon="1.13793">
        <ele>239.401245</ele>
        <time>2012-10-14T11:33:38Z</time>
      </trkpt>
      <trkpt lat="43.67155" lon="1.13811">
        <ele>243.842987</ele>
        <time>2012-10-14T11:33:56Z</time>
      </trkpt>
      <trkpt lat="43.67181" lon="1.13838">
        <ele>246.700562</ele>
        <time>2012-10-14T11:34:12Z</time>
      </trkpt>
      <trkpt lat="43.67195" lon="1.13868">
        <ele>248.377502</ele>
        <time>2012-10-14T11:34:26Z</time>
      </trkpt>
      <trkpt lat="43.67199" lon="1.13881">
        <ele>248.902496</ele>
        <time>2012-10-14T11:34:32Z</time>
      </trkpt>
      <trkpt lat="43.67199" lon="1.13883">
        <ele>248.902496</ele>
        <time>2012-10-14T11:34:33Z</time>
      </trkpt>
      <trkpt lat="43.67199" lon="1.13885">
        <ele>248.972504</ele>
        <time>2012-10-14T11:34:34Z</time>
      </trkpt>
      <trkpt lat="43.672" lon="1.13887">
        <ele>249.059998</ele>
        <time>2012-10-14T11:34:35Z</time>
      </trkpt>
      <trkpt lat="43.672" lon="1.13889">
        <ele>249.112503</ele>
        <time>2012-10-14T11:34:36Z</time>
      </trkpt>
      <trkpt lat="43.67201" lon="1.13891">
        <ele>249.182495</ele>
        <time>2012-10-14T11:34:37Z</time>
      </trkpt>
      <trkpt lat="43.67201" lon="1.13893">
        <ele>249.217499</ele>
        <time>2012-10-14T11:34:38Z</time>
      </trkpt>
      <trkpt lat="43.67201" lon="1.13895">
        <ele>249.270004</ele>
        <time>2012-10-14T11:34:39Z</time>
      </trkpt>
      <trkpt lat="43.67202" lon="1.13897">
        <ele>249.375</ele>
        <time>2012-10-14T11:34:40Z</time>
      </trkpt>
      <trkpt lat="43.67203" lon="1.13899">
        <ele>249.497498</ele>
        <time>2012-10-14T11:34:41Z</time>
      </trkpt>
      <trkpt lat="43.67203" lon="1.13901">
        <ele>249.567505</ele>
        <time>2012-10-14T11:34:42Z</time>
      </trkpt>
      <trkpt lat="43.67204" lon="1.13902">
        <ele>249.672501</ele>
        <time>2012-10-14T11:34:43Z</time>
      </trkpt>
      <trkpt lat="43.67205" lon="1.13904">
        <ele>249.830002</ele>
        <time>2012-10-14T11:34:44Z</time>
      </trkpt>
      <trkpt lat="43.67206" lon="1.13905">
        <ele>249.970001</ele>
        <time>2012-10-14T11:34:45Z</time>
      </trkpt>
      <trkpt lat="43.67207" lon="1.13907">
        <ele>250.074997</ele>
        <time>2012-10-14T11:34:46Z</time>
      </trkpt>
      <trkpt lat="43.67207" lon="1.13909">
        <ele>250.133545</ele>
        <time>2012-10-14T11:34:47Z</time>
      </trkpt>
      <trkpt lat="43.67207" lon="1.13911">
        <ele>250.167496</ele>
        <time>2012-10-14T11:34:48Z</time>
      </trkpt>
      <trkpt lat="43.67222" lon="1.13936">
        <ele>251.475967</ele>
        <time>2012-10-14T11:35:00Z</time>
      </trkpt>
      <trkpt lat="43.67227" lon="1.1394">
        <ele>251.304382</ele>
        <time>2012-10-14T11:35:15Z</time>
      </trkpt>
      <trkpt lat="43.67232" lon="1.13941">
        <ele>251.150589</ele>
        <time>2012-10-14T11:35:54Z</time>
      </trkpt>
      <trkpt lat="43.67233" lon="1.13941">
        <ele>251.108276</ele>
        <time>2012-10-14T11:35:55Z</time>
      </trkpt>
      <trkpt lat="43.67234" lon="1.13941">
        <ele>251.091309</ele>
        <time>2012-10-14T11:35:56Z</time>
      </trkpt>
      <trkpt lat="43.67234" lon="1.13937">
        <ele>251.188675</ele>
        <time>2012-10-14T11:35:58Z</time>
      </trkpt>
      <trkpt lat="43.67233" lon="1.13936">
        <ele>251.252777</ele>
        <time>2012-10-14T11:35:59Z</time>
      </trkpt>
      <trkpt lat="43.67232" lon="1.13934">
        <ele>251.312149</ele>
        <time>2012-10-14T11:36:00Z</time>
      </trkpt>
      <trkpt lat="43.67231" lon="1.13933">
        <ele>251.363693</ele>
        <time>2012-10-14T11:36:01Z</time>
      </trkpt>
      <trkpt lat="43.6723" lon="1.13932">
        <ele>251.415833</ele>
        <time>2012-10-14T11:36:02Z</time>
      </trkpt>
      <trkpt lat="43.67228" lon="1.13931">
        <ele>251.465958</ele>
        <time>2012-10-14T11:36:03Z</time>
      </trkpt>
      <trkpt lat="43.67228" lon="1.13929">
        <ele>251.508438</ele>
        <time>2012-10-14T11:36:04Z</time>
      </trkpt>
      <trkpt lat="43.67227" lon="1.13928">
        <ele>251.546188</ele>
        <time>2012-10-14T11:36:05Z</time>
      </trkpt>
      <trkpt lat="43.67225" lon="1.13927">
        <ele>251.580002</ele>
        <time>2012-10-14T11:36:06Z</time>
      </trkpt>
      <trkpt lat="43.67224" lon="1.13927">
        <ele>251.612595</ele>
        <time>2012-10-14T11:36:07Z</time>
      </trkpt>
      <trkpt lat="43.67223" lon="1.13927">
        <ele>251.630722</ele>
        <time>2012-10-14T11:36:08Z</time>
      </trkpt>
      <trkpt lat="43.67221" lon="1.13928">
        <ele>251.632187</ele>
        <time>2012-10-14T11:36:24Z</time>
      </trkpt>
      <trkpt lat="43.67211" lon="1.13926">
        <ele>250.469925</ele>
        <time>2012-10-14T11:36:44Z</time>
      </trkpt>
      <trkpt lat="43.67208" lon="1.13928">
        <ele>250.150024</ele>
        <time>2012-10-14T11:36:45Z</time>
      </trkpt>
      <trkpt lat="43.67207" lon="1.13931">
        <ele>249.969635</ele>
        <time>2012-10-14T11:36:46Z</time>
      </trkpt>
      <trkpt lat="43.67207" lon="1.13935">
        <ele>249.848053</ele>
        <time>2012-10-14T11:36:47Z</time>
      </trkpt>
      <trkpt lat="43.67206" lon="1.13939">
        <ele>249.755798</ele>
        <time>2012-10-14T11:36:48Z</time>
      </trkpt>
      <trkpt lat="43.67203" lon="1.13962">
        <ele>249.232025</ele>
        <time>2012-10-14T11:36:52Z</time>
      </trkpt>
      <trkpt lat="43.67203" lon="1.13969">
        <ele>249.125473</ele>
        <time>2012-10-14T11:36:53Z</time>
      </trkpt>
      <trkpt lat="43.67201" lon="1.13985">
        <ele>248.226578</ele>
        <time>2012-10-14T11:36:55Z</time>
      </trkpt>
      <trkpt lat="43.67187" lon="1.14036">
        <ele>245.426971</ele>
        <time>2012-10-14T11:37:01Z</time>
      </trkpt>
      <trkpt lat="43.67185" lon="1.14046">
        <ele>245.148499</ele>
        <time>2012-10-14T11:37:02Z</time>
      </trkpt>
      <trkpt lat="43.67178" lon="1.14097">
        <ele>243.985001</ele>
        <time>2012-10-14T11:37:07Z</time>
      </trkpt>
      <trkpt lat="43.67196" lon="1.14216">
        <ele>242.424377</ele>
        <time>2012-10-14T11:37:20Z</time>
      </trkpt>
      <trkpt lat="43.67214" lon="1.14282">
        <ele>242.293045</ele>
        <time>2012-10-14T11:37:28Z</time>
      </trkpt>
      <trkpt lat="43.67216" lon="1.14291">
        <ele>242.501495</ele>
        <time>2012-10-14T11:37:29Z</time>
      </trkpt>
      <trkpt lat="43.67261" lon="1.14452">
        <ele>240.974136</ele>
        <time>2012-10-14T11:37:47Z</time>
      </trkpt>
      <trkpt lat="43.67269" lon="1.14517">
        <ele>238.428757</ele>
        <time>2012-10-14T11:37:53Z</time>
      </trkpt>
      <trkpt lat="43.67268" lon="1.14528">
        <ele>238.065933</ele>
        <time>2012-10-14T11:37:54Z</time>
      </trkpt>
      <trkpt lat="43.67265" lon="1.14552">
        <ele>236.882813</ele>
        <time>2012-10-14T11:37:56Z</time>
      </trkpt>
      <trkpt lat="43.67263" lon="1.14564">
        <ele>236.452377</ele>
        <time>2012-10-14T11:37:57Z</time>
      </trkpt>
      <trkpt lat="43.6726" lon="1.14575">
        <ele>236.17067</ele>
        <time>2012-10-14T11:37:58Z</time>
      </trkpt>
      <trkpt lat="43.67256" lon="1.14587">
        <ele>236.064117</ele>
        <time>2012-10-14T11:37:59Z</time>
      </trkpt>
      <trkpt lat="43.67252" lon="1.14598">
        <ele>235.791611</ele>
        <time>2012-10-14T11:38:00Z</time>
      </trkpt>
      <trkpt lat="43.67246" lon="1.14608">
        <ele>235.601013</ele>
        <time>2012-10-14T11:38:01Z</time>
      </trkpt>
      <trkpt lat="43.67241" lon="1.14618">
        <ele>235.577545</ele>
        <time>2012-10-14T11:38:02Z</time>
      </trkpt>
      <trkpt lat="43.67235" lon="1.14628">
        <ele>235.64447</ele>
        <time>2012-10-14T11:38:03Z</time>
      </trkpt>
      <trkpt lat="43.6718" lon="1.14728">
        <ele>231.722916</ele>
        <time>2012-10-14T11:38:13Z</time>
      </trkpt>
      <trkpt lat="43.67176" lon="1.14741">
        <ele>230.813904</ele>
        <time>2012-10-14T11:38:14Z</time>
      </trkpt>
      <trkpt lat="43.67174" lon="1.14753">
        <ele>230.053833</ele>
        <time>2012-10-14T11:38:15Z</time>
      </trkpt>
      <trkpt lat="43.67159" lon="1.14925">
        <ele>222.18573</ele>
        <time>2012-10-14T11:38:28Z</time>
      </trkpt>
      <trkpt lat="43.67139" lon="1.15084">
        <ele>219.987808</ele>
        <time>2012-10-14T11:38:41Z</time>
      </trkpt>
      <trkpt lat="43.67135" lon="1.15094">
        <ele>219.706848</ele>
        <time>2012-10-14T11:38:42Z</time>
      </trkpt>
      <trkpt lat="43.67131" lon="1.15103">
        <ele>219.610229</ele>
        <time>2012-10-14T11:38:43Z</time>
      </trkpt>
      <trkpt lat="43.67127" lon="1.15111">
        <ele>219.687668</ele>
        <time>2012-10-14T11:38:44Z</time>
      </trkpt>
      <trkpt lat="43.67123" lon="1.1512">
        <ele>219.898209</ele>
        <time>2012-10-14T11:38:45Z</time>
      </trkpt>
      <trkpt lat="43.67098" lon="1.15174">
        <ele>222.585236</ele>
        <time>2012-10-14T11:38:53Z</time>
      </trkpt>
      <trkpt lat="43.67095" lon="1.1518">
        <ele>222.616745</ele>
        <time>2012-10-14T11:38:54Z</time>
      </trkpt>
      <trkpt lat="43.67068" lon="1.15241">
        <ele>224.738251</ele>
        <time>2012-10-14T11:39:05Z</time>
      </trkpt>
      <trkpt lat="43.67066" lon="1.15247">
        <ele>224.922043</ele>
        <time>2012-10-14T11:39:06Z</time>
      </trkpt>
      <trkpt lat="43.67028" lon="1.15365">
        <ele>223.797501</ele>
        <time>2012-10-14T11:39:23Z</time>
      </trkpt>
      <trkpt lat="43.67025" lon="1.15372">
        <ele>223.735001</ele>
        <time>2012-10-14T11:39:24Z</time>
      </trkpt>
      <trkpt lat="43.67022" lon="1.15378">
        <ele>223.657501</ele>
        <time>2012-10-14T11:39:25Z</time>
      </trkpt>
      <trkpt lat="43.67018" lon="1.15391">
        <ele>223.360001</ele>
        <time>2012-10-14T11:39:27Z</time>
      </trkpt>
      <trkpt lat="43.67017" lon="1.15398">
        <ele>223.102921</ele>
        <time>2012-10-14T11:39:28Z</time>
      </trkpt>
      <trkpt lat="43.67016" lon="1.15405">
        <ele>223.050919</ele>
        <time>2012-10-14T11:39:29Z</time>
      </trkpt>
      <trkpt lat="43.67009" lon="1.15437">
        <ele>222.686722</ele>
        <time>2012-10-14T11:39:33Z</time>
      </trkpt>
      <trkpt lat="43.67007" lon="1.15464">
        <ele>221.846252</ele>
        <time>2012-10-14T11:39:36Z</time>
      </trkpt>
      <trkpt lat="43.67009" lon="1.15538">
        <ele>220.967545</ele>
        <time>2012-10-14T11:39:45Z</time>
      </trkpt>
      <trkpt lat="43.67009" lon="1.15546">
        <ele>220.983337</ele>
        <time>2012-10-14T11:39:46Z</time>
      </trkpt>
      <trkpt lat="43.67008" lon="1.15553">
        <ele>221.002014</ele>
        <time>2012-10-14T11:39:47Z</time>
      </trkpt>
      <trkpt lat="43.67008" lon="1.15588">
        <ele>221.047256</ele>
        <time>2012-10-14T11:39:52Z</time>
      </trkpt>
      <trkpt lat="43.67007" lon="1.15594">
        <ele>220.974243</ele>
        <time>2012-10-14T11:39:53Z</time>
      </trkpt>
      <trkpt lat="43.67006" lon="1.15599">
        <ele>220.92598</ele>
        <time>2012-10-14T11:39:54Z</time>
      </trkpt>
      <trkpt lat="43.67003" lon="1.15609">
        <ele>220.89679</ele>
        <time>2012-10-14T11:39:56Z</time>
      </trkpt>
      <trkpt lat="43.67001" lon="1.15614">
        <ele>220.903992</ele>
        <time>2012-10-14T11:39:57Z</time>
      </trkpt>
      <trkpt lat="43.66999" lon="1.15619">
        <ele>220.928146</ele>
        <time>2012-10-14T11:39:58Z</time>
      </trkpt>
      <trkpt lat="43.66975" lon="1.15672">
        <ele>221.573059</ele>
        <time>2012-10-14T11:40:09Z</time>
      </trkpt>
      <trkpt lat="43.66951" lon="1.15759">
        <ele>221.046448</ele>
        <time>2012-10-14T11:40:24Z</time>
      </trkpt>
      <trkpt lat="43.66943" lon="1.15787">
        <ele>220.855133</ele>
        <time>2012-10-14T11:40:29Z</time>
      </trkpt>
      <trkpt lat="43.66934" lon="1.15825">
        <ele>220.604004</ele>
        <time>2012-10-14T11:40:36Z</time>
      </trkpt>
      <trkpt lat="43.66927" lon="1.15852">
        <ele>219.62146</ele>
        <time>2012-10-14T11:40:40Z</time>
      </trkpt>
      <trkpt lat="43.6692" lon="1.15874">
        <ele>218.365005</ele>
        <time>2012-10-14T11:40:43Z</time>
      </trkpt>
      <trkpt lat="43.66908" lon="1.15908">
        <ele>216.025909</ele>
        <time>2012-10-14T11:40:48Z</time>
      </trkpt>
      <trkpt lat="43.66903" lon="1.15923">
        <ele>214.994095</ele>
        <time>2012-10-14T11:40:50Z</time>
      </trkpt>
      <trkpt lat="43.66876" lon="1.16032">
        <ele>207.238022</ele>
        <time>2012-10-14T11:41:00Z</time>
      </trkpt>
      <trkpt lat="43.66868" lon="1.16066">
        <ele>203.514694</ele>
        <time>2012-10-14T11:41:03Z</time>
      </trkpt>
      <trkpt lat="43.6686" lon="1.16108">
        <ele>198.230576</ele>
        <time>2012-10-14T11:41:09Z</time>
      </trkpt>
      <trkpt lat="43.66858" lon="1.16111">
        <ele>197.794525</ele>
        <time>2012-10-14T11:41:10Z</time>
      </trkpt>
      <trkpt lat="43.66847" lon="1.16127">
        <ele>195.381424</ele>
        <time>2012-10-14T11:41:16Z</time>
      </trkpt>
      <trkpt lat="43.66846" lon="1.16133">
        <ele>194.6306</ele>
        <time>2012-10-14T11:41:17Z</time>
      </trkpt>
      <trkpt lat="43.66847" lon="1.1614">
        <ele>193.829834</ele>
        <time>2012-10-14T11:41:18Z</time>
      </trkpt>
      <trkpt lat="43.66851" lon="1.16172">
        <ele>191.729492</ele>
        <time>2012-10-14T11:41:25Z</time>
      </trkpt>
      <trkpt lat="43.66846" lon="1.16201">
        <ele>189.977036</ele>
        <time>2012-10-14T11:41:29Z</time>
      </trkpt>
      <trkpt lat="43.66843" lon="1.16221">
        <ele>188.24469</ele>
        <time>2012-10-14T11:41:31Z</time>
      </trkpt>
      <trkpt lat="43.66841" lon="1.16231">
        <ele>187.126587</ele>
        <time>2012-10-14T11:41:32Z</time>
      </trkpt>
      <trkpt lat="43.66839" lon="1.16258">
        <ele>183.950317</ele>
        <time>2012-10-14T11:41:35Z</time>
      </trkpt>
      <trkpt lat="43.66838" lon="1.16267">
        <ele>182.824249</ele>
        <time>2012-10-14T11:41:36Z</time>
      </trkpt>
      <trkpt lat="43.66836" lon="1.16275">
        <ele>181.953873</ele>
        <time>2012-10-14T11:41:37Z</time>
      </trkpt>
      <trkpt lat="43.66835" lon="1.16283">
        <ele>181.153458</ele>
        <time>2012-10-14T11:41:38Z</time>
      </trkpt>
      <trkpt lat="43.66834" lon="1.16291">
        <ele>180.4646</ele>
        <time>2012-10-14T11:41:39Z</time>
      </trkpt>
      <trkpt lat="43.66833" lon="1.16298">
        <ele>179.805283</ele>
        <time>2012-10-14T11:41:40Z</time>
      </trkpt>
      <trkpt lat="43.66832" lon="1.16306">
        <ele>179.153549</ele>
        <time>2012-10-14T11:41:41Z</time>
      </trkpt>
      <trkpt lat="43.6683" lon="1.16329">
        <ele>177.355637</ele>
        <time>2012-10-14T11:41:44Z</time>
      </trkpt>
      <trkpt lat="43.66828" lon="1.16343">
        <ele>176.472748</ele>
        <time>2012-10-14T11:41:46Z</time>
      </trkpt>
      <trkpt lat="43.66826" lon="1.16357">
        <ele>175.688202</ele>
        <time>2012-10-14T11:41:48Z</time>
      </trkpt>
      <trkpt lat="43.66825" lon="1.16364">
        <ele>175.352493</ele>
        <time>2012-10-14T11:41:49Z</time>
      </trkpt>
      <trkpt lat="43.66825" lon="1.16369">
        <ele>175.108566</ele>
        <time>2012-10-14T11:41:50Z</time>
      </trkpt>
      <trkpt lat="43.66827" lon="1.1638">
        <ele>174.586533</ele>
        <time>2012-10-14T11:41:55Z</time>
      </trkpt>
      <trkpt lat="43.66826" lon="1.16383">
        <ele>174.465134</ele>
        <time>2012-10-14T11:41:56Z</time>
      </trkpt>
      <trkpt lat="43.66825" lon="1.16385">
        <ele>174.336761</ele>
        <time>2012-10-14T11:41:57Z</time>
      </trkpt>
      <trkpt lat="43.66824" lon="1.16387">
        <ele>174.238892</ele>
        <time>2012-10-14T11:41:58Z</time>
      </trkpt>
      <trkpt lat="43.66824" lon="1.16389">
        <ele>174.16272</ele>
        <time>2012-10-14T11:42:13Z</time>
      </trkpt>
      <trkpt lat="43.66824" lon="1.1639">
        <ele>174.107605</ele>
        <time>2012-10-14T11:42:22Z</time>
      </trkpt>
      <trkpt lat="43.66824" lon="1.16392">
        <ele>174.021057</ele>
        <time>2012-10-14T11:42:23Z</time>
      </trkpt>
      <trkpt lat="43.66824" lon="1.16394">
        <ele>173.953079</ele>
        <time>2012-10-14T11:42:24Z</time>
      </trkpt>
      <trkpt lat="43.66823" lon="1.16397">
        <ele>173.877945</ele>
        <time>2012-10-14T11:42:25Z</time>
      </trkpt>
      <trkpt lat="43.66821" lon="1.16401">
        <ele>173.795929</ele>
        <time>2012-10-14T11:42:26Z</time>
      </trkpt>
      <trkpt lat="43.6682" lon="1.16405">
        <ele>173.696945</ele>
        <time>2012-10-14T11:42:27Z</time>
      </trkpt>
      <trkpt lat="43.66814" lon="1.16424">
        <ele>173.290192</ele>
        <time>2012-10-14T11:42:31Z</time>
      </trkpt>
      <trkpt lat="43.66812" lon="1.1643">
        <ele>173.191147</ele>
        <time>2012-10-14T11:42:32Z</time>
      </trkpt>
      <trkpt lat="43.66811" lon="1.16436">
        <ele>173.088837</ele>
        <time>2012-10-14T11:42:33Z</time>
      </trkpt>
      <trkpt lat="43.66781" lon="1.1654">
        <ele>171.158234</ele>
        <time>2012-10-14T11:42:48Z</time>
      </trkpt>
      <trkpt lat="43.6675" lon="1.16647">
        <ele>170.83165</ele>
        <time>2012-10-14T11:43:02Z</time>
      </trkpt>
      <trkpt lat="43.66736" lon="1.16784">
        <ele>165.19603</ele>
        <time>2012-10-14T11:43:18Z</time>
      </trkpt>
      <trkpt lat="43.66735" lon="1.16864">
        <ele>161.166245</ele>
        <time>2012-10-14T11:43:26Z</time>
      </trkpt>
      <trkpt lat="43.66714" lon="1.17011">
        <ele>159.938629</ele>
        <time>2012-10-14T11:43:40Z</time>
      </trkpt>
      <trkpt lat="43.66724" lon="1.17189">
        <ele>153.623749</ele>
        <time>2012-10-14T11:43:55Z</time>
      </trkpt>
      <trkpt lat="43.66733" lon="1.17415">
        <ele>146.027496</ele>
        <time>2012-10-14T11:44:13Z</time>
      </trkpt>
      <trkpt lat="43.66719" lon="1.17663">
        <ele>139.154022</ele>
        <time>2012-10-14T11:44:31Z</time>
      </trkpt>
      <trkpt lat="43.66678" lon="1.17877">
        <ele>135.057816</ele>
        <time>2012-10-14T11:44:47Z</time>
      </trkpt>
      <trkpt lat="43.6668" lon="1.17918">
        <ele>134.433273</ele>
        <time>2012-10-14T11:44:51Z</time>
      </trkpt>
      <trkpt lat="43.66683" lon="1.17942">
        <ele>134.121445</ele>
        <time>2012-10-14T11:44:54Z</time>
      </trkpt>
      <trkpt lat="43.66683" lon="1.1795">
        <ele>133.986252</ele>
        <time>2012-10-14T11:44:55Z</time>
      </trkpt>
      <trkpt lat="43.66681" lon="1.17958">
        <ele>133.816254</ele>
        <time>2012-10-14T11:44:56Z</time>
      </trkpt>
      <trkpt lat="43.66643" lon="1.18082">
        <ele>131.315506</ele>
        <time>2012-10-14T11:45:12Z</time>
      </trkpt>
      <trkpt lat="43.66631" lon="1.18132">
        <ele>130.75209</ele>
        <time>2012-10-14T11:45:19Z</time>
      </trkpt>
      <trkpt lat="43.6662" lon="1.18165">
        <ele>129.912827</ele>
        <time>2012-10-14T11:45:24Z</time>
      </trkpt>
      <trkpt lat="43.66613" lon="1.1828">
        <ele>129.269669</ele>
        <time>2012-10-14T11:45:40Z</time>
      </trkpt>
      <trkpt lat="43.66613" lon="1.18306">
        <ele>129.075653</ele>
        <time>2012-10-14T11:45:44Z</time>
      </trkpt>
      <trkpt lat="43.66625" lon="1.18331">
        <ele>129</ele>
        <time>2012-10-14T11:45:49Z</time>
      </trkpt>
      <trkpt lat="43.66636" lon="1.18341">
        <ele>129</ele>
        <time>2012-10-14T11:45:52Z</time>
      </trkpt>
      <trkpt lat="43.66644" lon="1.18364">
        <ele>129.027954</ele>
        <time>2012-10-14T11:45:57Z</time>
      </trkpt>
      <trkpt lat="43.66653" lon="1.18414">
        <ele>129</ele>
        <time>2012-10-14T11:46:09Z</time>
      </trkpt>
      <trkpt lat="43.66681" lon="1.18455">
        <ele>128.735001</ele>
        <time>2012-10-14T11:46:20Z</time>
      </trkpt>
      <trkpt lat="43.66703" lon="1.18517">
        <ele>128.290497</ele>
        <time>2012-10-14T11:46:34Z</time>
      </trkpt>
      <trkpt lat="43.66698" lon="1.1857">
        <ele>128</ele>
        <time>2012-10-14T11:46:46Z</time>
      </trkpt>
      <trkpt lat="43.66673" lon="1.18612">
        <ele>128</ele>
        <time>2012-10-14T11:46:57Z</time>
      </trkpt>
      <trkpt lat="43.66668" lon="1.1862">
        <ele>128</ele>
        <time>2012-10-14T11:46:59Z</time>
      </trkpt>
      <trkpt lat="43.66646" lon="1.18634">
        <ele>128</ele>
        <time>2012-10-14T11:47:05Z</time>
      </trkpt>
      <trkpt lat="43.66631" lon="1.18647">
        <ele>128</ele>
        <time>2012-10-14T11:47:11Z</time>
      </trkpt>
      <trkpt lat="43.66615" lon="1.18679">
        <ele>128</ele>
        <time>2012-10-14T11:47:25Z</time>
      </trkpt>
      <trkpt lat="43.66603" lon="1.18698">
        <ele>128</ele>
        <time>2012-10-14T11:47:36Z</time>
      </trkpt>
      <trkpt lat="43.666" lon="1.18701">
        <ele>128</ele>
        <time>2012-10-14T11:47:38Z</time>
      </trkpt>
      <trkpt lat="43.66597" lon="1.1871">
        <ele>128</ele>
        <time>2012-10-14T11:47:43Z</time>
      </trkpt>
      <trkpt lat="43.66594" lon="1.18728">
        <ele>128.041687</ele>
        <time>2012-10-14T11:47:57Z</time>
      </trkpt>
      <trkpt lat="43.66594" lon="1.18727">
        <ele>128.03743</ele>
        <time>2012-10-14T11:47:58Z</time>
      </trkpt>
      <trkpt lat="43.66596" lon="1.18717">
        <ele>128.011612</ele>
        <time>2012-10-14T11:48:02Z</time>
      </trkpt>
      <trkpt lat="43.66621" lon="1.18668">
        <ele>128</ele>
        <time>2012-10-14T11:48:15Z</time>
      </trkpt>
      <trkpt lat="43.66626" lon="1.1866">
        <ele>128</ele>
        <time>2012-10-14T11:48:17Z</time>
      </trkpt>
      <trkpt lat="43.66623" lon="1.18652">
        <ele>128</ele>
        <time>2012-10-14T11:48:21Z</time>
      </trkpt>
      <trkpt lat="43.66601" lon="1.18701">
        <ele>128</ele>
        <time>2012-10-14T11:48:33Z</time>
      </trkpt>
      <trkpt lat="43.66593" lon="1.18725">
        <ele>128.048203</ele>
        <time>2012-10-14T11:48:38Z</time>
      </trkpt>
      <trkpt lat="43.66618" lon="1.18749">
        <ele>128</ele>
        <time>2012-10-14T11:48:47Z</time>
      </trkpt>
      <trkpt lat="43.66653" lon="1.18767">
        <ele>128</ele>
        <time>2012-10-14T11:48:59Z</time>
      </trkpt>
      <trkpt lat="43.66683" lon="1.18791">
        <ele>128</ele>
        <time>2012-10-14T11:49:12Z</time>
      </trkpt>
      <trkpt lat="43.6671" lon="1.18813">
        <ele>128</ele>
        <time>2012-10-14T11:49:22Z</time>
      </trkpt>
      <trkpt lat="43.6674" lon="1.18849">
        <ele>128.152496</ele>
        <time>2012-10-14T11:49:34Z</time>
      </trkpt>
      <trkpt lat="43.66782" lon="1.18907">
        <ele>129</ele>
        <time>2012-10-14T11:49:50Z</time>
      </trkpt>
      <trkpt lat="43.66824" lon="1.18965">
        <ele>129</ele>
        <time>2012-10-14T11:50:05Z</time>
      </trkpt>
      <trkpt lat="43.66858" lon="1.19018">
        <ele>129</ele>
        <time>2012-10-14T11:50:19Z</time>
      </trkpt>
      <trkpt lat="43.66862" lon="1.19023">
        <ele>129</ele>
        <time>2012-10-14T11:50:21Z</time>
      </trkpt>
      <trkpt lat="43.66857" lon="1.19063">
        <ele>128.860626</ele>
        <time>2012-10-14T11:50:31Z</time>
      </trkpt>
      <trkpt lat="43.66828" lon="1.1911">
        <ele>128.101868</ele>
        <time>2012-10-14T11:50:44Z</time>
      </trkpt>
      <trkpt lat="43.66781" lon="1.19153">
        <ele>128.569824</ele>
        <time>2012-10-14T11:51:00Z</time>
      </trkpt>
      <trkpt lat="43.66764" lon="1.19168">
        <ele>128.881805</ele>
        <time>2012-10-14T11:51:05Z</time>
      </trkpt>
      <trkpt lat="43.66761" lon="1.19171">
        <ele>128.927109</ele>
        <time>2012-10-14T11:51:06Z</time>
      </trkpt>
      <trkpt lat="43.66747" lon="1.19186">
        <ele>128.979752</ele>
        <time>2012-10-14T11:51:10Z</time>
      </trkpt>
      <trkpt lat="43.66743" lon="1.1919">
        <ele>128.977798</ele>
        <time>2012-10-14T11:51:11Z</time>
      </trkpt>
      <trkpt lat="43.66741" lon="1.19194">
        <ele>128.981277</ele>
        <time>2012-10-14T11:51:12Z</time>
      </trkpt>
      <trkpt lat="43.66738" lon="1.19199">
        <ele>128.991882</ele>
        <time>2012-10-14T11:51:13Z</time>
      </trkpt>
      <trkpt lat="43.66735" lon="1.19202">
        <ele>129</ele>
        <time>2012-10-14T11:51:14Z</time>
      </trkpt>
      <trkpt lat="43.66732" lon="1.19206">
        <ele>129</ele>
        <time>2012-10-14T11:51:15Z</time>
      </trkpt>
      <trkpt lat="43.66728" lon="1.19209">
        <ele>129</ele>
        <time>2012-10-14T11:51:16Z</time>
      </trkpt>
      <trkpt lat="43.66725" lon="1.19212">
        <ele>129</ele>
        <time>2012-10-14T11:51:17Z</time>
      </trkpt>
      <trkpt lat="43.66718" lon="1.1922">
        <ele>129</ele>
        <time>2012-10-14T11:51:19Z</time>
      </trkpt>
      <trkpt lat="43.66671" lon="1.19293">
        <ele>130.274368</ele>
        <time>2012-10-14T11:51:36Z</time>
      </trkpt>
      <trkpt lat="43.66647" lon="1.19336">
        <ele>131.538132</ele>
        <time>2012-10-14T11:51:50Z</time>
      </trkpt>
      <trkpt lat="43.66649" lon="1.19344">
        <ele>131.5979</ele>
        <time>2012-10-14T11:51:53Z</time>
      </trkpt>
    </trkseg>
  </trk>
</gpx>